[[{"header":{"parameterUnit":"m.s-1","parameterCategory":1,"la1":30.6,"la2":29.2853,"lo1":-89.7004,"lo2":-87.6739,"dy":0.0162,"dx":0.0183,"nx":112,"ny":82,"refTime":"2026-03-23T12:00:00:Z","depth":0,"parameterNumber":2,"parameterNumberName":"U-component_of_WINDS"},"data":[0.0,0.0,0.0,0.0,0.0,0.0,0.0,0.0,0.0,0.0,0.0,0.0,0.0,0.0,0.0,0.0,0.0,0.0,0.0,0.0,0.0,0.0,0.0,0.0,0.0,0.0,0.0,0.0,0.0,0.0,0.0,0.0,0.0,0.0,0.0,0.0,0.0,0.0,0.0,0.0,0.0,0.0,0.0,0.0,0.0,0.0,0.0,0.0,0.0,0.0,0.0,0.0,0.0,0.0,0.0,0.0,0.0,0.0,0.0,0.0,0.0,0.0,0.0,0.0,0.0,0.0,0.0,0.0,0.0,0.0,0.0,0.0,0.0,0.0,0.0,0.0,0.0,0.0,0.0,0.0,0.0,0.0,0.0,0.0,0.0,0.0,0.0,0.0,0.0,0.0,0.0,6.9442,7.8434,8.2729,8.0212,7.7194,7.2709,6.6242,0.0,0.0,0.0,0.0,0.0,0.0,0.0,0.0,0.0,0.0,0.0,0.0,0.0,0.0,0.0,0.0,0.0,0.0,0.0,0.0,0.0,0.0,0.0,0.0,0.0,0.0,0.0,0.0,0.0,0.0,0.0,0.0,0.0,0.0,0.0,0.0,0.0,0.0,0.0,0.0,0.0,0.0,0.0,0.0,0.0,0.0,0.0,0.0,0.0,0.0,0.0,0.0,0.0,0.0,0.0,0.0,0.0,0.0,0.0,0.0,0.0,0.0,0.0,0.0,0.0,0.0,0.0,0.0,0.0,0.0,0.0,0.0,0.0,0.0,0.0,0.0,0.0,0.0,0.0,0.0,0.0,0.0,0.0,0.0,0.0,0.0,0.0,0.0,0.0,0.0,0.0,0.0,0.0,0.0,0.0,0.0,0.0,0.0,0.0,0.0,0.0,0.0,0.0,0.0,6.4304,7.5873,8.2121,8.4168,8.1085,7.9103,7.5285,6.8745,0.0,0.0,0.0,0.0,0.0,0.0,0.0,0.0,0.0,0.0,0.0,0.0,0.0,0.0,0.0,0.0,0.0,0.0,0.0,0.0,0.0,0.0,0.0,0.0,0.0,0.0,0.0,0.0,0.0,0.0,0.0,0.0,0.0,0.0,0.0,0.0,0.0,0.0,0.0,0.0,0.0,0.0,0.0,0.0,0.0,0.0,0.0,0.0,0.0,0.0,0.0,0.0,0.0,0.0,0.0,0.0,0.0,0.0,0.0,0.0,0.0,0.0,0.0,0.0,0.0,0.0,0.0,0.0,0.0,0.0,0.0,0.0,0.0,0.0,0.0,0.0,0.0,0.0,0.0,0.0,0.0,0.0,0.0,0.0,0.0,0.0,0.0,0.0,0.0,0.0,0.0,0.0,0.0,0.0,0.0,0.0,0.0,0.0,0.0,0.0,0.0,0.0,0.0,6.346,7.1241,7.9066,8.303,8.4022,8.1232,7.8288,7.3846,6.735,5.9795,0.0,0.0,0.0,0.0,0.0,0.0,0.0,0.0,0.0,0.0,0.0,0.0,0.0,0.0,0.0,0.0,0.0,0.0,0.0,0.0,0.0,0.0,0.0,0.0,0.0,0.0,0.0,0.0,0.0,0.0,0.0,0.0,0.0,0.0,0.0,0.0,0.0,0.0,0.0,0.0,0.0,0.0,0.0,0.0,0.0,0.0,0.0,0.0,0.0,0.0,0.0,0.0,0.0,0.0,0.0,0.0,0.0,0.0,0.0,0.0,0.0,0.0,0.0,0.0,0.0,0.0,0.0,0.0,0.0,0.0,0.0,0.0,0.0,0.0,0.0,0.0,0.0,0.0,0.0,0.0,0.0,0.0,0.0,0.0,0.0,0.0,0.0,0.0,0.0,0.0,0.0,0.0,0.0,0.0,0.0,0.0,0.0,0.0,0.0,0.0,0.0,0.0,7.0573,7.6893,8.06,8.3324,8.3765,8.0938,7.6783,7.1681,6.5405,5.8553,0.0,0.0,0.0,0.0,0.0,0.0,0.0,0.0,0.0,0.0,0.0,0.0,0.0,0.0,0.0,0.0,0.0,0.0,0.0,0.0,0.0,0.0,0.0,0.0,0.0,0.0,0.0,0.0,0.0,0.0,0.0,0.0,0.0,0.0,0.0,0.0,0.0,0.0,0.0,0.0,0.0,0.0,0.0,0.0,0.0,0.0,0.0,0.0,0.0,0.0,0.0,0.0,0.0,0.0,0.0,0.0,0.0,0.0,0.0,0.0,0.0,0.0,0.0,0.0,0.0,0.0,0.0,0.0,0.0,0.0,0.0,0.0,0.0,0.0,0.0,0.0,0.0,0.0,0.0,0.0,0.0,0.0,0.0,0.0,0.0,0.0,0.0,0.0,0.0,0.0,0.0,0.0,0.0,0.0,0.0,0.0,0.0,0.0,0.0,0.0,0.0,0.0,7.2591,7.8133,8.071,8.3838,8.414,8.022,7.5432,7.0257,6.4537,5.6686,0.0,0.0,0.0,0.0,0.0,0.0,0.0,0.0,0.0,0.0,0.0,0.0,0.0,0.0,0.0,0.0,0.0,0.0,0.0,0.0,0.0,0.0,0.0,0.0,0.0,0.0,0.0,0.0,0.0,0.0,0.0,0.0,0.0,0.0,0.0,0.0,0.0,0.0,0.0,0.0,0.0,0.0,0.0,0.0,0.0,0.0,0.0,0.0,0.0,0.0,0.0,0.0,0.0,0.0,0.0,0.0,0.0,0.0,0.0,0.0,0.0,0.0,0.0,0.0,0.0,0.0,0.0,0.0,0.0,0.0,0.0,0.0,0.0,0.0,0.0,0.0,0.0,0.0,0.0,0.0,0.0,0.0,0.0,0.0,0.0,0.0,0.0,0.0,0.0,0.0,0.0,0.0,0.0,0.0,0.0,0.0,0.0,0.0,0.0,0.0,0.0,0.0,7.2812,7.8243,0.0,8.2986,8.2884,7.9368,7.4588,6.9112,6.2921,0.0,0.0,0.0,0.0,0.0,0.0,0.0,0.0,0.0,0.0,0.0,0.0,0.0,0.0,0.0,0.0,0.0,0.0,0.0,0.0,0.0,0.0,0.0,0.0,0.0,0.0,0.0,0.0,0.0,0.0,0.0,0.0,0.0,0.0,0.0,0.0,0.0,0.0,0.0,0.0,0.0,0.0,0.0,0.0,0.0,0.0,0.0,0.0,0.0,0.0,0.0,0.0,0.0,0.0,0.0,0.0,0.0,0.0,0.0,0.0,0.0,0.0,0.0,0.0,0.0,0.0,0.0,0.0,0.0,0.0,0.0,0.0,0.0,0.0,0.0,0.0,0.0,0.0,0.0,0.0,0.0,0.0,0.0,0.0,0.0,0.0,0.0,0.0,0.0,0.0,0.0,0.0,0.0,0.0,0.0,0.0,0.0,0.0,0.0,0.0,0.0,0.0,6.5932,7.3223,7.8471,0.0,8.2288,8.1986,7.8471,7.3479,6.7974,6.1967,0.0,0.0,0.0,0.0,0.0,0.0,0.0,0.0,0.0,0.0,0.0,0.0,0.0,0.0,0.0,0.0,0.0,0.0,0.0,0.0,0.0,0.0,0.0,0.0,0.0,0.0,0.0,0.0,0.0,0.0,0.0,0.0,0.0,0.0,0.0,0.0,0.0,0.0,0.0,0.0,0.0,0.0,0.0,0.0,0.0,0.0,0.0,0.0,0.0,0.0,0.0,0.0,0.0,0.0,0.0,0.0,0.0,0.0,0.0,0.0,0.0,0.0,0.0,0.0,0.0,0.0,0.0,0.0,0.0,0.0,0.0,0.0,0.0,0.0,0.0,0.0,0.0,0.0,0.0,0.0,0.0,0.0,0.0,0.0,0.0,0.0,0.0,0.0,0.0,0.0,0.0,0.0,0.0,0.0,0.0,0.0,0.0,0.0,0.0,0.0,0.0,0.0,6.6746,7.4081,7.889,7.9706,8.1929,8.1729,7.7656,7.2151,6.6836,0.0,0.0,0.0,0.0,0.0,0.0,0.0,0.0,0.0,0.0,0.0,0.0,0.0,0.0,0.0,0.0,0.0,0.0,0.0,0.0,0.0,0.0,0.0,0.0,0.0,0.0,0.0,0.0,0.0,0.0,0.0,0.0,0.0,0.0,0.0,0.0,0.0,0.0,0.0,0.0,0.0,0.0,0.0,0.0,0.0,0.0,0.0,0.0,0.0,0.0,0.0,0.0,0.0,0.0,0.0,0.0,0.0,0.0,0.0,0.0,0.0,0.0,0.0,0.0,0.0,0.0,0.0,0.0,0.0,0.0,0.0,0.0,0.0,0.0,0.0,0.0,0.0,0.0,0.0,0.0,0.0,0.0,0.0,0.0,0.0,0.0,0.0,0.0,0.0,0.0,0.0,0.0,0.0,0.0,0.0,0.0,0.0,0.0,0.0,0.0,0.0,0.0,0.0,6.6673,7.3553,7.8214,7.9669,8.0938,8.0526,7.7538,7.3179,6.8261,6.2799,0.0,0.0,0.0,0.0,0.0,0.0,0.0,0.0,0.0,0.0,0.0,0.0,0.0,0.0,0.0,0.0,0.0,0.0,0.0,0.0,0.0,0.0,0.0,0.0,0.0,0.0,0.0,0.0,0.0,0.0,0.0,0.0,0.0,0.0,0.0,0.0,0.0,0.0,0.0,0.0,0.0,0.0,0.0,0.0,0.0,0.0,0.0,0.0,0.0,0.0,0.0,0.0,0.0,0.0,0.0,0.0,0.0,0.0,0.0,0.0,0.0,0.0,0.0,0.0,0.0,0.0,0.0,0.0,0.0,0.0,0.0,0.0,0.0,0.0,0.0,0.0,0.0,0.0,0.0,0.0,0.0,0.0,0.0,0.0,0.0,0.0,0.0,0.0,0.0,0.0,0.0,0.0,0.0,0.0,0.0,0.0,0.0,0.0,0.0,0.0,0.0,0.0,6.6709,7.3634,7.8214,7.9221,8.0314,8.0013,7.7509,7.45,7.0169,6.4187,0.0,0.0,0.0,0.0,0.0,0.0,0.0,0.0,0.0,0.0,0.0,0.0,0.0,0.0,0.0,0.0,0.0,0.0,0.0,0.0,0.0,0.0,0.0,0.0,0.0,0.0,0.0,0.0,0.0,0.0,0.0,0.0,0.0,0.0,0.0,0.0,0.0,0.0,0.0,0.0,0.0,0.0,0.0,0.0,0.0,0.0,0.0,0.0,0.0,0.0,0.0,0.0,0.0,0.0,0.0,0.0,0.0,0.0,0.0,0.0,0.0,0.0,0.0,0.0,0.0,0.0,0.0,0.0,0.0,0.0,0.0,0.0,0.0,0.0,0.0,0.0,0.0,0.0,0.0,0.0,0.0,0.0,0.0,0.0,0.0,0.0,0.0,0.0,0.0,0.0,0.0,0.0,0.0,0.0,0.0,0.0,0.0,0.0,0.0,0.0,0.0,0.0,6.6746,7.3935,7.8442,7.8589,7.991,7.9792,7.7391,7.5711,7.2114,6.5809,0.0,0.0,0.0,0.0,0.0,0.0,0.0,0.0,0.0,0.0,0.0,0.0,0.0,0.0,0.0,0.0,0.0,0.0,0.0,0.0,0.0,0.0,0.0,0.0,0.0,0.0,0.0,0.0,0.0,0.0,0.0,0.0,0.0,0.0,0.0,0.0,0.0,0.0,0.0,0.0,0.0,0.0,0.0,0.0,0.0,0.0,0.0,0.0,0.0,0.0,0.0,0.0,0.0,0.0,0.0,0.0,0.0,0.0,0.0,0.0,4.3545,0.0,0.0,0.0,0.0,0.0,0.0,0.0,0.0,0.0,0.0,0.0,0.0,0.0,0.0,0.0,0.0,0.0,0.0,0.0,0.0,0.0,0.0,0.0,0.0,0.0,0.0,0.0,0.0,0.0,0.0,0.0,0.0,0.0,0.0,0.0,0.0,0.0,0.0,0.0,0.0,0.0,6.6673,7.2943,7.7121,7.8442,7.8919,7.8369,7.6489,7.4882,7.1762,6.6586,5.9397,0.0,0.0,0.0,0.0,0.0,0.0,0.0,0.0,0.0,0.0,0.0,0.0,0.0,0.0,0.0,0.0,0.0,0.0,0.0,0.0,0.0,0.0,0.0,0.0,0.0,0.0,0.0,0.0,0.0,0.0,0.0,0.0,0.0,0.0,0.0,0.0,0.0,0.0,0.0,0.0,0.0,0.0,0.0,0.0,0.0,0.0,0.0,0.0,0.0,0.0,0.0,0.0,0.0,0.0,0.0,0.0,0.0,0.0,0.0,0.0,4.571,0.0,0.0,0.0,0.0,0.0,0.0,0.0,0.0,0.0,0.0,0.0,0.0,0.0,0.0,0.0,0.0,0.0,0.0,0.0,0.0,0.0,0.0,0.0,0.0,0.0,0.0,0.0,0.0,0.0,0.0,0.0,0.0,0.0,0.0,0.0,0.0,0.0,0.0,0.0,0.0,6.5595,7.2129,7.6423,7.7304,7.8112,7.7928,7.624,7.4992,7.2202,6.7363,6.0933,0.0,0.0,0.0,0.0,0.0,0.0,0.0,0.0,0.0,0.0,0.0,0.0,0.0,0.0,0.0,0.0,0.0,0.0,0.0,0.0,0.0,0.0,0.0,0.0,0.0,0.0,0.0,0.0,0.0,0.0,0.0,0.0,0.0,0.0,0.0,0.0,0.0,0.0,0.0,0.0,0.0,0.0,0.0,0.0,0.0,0.0,0.0,0.0,0.0,0.0,0.0,0.0,0.0,5.6283,5.7331,5.8152,5.8017,5.8355,5.8804,5.3721,5.1352,5.0947,4.9341,0.0,0.0,0.0,0.0,0.0,0.0,0.0,0.0,0.0,0.0,0.0,0.0,0.0,0.0,0.0,0.0,0.0,0.0,0.0,0.0,0.0,0.0,0.0,0.0,5.416,5.3746,5.0439,0.0,0.0,0.0,0.0,0.0,0.0,0.0,0.0,0.0,0.0,0.0,6.4602,7.1336,7.5616,7.6056,7.7341,7.7598,7.6203,7.5351,7.2966,6.8398,6.2909,5.7807,0.0,0.0,0.0,0.0,0.0,0.0,0.0,0.0,0.0,0.0,0.0,0.0,0.0,0.0,0.0,0.0,0.0,0.0,0.0,0.0,0.0,0.0,0.0,0.0,0.0,0.0,0.0,0.0,0.0,0.0,0.0,0.0,4.2259,4.2882,0.0,0.0,0.0,0.0,0.0,0.0,0.0,0.0,0.0,0.0,0.0,0.0,0.0,5.2849,5.5615,5.7196,5.9056,6.124,6.1409,6.2255,6.3565,6.2912,6.3014,6.3632,6.2202,0.0,5.4786,5.263,0.0,0.0,0.0,0.0,0.0,0.0,0.0,0.0,0.0,0.0,0.0,0.0,0.0,0.0,0.0,0.0,0.0,0.0,0.0,0.0,0.0,0.0,5.5911,5.8457,5.9133,5.9607,0.0,5.679,5.2909,5.3458,5.0813,0.0,0.0,0.0,0.0,0.0,0.0,0.0,6.5241,7.015,7.378,7.5873,7.6313,7.635,7.613,7.5351,7.3443,7.0007,6.5074,6.078,5.7341,5.1725,0.0,0.0,0.0,0.0,0.0,0.0,0.0,0.0,0.0,0.0,0.0,0.0,0.0,0.0,0.0,0.0,0.0,0.0,0.0,0.0,0.0,0.0,0.0,0.0,0.0,0.0,0.0,0.0,0.0,4.3612,4.4797,4.4715,4.5053,4.4993,0.0,0.0,0.0,0.0,0.0,0.0,0.0,0.0,0.0,5.2545,5.4879,5.734,5.9921,6.2236,6.4333,6.617,6.7015,6.7963,6.8977,6.8662,6.891,6.9563,6.8808,6.6734,6.3463,5.866,5.5581,5.3585,0.0,0.0,0.0,0.0,4.983,5.1133,5.1894,5.1995,5.1657,5.0845,0.0,0.0,0.0,0.0,0.0,0.0,0.0,0.0,0.0,0.0,6.0013,6.211,6.2966,6.3632,6.5043,6.2719,5.9945,0.0,5.5726,5.2557,4.9718,0.0,0.0,0.0,0.0,5.7128,6.3229,6.8579,7.2562,7.4551,7.5542,7.6269,7.6746,7.5601,7.4103,7.2246,6.8414,6.4781,6.1563,5.7257,5.2962,0.0,0.0,0.0,0.0,0.0,0.0,0.0,0.0,0.0,0.0,0.0,0.0,0.0,0.0,0.0,0.0,0.0,0.0,0.0,0.0,0.0,0.0,0.0,0.0,0.0,0.0,0.0,0.0,4.594,4.7368,4.7387,4.8037,4.8011,0.0,0.0,0.0,0.0,0.0,0.0,5.1514,5.2799,5.4431,5.6537,5.909,6.1424,6.3507,6.6092,6.8053,6.9383,7.0692,7.1672,7.2394,7.2597,7.2981,7.3454,7.2913,7.1954,7.0308,6.4478,6.0689,5.8278,5.5843,5.4321,5.3509,5.3687,5.4499,5.5615,5.6334,5.6833,5.6959,5.5843,5.4296,5.2503,5.0473,0.0,0.0,0.0,0.0,5.3509,5.7273,6.0597,6.3372,6.5053,6.6,6.6779,6.7512,6.6914,6.5402,0.0,5.9911,5.704,5.3342,0.0,0.0,0.0,0.0,5.7497,6.2429,6.7897,7.2004,7.3817,7.5065,7.6195,7.7208,7.5821,7.4544,7.3751,7.0697,6.7534,6.4537,6.1257,5.7056,5.1778,0.0,0.0,0.0,0.0,0.0,0.0,0.0,0.0,0.0,0.0,0.0,0.0,0.0,0.0,0.0,0.0,0.0,0.0,0.0,0.0,0.0,0.0,0.0,0.0,0.0,0.0,0.0,0.0,0.0,5.1716,5.2672,0.0,0.0,0.0,0.0,5.4,5.4862,5.624,5.8371,5.9225,6.0385,6.1951,6.3497,6.5043,6.6565,6.8189,6.9383,7.0139,7.0928,7.1672,7.2428,7.3116,7.3454,7.3488,7.3454,7.3015,7.2022,6.8842,6.5787,6.2878,5.9902,5.909,5.9505,5.8127,5.8998,6.1028,6.1748,6.1569,6.1028,6.0917,5.7983,5.4203,5.2604,5.2063,0.0,0.0,5.5911,5.7374,6.1139,6.3304,6.5053,6.7218,6.8335,6.9113,6.9868,6.8842,6.6914,0.0,6.2685,6.0747,5.6418,0.0,5.3068,5.4697,5.7128,6.0375,6.4866,6.8864,7.2224,7.4581,7.4903,7.5601,7.7171,7.5821,7.4544,7.3751,7.0697,6.779,6.5331,6.2101,5.8342,5.4115,4.9987,0.0,0.0,0.0,0.0,0.0,0.0,0.0,0.0,0.0,0.0,0.0,0.0,0.0,0.0,0.0,0.0,0.0,0.0,0.0,0.0,0.0,0.0,0.0,0.0,0.0,0.0,0.0,0.0,5.4279,5.5581,0.0,5.5928,5.608,5.6756,5.8051,5.9733,6.1279,6.254,6.3294,6.4387,6.5899,6.6948,6.7996,6.8977,6.9981,7.0906,7.1616,7.236,7.3105,7.3837,7.4559,7.4909,7.4909,7.4909,7.4492,7.3736,7.2653,6.988,6.6136,6.4106,6.2888,6.2269,6.2245,6.2448,6.2811,6.3565,6.3632,6.3362,6.2878,6.0655,5.8051,5.7476,5.6325,5.5572,5.7331,5.8346,5.9674,6.2956,6.5256,6.7184,6.8954,6.9958,7.0319,6.962,6.9045,6.7929,6.5392,6.5087,6.415,6.0688,5.8689,5.7907,5.8958,6.0098,6.2265,6.6315,6.9909,7.2819,7.4683,7.5351,7.6122,7.7215,7.5821,7.4544,7.3751,7.0697,6.8274,6.688,6.4243,6.0775,5.6467,5.2717,4.8578,0.0,0.0,0.0,0.0,0.0,0.0,0.0,0.0,0.0,0.0,0.0,0.0,0.0,0.0,0.0,0.0,0.0,0.0,0.0,0.0,0.0,0.0,0.0,0.0,0.0,0.0,5.5141,5.6701,5.8467,5.9457,5.9212,5.9607,6.0415,6.1672,6.3155,6.4476,6.5538,6.5891,6.6609,6.7861,6.8402,6.918,7.0172,7.0928,7.1672,7.2394,7.315,7.3883,7.4615,7.5371,7.5709,7.5709,7.5709,7.5439,7.4953,7.4717,7.2856,7.0026,6.8538,6.7049,6.5753,6.573,6.5246,6.4671,6.4884,6.4952,6.4884,6.441,6.3226,6.1941,6.1704,6.0588,5.9708,6.0926,6.1603,6.255,6.5053,6.7015,6.8639,6.9902,7.077,7.0894,6.9417,6.8504,6.75,6.5977,6.6305,6.5956,6.3226,6.1704,6.1144,6.1965,6.2574,6.4135,6.7456,7.0827,7.3413,7.4757,7.5608,7.6306,7.6848,7.5425,7.403,7.2973,6.9633,6.732,6.6526,6.4133,6.1178,5.7583,5.3134,4.8419,4.3426,0.0,0.0,0.0,0.0,0.0,0.0,0.0,0.0,0.0,0.0,0.0,0.0,0.0,0.0,0.0,0.0,0.0,0.0,0.0,0.0,0.0,0.0,0.0,4.9701,5.3853,5.7237,5.9016,6.1403,6.2619,6.1906,6.1896,6.2809,6.4948,6.5115,6.5869,6.7529,6.708,6.714,6.7827,6.7861,6.8605,7.0139,7.0939,7.1706,7.2428,7.3184,7.3916,7.4649,7.5371,7.5709,7.5709,7.5709,7.5709,7.5642,7.492,7.4649,7.448,7.3003,7.1515,7.0037,6.8548,6.7512,6.6768,6.6045,6.5808,6.5808,6.5808,6.5774,6.5605,6.485,6.458,6.4681,6.5402,6.5605,6.5943,6.7421,6.8436,6.9248,7.0003,7.077,7.0894,6.9417,6.733,6.574,6.574,6.6305,6.6081,6.3961,6.299,6.2809,6.3592,6.4593,0.0,6.8395,7.1613,7.4001,7.483,7.5645,7.613,7.6093,7.4595,7.2973,7.1344,6.7417,6.4818,6.4066,6.163,5.9353,5.7363,5.1106,4.5717,4.1348,0.0,0.0,0.0,0.0,0.0,0.0,0.0,0.0,0.0,0.0,0.0,0.0,0.0,0.0,0.0,0.0,0.0,0.0,0.0,0.0,0.0,4.6848,4.9113,5.0496,5.3932,5.7249,5.9692,6.2711,6.4773,6.5149,6.6112,6.6942,6.7552,6.8106,6.8322,6.8127,6.7288,6.6903,6.7106,6.7106,6.785,6.9383,7.121,7.2462,7.3218,7.395,7.4695,7.5405,7.5608,7.5709,7.5709,7.5709,7.5709,7.5676,7.5473,7.5405,7.5236,7.3781,7.2293,7.0962,7.0522,6.9542,6.8436,6.8233,6.8166,6.8166,6.8166,6.7421,6.6373,6.5639,6.4285,6.3033,6.3236,6.3304,6.3778,6.5774,6.7263,6.8571,6.9902,7.077,7.0894,6.9417,6.7726,6.6497,6.6497,6.6237,6.5808,6.5199,6.5358,6.5678,6.5948,6.5943,0.0,6.9968,7.2305,7.4228,7.5616,7.6489,7.6746,7.6166,7.4074,7.1901,6.9699,6.4634,6.1924,6.2261,5.9391,5.7103,5.561,5.1812,4.8125,0.0,0.0,0.0,0.0,0.0,0.0,0.0,0.0,0.0,0.0,0.0,0.0,0.0,0.0,0.0,0.0,0.0,0.0,0.0,0.0,0.0,0.0,4.9158,5.1466,5.2734,5.5537,5.8232,6.0343,6.3309,6.5374,6.5822,6.6872,6.7674,6.811,6.8636,6.8703,6.8159,6.7292,6.6802,6.6802,6.6802,6.7546,6.9079,7.0996,7.2462,7.35,7.3916,7.4695,7.5709,7.5709,7.5709,7.5709,7.5709,7.5709,7.5709,7.5709,7.5709,0.0,0.0,0.0,0.0,0.0,7.0353,6.9147,6.9451,6.9553,6.9553,6.9553,6.8741,6.7512,6.6112,6.415,6.2255,6.1612,6.1003,6.1037,6.327,6.5189,6.6981,6.8808,7.0297,7.0894,6.9417,6.7658,6.644,6.6734,6.6203,0.0,6.6102,6.6271,6.647,6.6843,6.6503,6.7249,7.0112,7.2079,7.3817,7.5425,7.6306,7.6481,7.5682,7.37,0.0,0.0,0.0,6.1,6.0131,5.8414,0.0,0.0,0.0,0.0,0.0,0.0,0.0,0.0,4.3521,4.4605,0.0,0.0,0.0,0.0,0.0,0.0,0.0,0.0,0.0,0.0,0.0,0.0,0.0,0.0,0.0,0.0,5.1478,5.3733,5.5757,5.8038,5.9862,6.0847,6.3292,6.4936,6.4932,6.5631,6.6464,6.7431,6.7748,6.7892,6.7853,0.0,0.0,0.0,0.0,6.7546,6.9079,7.0658,7.2124,7.3488,7.359,7.4368,7.5709,7.5709,7.5709,7.5709,7.5709,7.5709,7.5709,7.5709,7.5709,7.5676,7.5608,7.5168,7.4345,7.2315,7.0725,6.9688,7.0342,0.0,0.0,7.0477,6.9891,6.8808,6.6518,6.4218,6.2086,6.052,5.9109,5.8567,6.0825,6.3057,6.529,6.7523,6.9711,7.0928,6.9519,6.7557,6.6282,6.6937,6.6542,6.6282,6.6867,6.6393,6.613,6.6696,6.6424,6.6992,6.9249,7.1124,7.2855,7.447,0.0,0.0,7.4837,7.3296,7.1027,6.7884,6.453,6.1257,5.8143,5.8341,5.7863,5.6432,5.587,5.4553,5.2464,5.2566,5.2618,5.2502,4.8642,4.8696,0.0,0.0,0.0,0.0,0.0,0.0,0.0,0.0,0.0,0.0,0.0,0.0,0.0,0.0,0.0,5.1,5.3523,5.585,5.7913,5.9987,6.114,6.0738,6.2932,6.4526,6.4577,6.5694,6.6695,6.7356,6.7829,6.7903,6.7577,6.7074,6.6802,6.6802,6.6802,6.7546,6.9079,7.1142,7.2631,7.35,7.4086,0.0,7.5709,7.5709,7.5709,7.5709,7.5709,7.5709,7.5709,7.5709,7.5709,7.5642,7.5067,7.4717,7.448,7.3443,7.2879,7.2676,7.2812,7.2845,7.2744,7.2169,7.1075,6.9563,6.7286,6.4613,0.0,6.052,5.9471,5.9293,6.1612,6.3845,6.6079,6.8335,7.0117,7.1064,7.0172,6.918,6.847,6.8639,6.8538,6.8365,6.8048,6.7718,6.7139,6.616,6.6064,6.6543,6.7724,6.9449,7.1174,7.2782,7.425,7.4801,7.4008,7.2452,7.0433,6.7847,6.4023,6.0676,5.8112,5.8881,5.9195,5.8813,5.8225,5.7692,5.7192,5.785,5.8335,5.8597,5.4227,5.3234,0.0,0.0,0.0,0.0,0.0,0.0,0.0,0.0,0.0,0.0,0.0,4.5357,4.7721,0.0,4.9912,5.2557,5.4708,5.6757,5.8801,6.0962,6.2201,6.1937,6.348,6.4554,6.4591,6.5502,6.6338,6.6953,6.7427,6.77,6.7694,6.7591,6.7616,6.7735,6.8236,6.8876,6.962,7.1481,7.2778,7.3488,7.3883,7.4627,7.5709,7.5709,7.5709,7.5709,7.5709,7.5709,7.5709,7.5709,7.5709,7.5676,7.5303,7.5168,7.51,7.4728,7.4605,7.4605,7.4605,7.4605,7.4436,7.3319,7.2203,7.0804,6.8155,6.528,6.2719,6.1569,6.0172,5.953,6.1815,6.4048,6.618,6.8064,6.9914,7.1199,7.0838,7.0466,7.0184,7.0184,7.0184,6.9923,6.9008,6.862,6.7902,6.6358,6.5891,6.6292,6.7929,6.9282,7.1027,7.3443,7.4434,7.4911,7.4882,7.2312,6.9853,6.7847,6.4653,6.2114,6.045,6.1092,6.1135,6.0322,6.0482,6.0364,5.9888,6.0104,6.0671,6.1493,5.914,5.8465,0.0,0.0,0.0,0.0,0.0,0.0,0.0,0.0,4.2938,4.4903,4.6781,4.8566,5.0186,5.0724,5.1717,5.4005,5.5841,5.7657,5.9516,6.1761,6.3231,6.3308,6.404,6.4511,6.4515,6.5151,6.5781,6.6374,6.689,6.7374,6.7932,6.8331,6.8718,6.9043,7.0085,7.0578,7.0409,7.1718,7.271,7.3285,7.3285,7.3996,7.527,7.527,7.5337,7.5506,7.5642,7.5709,7.5709,7.5709,7.5709,7.5709,7.5709,7.5709,7.5709,7.5709,7.5709,7.5709,7.5709,7.5709,7.5473,7.3962,7.2913,7.165,6.8774,6.6034,6.3758,6.3024,6.1501,6.0578,6.2685,6.4691,6.6485,6.7996,6.9846,7.13,7.13,7.13,7.13,7.13,7.13,7.0916,6.9662,6.9255,6.8468,6.6719,6.6,6.638,6.8432,6.953,7.1211,7.414,7.472,7.5168,7.5799,7.2606,6.9896,6.8288,6.6042,6.4427,6.3563,6.3633,6.3128,6.1975,6.2607,6.2608,6.1864,6.178,6.2233,6.3125,6.3274,6.3141,3.8523,3.8468,3.973,4.1038,4.2469,4.3778,0.0,0.0,4.7037,4.8895,5.083,5.2297,5.2513,5.3533,5.4643,5.5523,5.7602,5.9547,6.0984,6.3173,6.4426,6.3793,6.3834,6.3878,6.3909,6.457,6.5232,6.5754,6.6298,6.7047,6.8097,6.9034,6.9773,7.0292,7.1513,7.1853,7.1199,7.1988,7.2428,7.2529,7.2529,7.2935,7.3759,7.3759,7.4086,7.475,7.5405,7.5709,7.5709,7.5709,7.5709,7.5709,7.5709,7.5709,7.5709,7.5709,7.5709,7.5709,7.5709,7.5709,7.5473,7.3962,7.2563,7.0996,6.8605,6.6745,6.53,6.4546,6.4174,6.4343,6.5889,6.6981,6.8041,6.9597,7.0635,7.13,7.13,7.13,7.13,7.13,7.13,7.096,6.9866,6.9501,6.8713,6.6843,6.6806,6.7248,6.7921,6.9222,7.077,7.2562,7.4067,7.4948,7.5021,7.3296,7.1541,6.9933,6.8251,6.6923,6.6109,6.5178,6.4741,6.4918,6.4481,6.4185,6.3974,6.5005,6.5193,6.4699,6.6038,6.5824,4.0894,4.1128,4.2482,0.0,4.5697,4.7315,4.7832,4.9137,5.0706,5.2257,5.3911,5.5187,5.5562,5.5773,5.6365,0.0,5.9331,6.0959,6.2668,6.4719,6.5489,6.3968,6.3106,6.2781,6.3181,6.3489,6.4004,6.4808,6.5585,6.6457,6.7439,6.8688,6.9722,7.0499,7.2254,7.2924,7.2367,7.2799,7.3048,7.3048,7.3048,7.3421,7.4153,7.4559,7.4931,7.527,7.5574,7.5709,7.5709,7.5709,7.5709,7.5709,7.5709,7.5709,7.5709,7.5709,7.5709,7.5709,7.5709,7.5709,7.5473,7.3962,7.2812,7.1616,6.98,6.8176,6.7015,6.7184,6.7218,6.7455,6.8504,6.9316,7.0049,7.0703,7.1064,7.13,7.13,7.13,7.13,7.13,7.13,7.1107,7.0443,7.0077,6.9548,6.8607,6.8249,6.8448,6.9378,7.0646,7.2275,7.436,7.5601,7.6114,7.5645,7.4111,7.2716,7.1578,7.0007,6.8538,6.7253,6.6982,6.6675,6.6156,6.5991,6.5826,6.5704,6.5854,6.5798,6.5538,6.6072,6.6162,4.3158,4.3827,0.0,4.6787,4.8794,5.0486,5.1012,5.2268,5.3633,5.4727,5.5807,5.6714,5.7144,5.7002,5.7467,5.9402,6.092,6.2456,6.428,6.6241,6.669,6.4614,6.3027,6.2135,6.2227,6.2258,6.269,6.3799,6.4882,6.5808,6.658,6.7976,6.9154,7.0112,7.236,7.3389,7.2974,7.3517,7.3691,7.3488,7.3488,7.3793,7.4322,7.5067,7.5405,7.5405,7.5608,7.5709,7.5709,7.5709,7.5709,7.5709,7.5709,7.5709,7.5697,7.552,7.5472,7.546,7.5376,7.5316,7.5053,7.3775,7.272,7.1723,7.0546,6.9164,6.8151,6.879,6.9193,6.953,7.0071,7.0737,7.13,7.13,7.13,7.13,7.13,7.13,7.13,7.13,7.13,7.1209,7.0853,7.0644,7.044,7.0157,6.9884,6.9934,7.0568,7.2131,7.3993,7.6195,7.6959,7.7069,7.6489,7.5175,7.4111,7.3523,7.1762,7.0227,6.9052,6.884,6.8306,6.7351,6.7239,6.7014,6.6673,6.6346,6.6102,6.5994,6.6064,6.6469,4.4823,0.0,4.7393,4.9846,5.1489,5.2965,5.4643,5.5235,5.5533,5.6034,5.6342,5.6448,5.6273,5.6925,5.8042,5.9796,6.2233,6.4384,6.5752,6.7602,6.8103,6.6088,6.4012,6.2258,0.0,6.0855,6.1409,6.2764,6.4132,6.5146,6.5714,6.6874,6.8078,6.9192,7.1649,7.2873,7.2725,7.3962,7.4221,7.3488,7.3488,7.3522,7.3556,7.4289,7.4649,7.4683,7.5405,7.5709,7.5709,7.5709,7.5709,7.5709,7.5709,7.5709,7.565,7.5122,7.4926,7.4889,7.4618,7.4369,7.4023,7.3256,7.203,7.0753,7.0248,6.926,6.835,6.8628,6.941,7.0172,7.0206,7.0737,7.13,7.13,7.13,7.13,7.13,7.13,7.13,7.13,7.13,7.1209,7.0853,7.1115,7.1277,7.0989,7.151,7.1622,7.0879,7.3134,7.5454,7.7098,7.7289,7.7281,7.7281,7.6489,7.6019,7.5983,7.3744,7.2422,7.2342,7.0573,6.9361,6.8929,6.829,6.7529,6.6594,6.6979,6.6745,6.6038,6.6796,6.7395,4.568,4.7601,4.9153,5.1315,5.3723,5.573,5.6342,5.7206,5.7695,5.6941,5.6324,5.6038,5.6383,5.708,5.8478,6.1244,6.4099,6.6466,6.7787,6.9473,6.9638,6.7203,6.5459,0.0,0.0,0.0,0.0,6.1379,6.315,6.4655,6.57,6.7805,6.9498,7.0604,7.2623,7.387,7.4211,7.4468,7.448,7.4221,7.4221,7.4492,7.4977,7.5236,7.5337,7.5337,7.5574,7.5709,7.5709,7.5709,7.5709,7.5709,7.5709,7.5709,7.5592,7.4889,7.426,7.378,7.3678,7.3323,7.277,7.2039,7.1133,7.0205,6.946,6.8529,6.7698,6.768,6.8581,6.9451,6.9451,7.0387,7.13,7.13,7.13,7.13,7.13,7.13,7.13,7.13,7.13,7.1344,7.1557,7.1933,7.225,7.2443,7.2198,7.2376,7.3405,7.433,7.5527,7.7134,7.7281,7.7281,7.7281,7.6562,7.6093,7.6093,7.4331,7.3046,7.2525,7.107,7.0247,7.0185,6.9527,6.9235,6.931,6.9144,6.8511,6.7554,6.8178,6.8274,4.7744,4.9969,5.175,5.3663,5.582,5.7513,5.7752,5.8291,5.8308,5.6735,5.5225,5.4423,5.524,5.5634,5.7153,6.132,6.4599,6.7241,6.894,7.0874,7.1167,6.8605,6.7185,6.5075,0.0,0.0,0.0,6.0037,6.195,6.3759,6.5321,6.8115,7.0213,7.1362,7.3116,7.4369,7.4947,7.4974,7.4987,7.4987,7.4987,7.5236,7.5709,7.5709,7.5709,7.5709,7.5709,7.5709,7.5709,7.5709,7.5709,7.5709,7.5709,7.5709,7.5602,7.468,7.3741,7.2881,7.2789,7.2312,7.1664,7.1309,7.0778,7.0156,6.9617,6.8881,6.8187,6.8048,6.8717,6.9485,6.9485,7.0398,7.13,7.13,7.13,7.13,7.13,7.13,7.1323,7.1379,7.1401,7.1601,7.2256,7.2729,7.3189,7.3585,7.3176,7.3363,7.4719,7.5168,7.5821,7.7171,7.7281,7.7281,7.7281,7.6812,7.6526,7.6526,7.5285,7.4338,7.3817,7.2497,7.183,7.1869,7.1214,7.1014,7.127,7.0694,6.9962,6.9095,6.9172,6.9019,5.0864,5.314,5.5077,5.674,5.7679,5.8367,5.8906,5.8517,5.747,5.5448,5.308,5.1713,0.0,0.0,5.4253,5.9964,6.3714,6.6742,6.9117,7.169,7.2506,0.0,0.0,0.0,0.0,0.0,0.0,5.899,6.0763,6.2734,6.4737,6.7918,7.0267,7.1466,7.3142,7.4315,7.4914,7.5424,7.5709,7.5709,7.5709,7.5709,7.5709,7.5709,7.5709,7.5709,7.5709,7.5709,7.5709,7.5709,7.5709,7.5709,7.5697,7.5686,7.5508,7.4469,7.3297,7.224,7.1996,7.1347,7.067,7.1023,7.0863,7.0522,7.0688,7.0293,6.9779,6.9563,6.9895,7.0308,7.0274,7.0804,7.1368,7.13,7.13,7.13,7.13,7.13,7.1368,7.1556,7.1655,7.1994,7.2929,7.3572,7.4052,7.4412,7.4452,7.4576,7.4903,7.5608,7.6416,7.7215,7.7281,7.7281,7.7281,7.7281,7.7281,7.7281,7.6555,7.6078,7.6063,7.4658,7.3856,7.3761,7.3129,7.2624,7.2309,7.1578,7.0977,7.0467,6.9811,6.976,5.2844,5.5423,5.7309,5.7723,5.8726,5.9368,5.8547,5.7829,5.6526,5.3563,5.0539,4.8644,0.0,0.0,0.0,5.7167,6.1903,0.0,6.8377,7.1022,0.0,7.1155,0.0,6.8409,6.5524,6.2857,0.0,0.0,6.1981,6.3711,6.6426,6.9391,7.1571,7.2789,7.401,7.4852,7.517,7.5542,7.5709,7.5709,7.5709,7.5709,7.5709,7.5709,7.5709,7.5709,7.5709,7.5709,7.5709,7.5709,7.5709,7.5697,7.5494,7.5267,7.4975,7.3902,7.2756,7.1625,7.0959,7.0115,6.9458,6.999,7.0357,7.0635,7.1041,7.1216,7.1238,7.1066,7.1409,7.1718,7.1165,7.1582,7.1988,7.1436,7.13,7.13,7.13,7.13,7.1368,7.1556,7.2238,7.3164,7.4373,7.4322,7.4397,7.5184,7.5298,7.5432,7.5754,7.5983,7.6416,7.7215,7.7281,7.7281,7.7281,7.7281,7.7281,7.7281,7.6448,7.5885,7.5732,7.4259,7.3427,7.3439,7.2868,7.2497,7.2309,7.1942,7.1339,7.0501,7.0722,7.0578,5.4504,5.6646,5.8175,5.8457,5.9099,5.9308,5.7979,5.6692,5.491,5.16,4.8297,0.0,4.7249,4.7668,4.9804,0.0,0.0,0.0,6.6643,6.9097,7.0484,0.0,6.9679,0.0,6.6545,6.4958,6.392,0.0,6.3089,6.4146,6.7243,7.0229,7.2419,7.3608,7.4692,7.5316,7.5482,7.5638,7.5709,7.5709,7.5709,7.5709,7.5709,7.5709,7.5709,7.5709,7.5709,7.5709,7.5709,7.5709,7.5709,7.5674,7.5301,7.4877,7.4385,7.3304,7.2138,7.1021,7.0314,6.9559,6.9021,6.9775,7.0452,7.1068,7.155,7.2155,7.2607,7.2337,7.2568,7.2812,7.236,7.2563,7.2766,7.236,7.2259,7.2259,7.2259,7.2259,7.2463,7.3061,7.3702,7.4489,7.558,7.5334,7.515,7.5535,7.5619,7.5599,7.5571,7.6195,7.6812,7.7244,7.7281,7.7281,7.7281,7.7281,7.7281,7.7281,7.6661,7.6169,7.5891,7.4721,7.4091,7.4059,7.3592,7.3265,7.3128,7.27,7.2083,7.1332,7.1639,7.1548,5.5991,5.7393,5.8487,5.8979,5.9159,5.88,5.7214,5.5269,5.2845,4.9456,0.0,4.4117,4.5613,4.645,4.8895,5.4965,0.0,6.2838,6.45,6.6568,6.7861,6.7749,6.8196,6.8122,6.7062,6.7133,6.6957,6.6294,6.46,6.4851,6.7746,7.0634,7.2809,7.4168,7.5134,7.5674,7.5709,7.5709,7.5709,7.5709,7.5709,7.5709,7.5709,7.5709,7.5709,7.5709,7.5709,7.5709,7.5709,7.5709,7.5709,7.5628,7.5073,7.446,7.3772,7.2697,7.1543,7.042,6.993,6.9385,6.9065,7.0033,7.0931,7.17,7.2267,7.3194,7.3963,7.3551,7.3606,7.3759,7.3657,7.3657,7.3624,7.3522,7.3488,7.3488,7.3488,7.3546,7.3935,7.5078,7.5468,7.5832,7.6597,7.6434,7.6063,7.564,7.5611,7.5445,7.4969,7.6114,7.7032,7.7142,7.7142,7.7179,7.7281,7.7281,7.7281,7.7281,7.6953,7.659,7.6144,7.5424,7.4948,7.4773,7.4387,7.4096,7.391,7.3227,7.2744,7.2394,7.2394,7.2462,5.7543,5.874,5.9638,5.9219,5.9518,5.9142,5.6209,5.3551,0.0,0.0,4.294,4.0976,4.3389,4.4356,4.6969,5.3503,5.7925,6.1218,6.3168,6.4215,6.5188,0.0,6.6192,6.6416,6.7231,6.8318,0.0,0.0,6.7898,6.8195,6.8994,7.0695,7.2585,7.4704,7.5146,7.5482,7.5709,7.5709,7.5709,7.5709,7.5709,7.5709,7.5709,7.5709,7.5709,7.5709,7.5709,0.0,7.5709,7.5709,7.5709,7.5638,7.4852,7.4059,7.3207,7.213,7.0955,6.9901,6.9573,6.9211,6.9094,7.0229,7.131,7.2367,7.3436,7.4516,7.5353,7.5254,7.5268,7.5168,7.4559,7.4412,7.4255,7.3624,7.3488,7.3488,7.3488,7.381,7.4438,7.5707,7.6297,7.6716,7.7259,7.7276,7.6858,7.5774,7.5611,7.5445,7.4969,7.5124,7.5572,7.624,7.6306,7.6599,7.7244,7.7281,7.7281,7.7281,7.6878,7.6351,7.5731,7.5009,7.4296,7.362,7.3189,7.2774,7.2361,7.2038,7.2066,7.2394,7.2394,7.2732,5.8427,5.9608,6.0446,5.9787,5.9338,5.8201,5.4922,0.0,0.0,0.0,4.1184,3.9589,4.1883,4.3409,0.0,5.1726,5.6243,5.9398,6.0356,6.1343,6.248,6.3827,6.4569,6.5618,0.0,6.9595,7.0541,6.9533,6.9435,6.9457,6.9549,7.1096,7.2736,7.4398,7.4865,7.5279,7.5709,7.5709,7.5709,7.5709,7.5709,7.5709,7.5709,7.5709,7.5709,7.5709,7.5709,7.5709,7.5709,7.5709,7.5709,7.5626,7.4655,7.3665,7.2598,7.152,7.0356,6.9327,6.9182,6.9036,6.905,6.993,7.0997,7.2041,7.2845,7.3865,7.4652,7.4424,7.4465,7.4559,7.4581,7.4615,7.4615,7.4627,7.4627,7.4627,7.4627,7.5023,7.5773,7.7062,7.7384,7.7708,7.8609,7.8412,7.7809,7.6898,7.6393,7.5899,7.5348,7.5269,7.5484,7.6034,7.6093,7.6416,7.7244,7.7281,7.7281,7.7281,7.6773,7.6044,7.5174,7.4784,7.4161,7.3201,7.3378,7.3312,7.2992,7.2846,7.287,7.2981,7.3375,7.3747,5.9518,6.0625,6.1313,6.034,5.8979,5.6961,5.3396,4.9415,0.0,4.2391,3.9637,3.8401,4.0385,4.2252,4.4995,0.0,5.4,5.6991,5.741,5.8381,5.9711,0.0,6.3173,0.0,6.72,7.0626,0.0,7.0617,7.0415,7.0239,7.0007,7.1548,7.2894,7.3988,7.463,7.5158,7.5709,7.5709,7.5709,7.5709,7.5709,7.5686,7.5626,7.5686,7.5686,7.5626,7.5686,7.5709,7.5709,7.565,7.559,7.5412,7.4356,7.3194,7.2012,7.1001,6.9904,6.8904,6.8904,6.8904,6.9006,6.9586,7.048,7.1433,7.2033,7.2873,7.3575,7.3318,7.3469,7.386,7.4446,7.4717,7.4987,7.5574,7.5709,7.5709,7.5709,7.6111,7.6942,7.8367,7.8584,7.8882,8.0208,7.9752,7.8935,7.8163,7.736,7.6627,7.5951,7.5858,7.6005,7.6461,7.65,7.6822,7.7649,7.7723,7.7707,7.7668,7.6992,7.6131,7.5094,7.4903,7.4343,7.334,7.3865,7.406,7.3912,7.3832,7.3706,7.3522,7.4255,7.4615,6.1463,6.2375,6.2465,6.0579,5.8634,5.6017,5.1588,0.0,4.2911,4.0229,3.7575,3.6357,3.8311,3.9837,0.0,0.0,0.0,5.3384,5.5209,5.5581,5.6808,5.9921,0.0,0.0,6.6791,7.1112,7.2964,7.1005,7.1395,7.1395,7.0662,7.1816,7.2972,7.4067,7.4676,7.5204,7.5709,7.5709,7.5709,7.5709,7.5709,7.5578,7.5349,7.5602,7.5578,7.5361,7.5602,7.5709,0.0,7.5446,7.5182,7.4877,7.3787,7.2637,7.1475,7.0624,6.9732,6.8904,6.8904,6.8904,6.9006,6.9586,7.0212,7.0906,7.206,7.2676,7.3106,7.3596,7.4101,7.4514,7.4581,7.51,7.5608,7.5676,7.5709,7.5709,7.5709,7.6111,7.7079,7.9089,7.9803,8.0503,8.1852,8.1418,8.0412,7.9017,7.8188,7.7455,7.6781,7.6688,7.6968,7.7737,7.7819,7.8139,7.897,7.9042,7.8931,7.8764,7.8026,7.7169,7.6295,7.553,7.4818,7.4126,7.398,7.3901,7.3912,7.3661,7.3511,7.3522,7.4255,7.4615,5.9648,6.1247,6.1969,5.9786,5.7296,5.4315,5.0351,4.5369,4.1046,3.917,3.7037,3.6088,3.8042,3.917,4.1165,4.5394,0.0,0.0,5.2623,5.3832,5.5388,5.7496,5.9502,0.0,0.0,0.0,7.1543,7.1567,7.2342,7.2694,7.2468,7.3284,7.4062,7.4675,7.5297,7.5616,7.5709,7.5709,7.5709,7.5709,7.5542,7.541,7.5301,7.5277,7.5277,7.5313,7.5422,7.5836,0.0,7.5925,7.5727,7.5522,7.3993,7.2648,7.1439,7.0386,6.9545,6.8904,6.8904,6.8904,6.9006,6.9586,6.9858,7.0165,7.1437,7.2029,7.2435,7.2959,7.3215,7.3465,7.4378,7.5168,7.5709,7.5709,7.5709,7.5845,7.6318,7.6826,7.7766,7.9861,8.0675,8.1464,8.2782,8.2767,8.217,8.1118,8.0284,7.9503,7.8774,7.8673,7.8791,7.9126,7.8439,7.8535,7.9803,7.9701,7.9606,7.9684,7.8917,7.8029,7.6974,7.6408,7.5571,7.4477,7.4373,7.4101,7.3672,7.3534,7.3488,7.3522,7.4255,7.4852,5.7924,6.0128,6.1201,5.8857,5.5911,5.2636,4.8983,4.3834,3.9469,3.8341,3.6716,3.5968,3.7563,3.8362,3.9909,4.3299,4.6271,4.8592,4.9871,5.1618,5.3396,5.5114,0.0,5.877,6.1627,6.6371,7.0052,7.2013,7.3113,7.3915,7.4462,7.5283,7.5646,7.5382,7.5882,7.6004,7.5709,7.5709,7.5709,7.5709,7.5434,7.5277,7.5204,7.5067,7.5042,7.5082,7.5167,7.5567,0.0,7.5556,7.5229,7.4918,7.3377,7.209,7.0971,7.0032,6.9356,6.8919,6.9006,6.9109,6.9298,6.9973,7.0119,7.0262,7.1401,7.1814,7.1992,7.2536,7.2878,7.3341,7.4581,7.5303,7.5709,7.5709,7.5879,7.6217,7.6792,7.7438,7.8557,8.0655,8.1476,8.2354,8.3938,8.3999,8.3564,8.2776,8.197,8.1165,8.0359,8.025,8.025,8.025,7.9679,7.9724,8.0861,8.0567,8.0423,8.0663,7.9873,7.8945,7.7842,7.7182,7.6355,7.5303,7.5055,7.4661,7.4165,7.4165,7.403,7.3849,7.4593,7.5337,5.7225,5.9639,6.0429,5.7933,5.47,5.1109,4.7287,4.2278,3.8221,3.7545,3.6379,3.5699,3.6395,3.7015,3.8093,4.0127,4.2083,4.4286,4.6969,4.8498,5.0336,0.0,0.0,5.5525,5.8816,6.4223,6.8925,7.2223,7.3676,7.5024,7.649,7.7777,7.77,7.6036,7.6313,7.6233,7.5709,7.5709,7.5709,7.5709,7.5434,7.5192,7.5005,7.4993,7.4845,7.4631,7.4882,7.4833,0.0,7.3948,7.322,7.2358,7.1479,7.0578,6.9789,6.9501,6.9182,6.8948,6.9269,6.9559,6.993,7.0816,7.1176,7.1434,7.2319,7.2221,7.1946,7.2524,7.363,7.475,7.5506,7.5676,7.5709,7.5709,7.6318,7.6893,7.6893,7.7846,7.9313,8.1482,8.2308,8.336,8.5528,8.523,8.4397,8.36,8.2813,8.2007,8.1192,8.1083,8.1083,8.1083,8.1789,8.2269,8.2269,8.1848,8.1633,8.1759,8.089,7.9974,7.9025,7.7846,7.709,7.6893,7.6082,7.5676,7.5676,7.5676,7.5303,7.4615,7.5337,7.6115,5.1866,5.4623,5.6123,5.3794,5.1372,4.8803,4.5837,4.1655,3.8341,3.8131,3.7084,3.6515,3.7593,3.7584,3.8054,4.0068,4.1693,4.3459,0.0,0.0,0.0,5.2318,5.5508,5.9104,0.0,0.0,6.92,7.2535,7.4161,7.551,7.6597,7.7842,7.8369,7.813,7.7715,7.7192,7.6521,7.598,7.5709,7.5709,7.5277,7.5067,7.4981,7.4622,7.4498,7.456,7.4239,7.4204,7.4292,7.3351,7.2701,7.2214,7.1077,7.0579,7.0434,6.9434,6.9269,6.9594,6.9656,6.9987,7.0533,7.1638,7.1844,7.177,7.2446,7.2189,7.1878,7.2969,7.4273,7.5405,7.5642,7.5709,7.5709,7.5709,7.6318,7.7029,7.7548,7.8652,8.0055,8.1884,8.2796,8.3709,8.5182,8.5314,8.4853,8.3691,8.3274,8.2622,8.1264,8.0967,8.0831,8.0702,8.0789,8.1494,8.2993,8.2951,8.2771,8.2629,8.1799,8.0842,7.9862,7.8952,7.8219,7.765,7.6906,7.6251,7.5709,7.5709,7.5845,7.6183,7.6939,7.7671,4.7013,4.9592,5.1056,4.9603,4.8011,4.6293,4.428,4.0993,3.8401,3.8401,3.7383,3.6874,3.817,3.7853,3.7964,3.9729,4.0726,4.2112,0.0,0.0,0.0,5.3366,0.0,0.0,0.0,6.6551,6.9276,7.2784,7.4325,7.5681,7.6967,7.7951,7.8709,7.9192,7.8488,7.7713,7.6993,7.6185,7.5814,7.5814,7.5176,7.4845,7.4821,7.4398,7.4284,7.441,7.3955,7.369,0.0,7.2599,7.1886,7.1294,7.066,7.0464,7.0459,6.9874,6.9751,6.9993,7.0588,7.1022,7.16,7.3097,7.3372,7.3105,7.3014,7.2673,7.253,7.362,7.4774,7.5709,7.5709,7.5709,7.5709,7.5709,7.6533,7.7447,7.7887,7.9145,8.0547,8.1863,8.2622,8.3454,8.4697,8.5077,8.4847,8.369,8.3492,8.2912,8.1301,8.0849,8.0582,8.0275,8.0239,8.084,8.2337,8.2536,8.2616,8.2776,8.2002,8.1143,8.0247,7.9486,7.8877,7.8416,7.7684,7.7075,7.6567,7.6567,7.6838,7.7333,7.8077,7.8653,0.0,4.4866,4.5831,4.5616,4.4853,4.3844,4.2647,4.036,0.0,3.8461,3.7443,3.6964,3.8251,3.7883,3.7836,3.9242,3.9511,4.0677,0.0,4.698,0.0,0.0,5.8873,0.0,6.3197,6.5996,6.9245,7.2999,7.4262,7.565,7.7513,7.8188,7.877,7.931,7.8621,7.7897,7.7187,7.645,7.6061,7.5994,7.5097,7.4652,7.4606,7.431,7.4196,7.4184,7.3879,7.324,7.2377,7.1798,7.0907,6.9914,7.0263,7.0249,7.012,7.0705,7.0551,7.027,7.1896,7.2566,7.3031,7.492,7.5435,7.5116,7.388,7.3556,7.3793,7.4492,7.5258,7.5845,7.5845,7.5845,7.5845,7.5845,7.7007,7.809,7.809,7.9417,8.0799,8.1436,8.2002,8.2802,8.4075,8.4559,8.4466,8.3605,8.3481,8.2929,8.14,8.0836,8.0407,7.9932,8.0111,8.0414,8.0676,8.0999,8.1515,8.2302,8.1661,8.0936,8.0247,7.952,7.9181,7.9181,7.853,7.8157,7.8157,7.8157,7.8157,7.8157,7.8855,7.9181,3.917,0.0,4.4399,4.3482,4.3477,4.3261,0.0,4.0234,3.9152,0.0,0.0,0.0,0.0,0.0,0.0,3.9849,0.0,4.2073,4.5373,5.075,0.0,6.0922,6.2435,6.3857,6.5877,6.8106,7.0389,7.2742,7.4514,7.6096,7.7508,7.8188,7.8551,7.873,7.8531,7.8264,7.7936,7.722,7.6551,7.5994,7.5631,7.5139,7.4606,7.431,7.4196,7.4171,7.3641,7.3038,7.2325,7.1548,7.095,7.0554,7.0389,7.079,7.1459,7.1044,7.1182,7.1611,7.2429,7.3278,7.4226,7.5318,7.5631,7.5322,7.3939,7.43,7.5202,7.5405,7.642,7.7447,7.7447,7.7447,7.7447,7.7447,7.8179,7.8843,7.8843,7.9778,8.0721,8.108,8.1695,8.2429,8.3255,8.3812,8.3949,8.35,8.3427,8.3069,8.2057,8.1539,8.1104,8.0633,8.0317,8.0267,8.0593,8.1013,8.1408,8.1781,8.1349,8.0799,8.0234,8.004,7.9938,7.9938,7.9769,7.9667,7.9667,7.9667,7.9667,7.9701,7.987,7.9938,3.8073,4.0281,4.1839,4.1728,4.1908,4.1833,4.0918,0.0,0.0,0.0,0.0,0.0,0.0,0.0,0.0,0.0,4.1654,0.0,0.0,0.0,5.9951,6.3947,6.5278,6.6386,6.7777,6.9194,7.0909,7.303,7.4452,7.6058,7.7924,7.8323,7.8484,7.8484,7.8484,7.8445,7.8349,7.7283,7.6517,7.6117,7.5358,7.4796,7.4398,7.4259,7.4196,7.4171,7.3564,7.2893,7.2176,7.161,7.1077,7.0661,7.0957,7.1457,7.1998,7.189,7.1921,7.2182,7.335,7.4889,7.6377,7.667,7.677,7.6466,7.4977,7.5303,7.6251,7.6251,7.7109,7.8157,7.8834,7.9003,7.9003,7.9003,7.9566,8.0107,8.0107,8.0796,8.1478,8.1617,8.207,8.2611,8.33,8.3772,8.3955,8.3737,8.3716,8.3423,8.2633,8.2088,8.1631,8.1164,8.0721,8.0588,8.0897,8.1162,8.1318,8.1326,8.1007,8.0635,8.0234,8.0209,8.0209,8.0209,8.0209,8.0209,8.0209,8.0209,8.0209,8.0209,8.0209,8.0209,3.84,3.9276,3.9701,4.0742,4.091,4.0836,4.0836,0.0,0.0,0.0,0.0,0.0,0.0,0.0,0.0,0.0,0.0,0.0,5.476,5.9129,6.2735,6.5922,6.7493,6.8481,6.8944,6.9782,7.1199,7.3405,7.4368,7.5922,7.837,7.8484,7.8484,7.8484,7.8484,7.8484,7.8484,7.7139,7.6344,7.6125,7.4946,7.4296,7.4196,7.4196,7.4196,7.4171,7.3695,0.0,7.2194,7.2006,7.1427,7.0783,7.1643,7.2014,7.2167,7.2706,7.2644,7.2583,7.4594,7.6694,7.8445,7.8236,7.809,7.7751,7.6318,7.6352,7.6961,7.7299,7.7841,7.8665,8.0141,8.0547,8.0547,8.0547,8.1021,8.1473,8.1473,8.1968,8.2395,8.2395,8.2614,8.2989,8.3586,8.3916,8.4094,8.4087,8.4074,8.3818,8.3142,8.2685,8.2232,8.1816,8.1425,8.1288,8.1444,8.1473,8.1393,8.1232,8.1012,8.0787,8.056,8.0547,8.0547,8.0547,8.0547,8.0547,8.0547,8.0547,8.0547,8.0547,8.0547,8.0547,3.9121,4.0499,4.1185,4.1773,4.2375,4.2851,4.2851,0.0,0.0,0.0,0.0,0.0,0.0,4.0864,4.1633,0.0,0.0,5.394,0.0,0.0,6.4575,6.7343,6.887,6.9498,6.9064,7.0628,7.2044,7.2877,7.4556,7.6411,7.839,7.8484,7.8484,7.8484,7.8484,7.8484,7.8484,7.7669,7.6622,7.5443,7.5223,7.4793,7.4196,7.4196,7.4196,7.4204,7.4228,7.3819,7.3174,7.2969,7.2529,7.2008,7.1874,7.2059,7.244,7.2531,7.3041,7.402,7.6378,7.7772,7.8558,7.883,7.8517,7.7853,7.6961,7.6792,7.7299,7.916,7.9769,8.0209,8.1697,8.2056,8.2056,8.2056,8.2158,8.2238,8.2238,8.2327,8.2395,8.2395,8.2614,8.2909,8.325,8.3525,8.3741,8.391,8.3923,8.3889,8.375,8.3519,8.3281,8.295,8.2682,8.2424,8.2264,8.2238,8.223,8.2172,8.2147,8.2108,8.2056,8.2056,8.2056,8.2056,8.2056,8.2056,8.2056,8.2056,8.2056,8.2056,8.2056,8.2056,3.8794,4.0429,4.1704,4.2981,4.3578,4.4027,0.0,0.0,0.0,0.0,0.0,0.0,0.0,0.0,4.4646,4.9804,0.0,5.8411,6.1343,6.3977,6.634,6.8301,6.9409,6.9887,6.9572,7.0386,7.1599,7.315,7.4446,7.6148,7.837,7.8484,7.8484,7.8484,7.81,7.7702,7.7338,7.6974,7.6477,7.5827,7.5476,7.4925,7.4196,7.4044,7.3892,7.3699,7.3662,7.3213,7.2473,7.2626,7.2339,7.1814,7.1873,7.2146,7.2608,7.3509,7.4328,7.5298,7.7417,7.8382,7.8763,7.9015,7.8585,7.7853,7.713,7.6893,7.7367,7.9566,8.0479,8.1236,8.3105,8.3578,8.3578,8.3578,8.3578,8.3578,8.3578,8.3578,8.3578,8.3578,8.367,8.3801,8.3953,8.4048,8.4165,8.4259,8.4285,8.4285,8.4285,8.4203,8.4074,8.3958,8.3827,8.371,8.3592,8.3578,8.324,8.2462,8.2395,8.2395,8.2395,8.2395,8.2395,8.2395,8.2395,8.2395,8.2395,8.2395,8.2395,8.2395,8.2395,8.2395,3.8313,3.9882,4.1454,4.3529,0.0,0.0,0.0,0.0,0.0,0.0,0.0,0.0,0.0,4.5783,0.0,5.4653,5.8424,6.1477,6.4096,6.6041,6.7732,6.9064,6.9828,7.0157,7.0007,7.0265,7.1368,7.3548,7.4464,7.5986,7.837,7.8484,7.8418,7.8265,7.7702,7.704,7.6311,7.6477,7.6311,7.5794,7.5443,7.4925,7.4184,7.384,7.3546,7.3318,7.3035,7.2465,7.1743,7.2053,7.192,7.154,7.1864,7.2438,7.3302,7.5044,7.5904,7.6514,7.8402,7.9011,7.9046,7.928,7.8855,7.8145,7.7604,7.7435,7.7841,7.987,8.0999,8.2035,8.4086,8.4614,8.4614,8.4614,8.4614,8.4614,8.4614,8.4614,8.4614,8.4614,8.4614,8.4614,8.4614,8.4614,8.4614,8.4614,8.4614,8.4614,8.4614,8.4614,8.4614,8.4614,8.4614,8.4614,8.4614,8.4614,8.4106,8.3003,8.2902,8.2902,8.2902,8.2902,8.2902,8.2902,8.2902,8.2902,8.2902,8.2902,8.2902,8.2902,8.2902,8.2902,3.815,3.9217,4.0169,4.2731,0.0,0.0,0.0,0.0,0.0,0.0,0.0,0.0,0.0,5.139,5.4239,5.6585,5.9757,6.2869,6.5488,6.7044,6.8437,6.9768,7.047,7.062,7.0037,7.1141,7.2351,7.3611,7.4896,7.6476,7.8403,7.8484,7.8199,7.7504,7.7437,7.704,7.6311,7.6974,7.6324,7.4362,7.4991,7.4925,7.4184,7.3602,7.337,7.3374,7.2906,7.2345,7.1721,7.1869,7.1902,7.1871,7.1885,7.3092,7.5067,7.6995,7.7628,7.7836,7.969,7.9887,7.936,7.9951,7.9634,7.9012,7.8945,7.8945,7.9249,8.0796,8.1731,8.2665,8.4208,8.4614,8.4614,8.4614,8.4614,8.4614,8.4614,8.4614,8.4614,8.4614,8.4614,8.4614,8.4614,8.4614,8.4614,8.4614,8.4614,8.4614,8.4614,8.4614,8.4614,8.4614,8.4614,8.4614,8.4614,8.4614,8.4546,8.4444,8.4444,8.4444,8.4444,8.4444,8.4444,8.4444,8.4444,8.4444,8.4444,8.4444,8.4444,8.4444,8.4444,8.4444,3.7266,3.8629,4.0112,4.2068,0.0,0.0,0.0,0.0,0.0,0.0,0.0,0.0,0.0,0.0,5.6526,5.8082,6.1479,6.4829,6.7508,6.866,6.9724,7.1025,7.1384,7.1278,7.062,7.1427,7.2474,7.3611,7.4959,7.6508,7.8403,7.8484,7.8351,7.81,7.7205,7.6576,7.6311,7.6159,7.5443,7.4229,7.584,7.6006,7.4867,7.453,7.4063,7.3513,7.2963,7.216,7.1226,7.15,7.1716,7.2035,7.3325,7.4644,7.6073,7.7825,7.8506,7.8741,7.9998,8.0066,7.9732,8.0601,8.0378,7.9769,7.9769,7.9769,7.9904,8.0445,8.1494,8.2733,8.4221,8.4614,8.4614,8.4614,8.4614,8.4614,8.4614,8.4614,8.4614,8.4614,8.4614,8.4614,8.4614,8.4614,8.4614,8.4614,8.4614,8.4614,8.4614,8.4614,8.4614,8.4614,8.4614,8.4614,8.4614,8.4614,8.4614,8.4614,8.4614,8.4614,8.4614,8.4614,8.4614,8.4614,8.4614,8.4614,8.4614,8.4614,8.4614,8.4614,8.4614,8.4614,3.6367,3.7701,3.9288,0.0,0.0,0.0,0.0,0.0,0.0,0.0,0.0,0.0,0.0,0.0,0.0,0.0,6.2735,6.6176,6.8645,6.9588,7.0396,7.1474,7.1577,7.1398,7.0949,7.1578,7.2566,7.3912,7.5072,7.6508,7.8403,7.8484,7.8384,7.8166,7.694,7.6179,7.5993,7.5741,7.5244,7.4561,7.6722,7.7007,7.5603,7.5319,7.4854,7.4218,7.3476,7.2536,7.1564,7.179,7.2251,7.306,7.5115,7.6588,7.7688,7.9136,7.9777,7.995,8.048,8.0503,8.0372,8.1084,8.1135,8.0851,8.0627,8.056,8.056,8.056,8.146,8.2699,8.3917,8.4424,8.4614,8.4614,8.4614,8.4614,8.4614,8.4614,8.4614,8.4614,8.4614,8.4614,8.4614,8.4614,8.4614,8.4614,8.4614,8.4614,8.4614,8.4614,8.4614,8.4614,8.4614,8.4614,8.4614,8.4614,8.4614,8.4614,8.4614,8.4614,8.4614,8.4614,8.4614,8.4614,8.4614,8.4614,8.4614,8.4614,8.4614,8.4614,8.4614,8.4614,3.5573,3.6397,3.7428,0.0,0.0,0.0,0.0,0.0,0.0,0.0,0.0,0.0,0.0,0.0,0.0,6.022,6.3438,6.6729,6.8734,6.9588,7.0247,7.0829,7.0919,7.0889,7.0889,7.1578,7.275,7.4559,7.5327,7.6508,7.8403,7.8484,7.8166,7.7437,7.6709,7.5993,7.5323,7.596,7.596,7.5356,7.7484,7.7722,7.6272,7.5821,7.5638,7.563,7.4423,7.3523,7.2907,7.2907,7.37,7.5115,7.7119,7.8723,8.0048,8.1184,8.1538,8.1464,8.1348,8.127,8.1304,8.1317,8.1799,8.2259,8.1541,8.1304,8.1317,8.1304,8.1832,8.2564,8.3287,8.4052,8.4614,8.4614,8.4614,8.4614,8.4614,8.4614,8.4614,8.4614,8.4614,8.4614,8.4614,8.4614,8.4614,8.4614,8.4614,8.4614,8.4614,8.4614,8.4614,8.4614,8.4614,8.4614,8.4614,8.4614,8.4614,8.4614,8.458,8.458,8.4614,8.4614,8.4614,8.4614,8.4614,8.4614,8.4614,8.4614,8.4614,8.4614,8.4614,8.4614,3.5812,3.7335,0.0,4.2219,0.0,0.0,0.0,0.0,0.0,0.0,0.0,0.0,0.0,0.0,0.0,6.1627,6.4425,6.7537,6.9991,7.05,7.0859,7.1534,7.1593,7.1248,7.0366,7.1306,7.2566,7.3912,7.504,7.6508,7.8403,7.8484,7.8384,7.8186,7.747,7.6974,7.6788,7.6444,7.6179,7.6026,7.7172,7.7504,7.7067,7.7106,7.663,7.5662,7.4966,7.4012,7.2937,7.3402,7.4272,7.5526,7.7744,7.9105,7.9965,8.1091,8.1357,8.1023,8.0656,8.0513,8.0682,8.1731,8.2225,8.2361,8.2137,8.2069,8.1866,8.0818,8.1426,8.2462,8.2665,8.368,8.4762,8.5317,8.5452,8.5587,8.6115,8.6217,8.6217,8.6217,8.579,8.5452,8.5452,8.4965,8.4783,8.5351,8.5452,8.5621,8.6149,8.6217,8.6217,8.6217,8.6217,8.6014,8.5486,8.4931,8.4614,8.4614,8.412,8.4052,8.458,8.4614,8.4614,8.4614,8.4614,8.4614,8.4614,8.4614,8.4614,8.4614,8.4614,8.4614,3.5725,3.7727,0.0,4.3455,4.7291,5.172,5.7406,0.0,0.0,0.0,0.0,6.4769,6.2135,6.3303,0.0,6.3767,6.5981,6.8525,7.062,7.1128,7.1457,7.1863,7.1893,7.1504,7.0456,7.1336,7.2566,7.4006,7.5072,7.6508,7.8403,7.8484,7.8484,7.8484,7.7768,7.7404,7.7404,7.6855,7.6518,7.638,7.7018,7.7259,7.7137,7.758,7.7336,7.6483,7.5415,7.4475,7.3748,7.4273,7.5213,7.6514,7.8627,7.9829,8.0488,8.1483,8.1531,8.0992,8.0395,8.0378,8.0796,8.1663,8.2171,8.2395,8.2395,8.2205,8.1765,8.0885,8.1494,8.2395,8.2395,8.3498,8.4715,8.5215,8.5567,8.5905,8.6366,8.669,8.6893,8.6893,8.6535,8.6129,8.5838,8.5655,8.5574,8.577,8.6041,8.6399,8.6825,8.6893,8.6893,8.6893,8.6893,8.6724,8.6264,8.552,8.5067,8.5067,8.437,8.4289,8.5033,8.4762,8.4614,8.4614,8.4614,8.4614,8.4614,8.4614,8.4614,8.4614,8.4614,8.4614,3.5531,3.7836,4.0505,4.4166,4.9457,0.0,6.245,6.453,6.5398,6.6789,0.0,6.7254,6.4874,6.5981,6.7059,6.646,6.7986,6.9692,7.0919,7.1623,7.1983,7.1983,7.1953,7.1653,7.0979,7.1578,7.275,7.4544,7.5327,7.6508,7.8403,7.8484,7.8484,7.8484,7.7868,7.7504,7.7504,7.7185,7.6876,7.6499,7.6901,7.6873,7.653,7.732,7.7622,7.7496,7.5689,7.4886,7.492,7.5244,7.6208,7.7639,7.9544,8.061,8.1157,8.2059,8.19,8.1101,8.0412,8.0661,8.1202,8.127,8.1731,8.2293,8.2395,8.1934,8.1405,8.1405,8.1934,8.2496,8.2496,8.3545,8.4614,8.4614,8.5283,8.5905,8.5973,8.6569,8.7096,8.7096,8.7062,8.6805,8.6108,8.6501,8.6704,8.6108,8.6636,8.7096,8.7096,8.7096,8.7096,8.7096,8.7096,8.7062,8.6995,8.6332,8.5905,8.5905,8.5134,8.5067,8.5872,8.5134,8.4762,8.4817,8.4817,8.4817,8.4817,8.4817,8.4817,8.4817,8.4817,8.4817,3.6343,3.8742,4.163,4.6601,5.311,5.9302,6.3125,6.453,6.5518,6.7403,6.7898,6.7972,6.7926,6.8704,6.9319,6.9169,7.0336,7.1547,7.2368,7.2578,7.2668,7.2668,7.2206,7.1653,7.0979,7.1578,7.275,7.4544,7.5327,7.6508,7.8403,7.8484,7.8484,7.8484,7.8365,7.8252,7.8252,7.7754,7.7169,7.6563,7.6202,7.5707,7.5183,7.6229,7.6422,7.5937,7.5231,7.4886,7.492,7.5244,7.6057,7.733,7.9452,8.0157,8.0143,8.1778,8.1562,8.0412,8.0242,8.031,8.0513,8.1101,8.1405,8.1642,8.2225,8.2293,8.2171,8.2171,8.2678,8.3253,8.3253,8.3917,8.4614,8.4614,8.5675,8.6839,8.738,8.8105,8.8646,8.8646,8.8158,8.7719,8.755,8.7177,8.7028,8.7448,8.8158,8.8646,8.8646,8.8646,8.8646,8.8646,8.8646,8.8409,8.782,8.711,8.6656,8.6656,8.596,8.5858,8.6636,8.5926,8.5824,8.6386,8.642,8.642,8.642,8.642,8.642,8.642,8.642,8.642,3.6514,3.9024,4.2585,5.009,5.5985,6.0643,6.3381,6.477,6.5787,6.6835,6.7553,6.8181,6.8884,6.9558,7.0097,7.038,7.0995,7.1667,7.2325,7.2415,7.2415,7.2415,7.2234,7.1882,7.1192,7.2089,7.3293,7.4828,7.5577,7.6601,7.7979,7.806,7.806,7.806,7.806,7.806,7.806,7.7347,7.6559,7.5722,7.5142,7.4384,7.366,7.5026,7.5291,7.4757,7.4857,7.4886,7.492,7.5244,7.6124,7.7429,7.9483,8.0313,8.0518,8.1905,8.1697,8.0695,8.031,8.0209,8.0242,8.0661,8.0999,8.1439,8.2171,8.2395,8.2462,8.2847,8.3186,8.349,8.349,8.4052,8.4614,8.4614,8.5777,8.6995,8.738,8.8342,8.9086,8.9086,8.8781,8.8395,8.8057,8.7685,8.7685,8.8409,8.8849,8.9086,8.9086,8.9086,8.9086,8.9086,8.9086,8.8951,8.8578,8.7854,8.7448,8.7448,8.6738,8.667,8.7414,8.7042,8.6873,8.6893,8.6893,8.6893,8.6893,8.6893,8.6893,8.6893,8.6893,8.6893,3.6485,3.9723,4.4313,5.3153,5.7628,6.0562,6.3247,6.4695,6.5592,6.5936,6.6969,6.8032,6.8704,6.9379,7.0037,7.0649,7.0919,7.1278,7.1833,7.1893,7.1893,7.1893,7.2098,7.2057,7.169,7.2751,7.4024,7.5359,7.5973,7.6619,7.7384,7.737,7.737,7.7412,7.737,7.737,7.7412,7.6603,7.5687,7.4634,7.3908,7.3107,7.2352,7.369,7.4064,7.3682,7.4288,7.4616,7.477,7.5081,7.6066,7.7541,7.9422,8.0499,8.1073,8.1933,8.1818,8.1139,8.0433,8.0209,8.0209,8.0344,8.0796,8.1473,8.234,8.2598,8.2733,8.349,8.3693,8.3693,8.3693,8.4153,8.4614,8.4614,8.5777,8.6893,8.6893,8.8057,8.9086,8.9086,8.9086,8.8917,8.8308,8.8206,8.8409,8.9018,8.9086,8.9086,8.9086,8.9086,8.9086,8.9086,8.9086,8.9086,8.9086,8.8545,8.8206,8.8206,8.7617,8.755,8.8158,8.8206,8.7888,8.7279,8.7265,8.7265,8.7265,8.7265,8.7265,8.7265,8.7265,8.7265,3.6859,4.2426,4.8509,5.3472,5.6647,5.9364,6.253,6.3377,6.3961,6.5652,6.661,6.7343,6.8002,6.869,6.9333,7.0007,7.1055,7.1803,7.1893,7.1893,7.1893,7.1893,7.1677,7.1832,7.2533,7.337,7.4535,7.6295,7.6285,7.6356,7.6705,7.6512,7.6484,7.672,7.6512,7.6498,7.672,7.6157,7.522,7.3926,7.2736,7.2117,7.197,7.2199,7.239,7.2613,7.3,7.3492,7.4065,7.4406,7.5374,7.6837,7.877,7.9708,8.0109,8.1238,8.1347,8.0889,8.039,8.0209,8.031,8.0966,8.1202,8.1541,8.2962,8.3355,8.3524,8.4255,8.4444,8.4444,8.4444,8.4512,8.4614,8.4614,8.5777,8.6893,8.6893,8.8057,8.9086,8.9086,8.9086,8.9052,8.8984,8.8951,8.8984,8.9086,8.9086,8.9086,8.9086,8.9086,8.9086,8.9086,8.9086,8.9086,8.9086,8.9018,8.8951,8.8951,8.8849,8.8849,8.8951,8.8951,8.8917,8.8815,8.8815,8.8815,8.8815,8.8815,8.8815,8.8815,8.8815,8.8815,3.8368,4.3914,4.9339,5.3524,5.6399,5.8892,6.1426,6.2555,6.3333,6.4201,6.5173,6.6311,6.7748,6.8541,6.9213,6.9887,7.0739,7.1338,7.1338,7.1338,7.1338,7.1338,7.1568,7.1962,7.2517,7.3722,7.4982,7.6285,7.6303,7.6217,7.611,7.5873,7.5684,7.5577,7.5525,7.5687,7.6155,7.5402,7.4531,7.358,7.2841,7.2265,7.1893,7.1893,7.1975,7.2166,7.2674,7.3057,7.3373,7.39,7.4704,7.5789,7.7535,7.8783,7.9702,8.088,8.1393,8.1565,8.1478,8.1414,8.1494,8.1799,8.2218,8.2657,8.3287,8.3795,8.4187,8.4512,8.4614,8.4614,8.4614,8.4614,8.4614,8.4614,8.5777,8.6893,8.6893,8.8057,8.9086,8.9086,8.9086,8.9086,8.9086,8.9086,8.9086,8.9086,8.9086,8.9086,8.9086,8.9086,8.9086,8.9086,8.9086,8.9086,8.9086,8.9086,8.9086,8.9086,8.9086,8.9086,8.9086,8.9086,8.9086,8.9086,8.9086,8.9086,8.9086,8.9086,8.9086,8.9086,8.9086,8.9086,3.9668,4.4202,4.8436,5.2268,5.4906,5.7186,5.9544,6.0984,6.2076,6.2914,6.3857,6.5069,6.6894,6.7926,6.8645,6.9169,7.0021,7.0679,7.0679,7.0799,7.0889,7.0889,7.1451,7.201,7.247,7.3782,7.5117,7.6214,7.6131,7.5873,7.5458,7.5085,7.4702,7.431,7.4455,7.4784,7.5301,7.4608,7.4109,7.3774,7.3357,7.2804,7.2162,7.1983,7.1803,7.1683,7.2176,7.2488,7.2714,7.3373,7.4152,7.5065,7.6601,7.8122,7.9544,8.0533,8.1434,8.2149,8.2251,8.2343,8.2428,8.2631,8.305,8.3524,8.3727,8.4153,8.4614,8.4614,8.4614,8.4614,8.4614,8.4614,8.4614,8.4614,8.5642,8.6771,8.7347,8.8328,8.9086,8.9086,8.9086,8.9086,8.9086,8.9086,8.9086,8.9086,8.9086,8.9086,8.9086,8.9086,8.9086,8.9086,8.9086,8.9086,8.9086,8.9086,8.9086,8.9086,8.9086,8.9086,8.9086,8.9086,8.9086,8.9086,8.9086,8.9086,8.9086,8.9086,8.9086,8.9086,8.9086,8.9086,4.0049,4.2864,4.5828,4.8975,5.0964,5.3028,5.6521,5.7859,5.9265,6.2435,6.3153,6.3602,6.4919,6.6221,6.7134,6.7148,6.878,7.0037,7.0037,7.053,7.0889,7.0889,7.1226,7.1775,7.2705,7.3508,7.47,7.6451,7.5826,7.5186,7.4767,7.3979,7.3308,7.2938,7.3287,7.3608,7.3893,7.3916,7.4239,7.48,7.4168,7.3492,7.2817,7.2176,7.1564,7.0949,7.0979,7.1368,7.2013,7.2684,7.376,7.5126,7.6478,7.8024,7.9562,8.0133,8.1148,8.2168,8.2073,8.2186,8.253,8.3219,8.3456,8.3625,8.4323,8.458,8.4614,8.4614,8.4614,8.4614,8.4614,8.4614,8.4614,8.4614,8.5236,8.6447,8.8545,8.9052,8.9086,8.9086,8.9086,8.9086,8.9086,8.9086,8.9086,8.9086,8.9086,8.9086,8.9086,8.9086,8.9086,8.9086,8.9086,8.9086,8.9086,8.9086,8.9086,8.9086,8.9086,8.9086,8.9086,8.9086,8.9086,8.9086,8.9086,8.9086,8.9086,8.9086,8.9086,8.9086,8.9086,8.9086,3.9231,4.1824,4.4449,4.6845,4.9117,5.1446,5.4,5.6077,5.8171,6.0669,6.1537,6.2211,6.3528,6.5533,6.7014,6.7014,6.869,7.0127,7.053,7.0769,7.1068,7.1504,7.1467,7.1629,7.2156,7.3061,7.425,7.5909,7.5423,7.4921,7.4707,7.3857,7.3046,7.2251,7.2793,7.3426,7.4193,7.4432,7.4437,7.4257,7.4001,7.3313,7.2235,7.2013,7.1517,7.0889,7.0889,7.1038,7.1338,7.2428,7.3327,7.4175,7.6179,7.7719,7.9052,8.0423,8.1533,8.2419,8.3167,8.347,8.3644,8.4067,8.4221,8.4255,8.4512,8.4614,8.4614,8.4614,8.4614,8.4614,8.4614,8.4614,8.4715,8.5249,8.596,8.6839,8.8139,8.8781,8.9086,8.9086,8.9086,8.9086,8.9086,8.9086,8.9086,8.9086,8.9086,8.9086,8.9086,8.9086,8.9086,8.9086,8.9086,8.9086,8.9086,8.9086,8.9086,8.9086,8.9086,8.9086,8.9086,8.9086,8.9086,8.9086,8.9086,8.9086,8.9086,8.9086,8.9086,8.9086,8.9086,8.9086,3.819,4.0498,4.2711,4.4277,4.645,4.8813,5.1061,5.3384,5.5867,5.8544,5.9638,6.0641,6.2435,6.438,6.5847,6.6251,6.8032,6.9558,7.0171,7.062,7.1068,7.1517,7.1563,7.155,7.155,7.239,7.363,7.5239,7.4878,7.4611,7.4678,7.3782,7.2919,7.2279,7.2667,7.3428,7.4549,7.4796,7.4557,7.3881,7.3881,7.321,7.1893,7.1893,7.1517,7.0889,7.0889,7.0889,7.1009,7.2339,7.3177,7.3812,7.6171,7.78,7.9021,8.0714,8.1868,8.2713,8.3609,8.4048,8.4238,8.4426,8.4547,8.4614,8.4614,8.4614,8.4614,8.4614,8.4614,8.4614,8.4614,8.4614,8.4715,8.5283,8.5993,8.6738,8.7482,8.8409,8.9086,8.9086,8.9086,8.9086,8.9086,8.9086,8.9086,8.9086,8.9086,8.9086,8.9086,8.9086,8.9086,8.9086,8.9086,8.9086,8.9086,8.9086,8.9086,8.9086,8.9086,8.9086,8.9086,8.9086,8.9086,8.9086,8.9086,8.9086,8.9086,8.9086,8.9086,8.9086,8.9086,8.9086,0.0,0.0,0.0,4.1094,4.2731,4.4875,4.7529,4.9673,5.2235,5.6196,5.756,5.8863,6.1613,6.2644,6.3482,6.48,6.667,6.8211,6.8914,7.0127,7.0935,7.0935,7.152,7.164,7.0965,7.1564,7.275,7.4498,7.4175,7.4131,7.4633,7.3507,7.2843,7.2867,7.2877,7.3492,7.4826,7.4826,7.4497,7.3821,7.3821,7.315,7.1863,7.1863,7.1534,7.0889,7.0889,7.0889,7.1009,7.2339,7.3326,7.4235,7.6532,7.828,7.9688,8.0958,8.2046,8.2926,8.3206,8.3692,8.4184,8.4197,8.4386,8.46,8.4614,8.4614,8.4647,8.4647,8.4647,8.4647,8.4647,8.4647,8.4681,8.4681,8.5283,8.6075,8.6758,8.8057,8.9086,8.9086,8.9086,8.9086,8.9086,8.9086,8.9086,8.9086,8.9086,8.9086,8.9086,8.9086,8.9086,8.9086,8.9086,8.9086,8.9086,8.9086,8.9086,8.9086,8.9086,8.9086,8.9086,8.9086,8.9086,8.9086,8.9086,8.9086,8.9086,8.9086,8.9086,8.9086,8.9086,8.9086,3.5708,0.0,0.0,0.0,0.0,0.0,4.3648,4.6661,5.0212,5.4192,5.5927,5.7826,6.1447,6.2241,6.2959,6.4695,6.6281,6.7852,6.9498,7.0635,7.1517,7.1922,7.2421,7.2154,7.0751,7.1658,7.2629,7.3289,7.3518,7.3737,7.4022,7.2392,7.1668,7.2162,7.2176,7.2595,7.3462,7.3462,7.3103,7.2461,7.2461,7.1996,7.1188,7.1188,7.1068,7.0889,7.0889,7.0889,7.1009,7.2339,7.3326,7.4316,7.7304,7.9052,8.0087,8.1861,8.2671,8.2926,8.3206,8.3416,8.3637,8.4061,8.4265,8.4359,8.4526,8.4999,8.5466,8.5466,8.5466,8.5466,8.5466,8.5845,8.625,8.625,8.6839,8.7448,8.7651,8.8443,8.9086,8.9086,8.9086,8.9086,8.9086,8.9086,8.9086,8.9086,8.9086,8.9086,8.9086,8.9086,8.9086,8.9086,8.9086,8.9086,8.9086,8.9086,8.9086,8.9086,8.9086,8.9086,8.9086,8.9086,8.9086,8.9086,8.9086,8.9086,8.9086,8.9086,8.9086,8.9086,8.9086,8.9086,0.0,0.0,0.0,0.0,0.0,0.0,4.1313,4.4427,4.7948,5.1079,5.2995,5.5162,5.859,5.9283,5.9997,6.1963,6.3504,6.5667,6.9111,7.0445,7.1445,7.2435,7.2912,7.2715,7.1572,7.2082,7.2673,7.3168,7.3092,7.303,7.3,7.1679,7.1218,7.1893,7.1893,7.2206,7.2877,7.2907,7.2565,7.1893,7.2176,7.1966,7.1338,7.1607,7.1577,7.1308,7.1308,7.1158,7.1009,7.2339,7.3326,7.4318,7.7621,7.9362,8.0239,8.218,8.2883,8.2911,8.3066,8.3206,8.3374,8.372,8.3925,8.4061,8.4224,8.4878,8.5594,8.5594,8.5912,8.6196,8.5872,8.625,8.6708,8.6866,8.7115,8.7465,8.7894,8.823,8.8546,8.899,8.9086,8.9086,8.9086,8.9086,8.9086,8.9086,8.9086,8.9086,8.9086,8.9086,8.9086,8.9086,8.9086,8.9086,8.9086,8.9086,8.9086,8.9086,8.9086,8.9086,8.9086,8.9086,8.9086,8.9086,8.9086,8.9086,8.9086,8.9086,8.9086,8.9086,8.9086,8.9086,3.5293,0.0,0.0,0.0,0.0,0.0,3.9828,4.2432,4.5304,4.732,4.9303,5.1487,5.4162,5.481,5.5599,5.7609,5.935,6.2335,6.7735,6.9532,7.0867,7.249,7.3055,7.3191,7.2705,7.2563,7.2822,7.355,7.2944,7.24,7.1975,7.1365,7.1248,7.1773,7.1803,7.2086,7.2668,7.2668,7.2385,7.1803,7.2475,7.2475,7.1923,7.2595,7.2565,7.2013,7.1923,7.1607,7.1202,7.2398,7.3326,7.4318,7.7621,7.9362,8.0239,8.218,8.2883,8.2883,8.2883,8.3052,8.3262,8.329,8.3499,8.3747,8.3788,8.4483,8.526,8.5402,8.6248,8.6961,8.6203,8.6322,8.6723,8.6978,8.6834,8.6906,8.7803,8.7798,8.7902,8.883,8.9016,8.9044,8.9086,8.9086,8.9086,8.9086,8.9058,8.9044,8.9086,8.9058,8.9044,8.9086,8.9058,8.9058,8.9086,8.9058,8.9058,8.9086,8.9086,8.9086,8.9086,8.9086,8.9072,8.9044,8.9002,8.8988,8.8988,8.9058,8.9086,8.9086,8.9086,8.9086,3.5844,3.5998,3.5818,0.0,0.0,0.0,3.7233,3.9379,4.1913,4.3878,4.5882,4.8065,5.0697,5.1351,5.2106,5.4027,5.6173,5.9388,6.4568,6.7319,6.9534,7.1521,7.2535,7.2735,7.1828,7.2621,7.2953,7.2321,7.3107,7.3248,7.2363,7.1926,7.1534,7.1098,7.1098,7.1158,7.1308,7.1308,7.1218,7.1098,7.1757,7.2042,7.1923,7.2595,7.2817,7.2668,7.2116,7.2116,7.2518,7.2787,7.3326,7.4318,7.7621,7.9362,8.0239,8.218,8.2883,8.2883,8.2883,8.2926,8.301,8.3234,8.3346,8.3457,8.372,8.4332,8.5166,8.5959,8.7396,8.8455,8.7447,8.7672,8.8125,8.7974,8.8074,8.8159,8.8175,8.8275,8.8395,8.8377,8.8534,8.879,8.9044,8.9086,8.9086,8.9086,8.8875,8.8804,8.9058,8.8861,8.8804,8.9058,8.8861,8.8818,8.9072,8.8847,8.8818,8.9072,8.9086,8.9086,8.9086,8.9086,8.8974,8.8705,8.8496,8.8382,8.8382,8.8847,8.9086,8.9086,8.9086,8.9086,3.6548,3.6716,3.6477,3.6485,0.0,0.0,0.0,3.852,4.0696,4.1634,4.3429,4.5313,4.6958,4.7527,4.8266,4.9746,5.2278,5.5488,5.9644,6.4216,6.816,7.0893,7.1537,7.1599,7.1246,7.1794,7.1948,7.1453,7.2625,7.3041,7.2215,7.2305,7.2235,7.189,7.189,7.1727,7.1398,7.1398,7.1218,7.0919,7.1906,7.2385,7.2445,7.3432,7.3702,7.3373,7.3043,7.2894,7.2937,7.3266,7.3837,7.4773,7.7746,7.9362,8.0239,8.218,8.2883,8.2883,8.2883,8.2883,8.2911,8.3052,8.3094,8.3122,8.329,8.421,8.5389,8.6172,8.7588,8.865,8.7739,8.7954,8.8382,8.8223,8.818,8.8146,8.8194,8.818,8.8146,8.8194,8.818,8.8305,8.8776,8.8988,8.903,8.8875,8.8719,8.862,8.8668,8.862,8.862,8.8668,8.862,8.862,8.8668,8.862,8.8677,8.8847,8.9002,8.9086,8.9086,8.9086,8.87,8.7891,8.775,8.7695,8.7629,8.8334,8.8824,8.9086,8.9086,8.9086,0.0,0.0,0.0,0.0,0.0,3.7075,0.0,0.0,0.0,0.0,4.0986,4.2313,4.2871,4.3443,4.4199,4.5332,4.8244,5.1433,5.4529,6.0037,6.5275,6.9259,6.9557,6.9621,7.0169,7.0403,7.0656,7.0861,7.189,7.2309,7.1923,7.2535,7.2907,7.2907,7.2907,7.2595,7.1923,7.1893,7.1547,7.0919,7.2249,7.2907,7.2937,7.4287,7.4587,7.4108,7.3958,7.3672,7.3313,7.3732,7.4409,7.5457,7.7918,7.9362,8.0239,8.218,8.2883,8.2883,8.2883,8.2883,8.2883,8.2883,8.2883,8.2883,8.2883,8.4024,8.5397,8.589,8.7055,8.8053,8.7474,8.7653,8.7998,8.8016,8.786,8.7758,8.7977,8.7846,8.7758,8.7977,8.7846,8.7889,8.8434,8.8691,8.8719,8.8372,8.8214,8.8055,8.7827,8.7983,8.8041,8.7827,8.8031,8.8103,8.7914,8.8117,8.83,8.852,8.8832,8.9002,8.9002,8.8776,8.8036,8.6747,8.6783,8.6783,8.6732,8.7456,8.8247,8.9086,8.9086,8.9086,0.0,0.0,0.0,0.0,3.6956,0.0,0.0,0.0,0.0,0.0,0.0,3.8075,3.8174,0.0,0.0,4.1051,4.4503,4.8028,5.0819,5.4071,5.851,6.4841,6.5551,6.6131,6.7649,6.8651,6.9682,7.0829,7.1038,7.1338,7.1863,7.2535,7.2907,7.2907,7.2907,7.2595,7.1923,7.1893,7.1547,7.0919,7.2249,7.2907,7.2937,7.4287,7.4856,7.4736,7.4168,7.418,7.4616,7.4091,7.468,7.6097,7.809,7.9362,8.0239,8.218,8.2883,8.2883,8.2883,8.2883,8.2883,8.2883,8.2883,8.2883,8.2883,8.3659,8.4545,8.463,8.5591,8.6676,8.6693,8.697,8.7262,8.7375,8.7552,8.764,8.7467,8.7552,8.764,8.7419,8.7552,8.7816,8.818,8.8031,8.7768,8.7397,8.6861,8.6451,8.6439,8.6436,8.6451,8.6439,8.6436,8.6572,8.6861,8.6888,8.7308,8.8194,8.8491,8.8677,8.8677,8.7555,8.6482,8.5437,8.5422,8.5422,8.5422,8.6086,8.7368,8.9086,8.9086,8.9086,0.0,0.0,0.0,0.0,0.0,0.0,0.0,0.0,3.7503,0.0,0.0,0.0,0.0,0.0,0.0,0.0,4.392,4.6841,4.93,5.1365,5.4612,5.9967,6.1371,6.2727,6.4861,6.5711,6.664,6.7956,6.8405,6.9423,7.1218,7.2684,7.3672,7.4031,7.3672,7.3163,7.2505,7.2475,7.2146,7.1487,7.2834,7.3492,7.3522,7.4467,7.4886,7.4886,7.4587,7.4646,7.4886,7.4587,7.5088,7.6188,7.8122,7.9362,8.0239,8.218,8.2883,8.2883,8.2883,8.2883,8.2883,8.2883,8.2883,8.2883,8.2883,8.3498,8.4304,8.4874,8.5749,8.6645,8.7106,8.735,8.7402,8.7308,8.7408,8.7419,8.7334,8.7408,8.7419,8.7334,8.7375,8.739,8.7152,8.6903,8.6522,8.5806,8.509,8.457,8.4379,8.4522,8.457,8.4379,8.4522,8.4697,8.4902,8.5605,8.6328,8.6996,8.7677,8.7983,8.7727,8.6527,8.5265,8.3994,8.4026,8.4026,8.3978,8.4634,8.5605,8.6807,8.7614,8.7983,4.1077,0.0,0.0,0.0,0.0,0.0,0.0,0.0,0.0,0.0,0.0,0.0,0.0,0.0,0.0,0.0,0.0,4.6303,4.7907,4.9142,5.1408,5.5587,5.7626,5.9525,6.1675,6.2263,6.297,6.4139,6.4769,6.634,6.9137,7.1368,7.3013,7.4048,7.3762,7.3402,7.2907,7.2907,7.2654,7.2176,7.3359,7.3881,7.3911,7.4587,7.4886,7.4886,7.4886,7.4886,7.4886,7.4886,7.5312,7.6171,7.7961,7.9083,7.9963,8.1878,8.2718,8.2883,8.2651,8.2718,8.2883,8.2883,8.2883,8.2883,8.2883,8.3281,8.3887,8.4845,8.5525,8.6201,8.7046,8.7356,8.736,8.7312,8.7319,8.7319,8.7319,8.7319,8.7319,8.7319,8.7319,8.7017,8.6151,8.5855,8.5355,8.4347,8.3477,8.2821,8.2473,8.2738,8.2821,8.2473,8.2738,8.3018,8.3181,8.4235,8.5279,8.6132,8.6708,8.6888,8.6582,8.5327,8.409,8.2833,8.2896,8.2896,8.2848,8.3425,8.401,8.4618,8.5992,8.6633,0.0,0.0,0.0,3.8997,0.0,0.0,0.0,0.0,3.6904,0.0,0.0,0.0,0.0,0.0,0.0,0.0,0.0,0.0,0.0,0.0,0.0,0.0,0.0,5.6617,5.7931,5.8424,5.8964,5.967,6.0101,6.1762,6.5024,6.7701,7.0021,7.1953,7.2595,7.2907,7.2907,7.2907,7.2877,7.2877,7.3582,7.3881,7.3911,7.4587,7.4886,7.4886,7.4886,7.4886,7.4886,7.4886,7.5312,7.6121,7.7414,7.8375,7.9253,8.1129,8.2287,8.2784,8.2088,8.2287,8.2883,8.2883,8.2883,8.2883,8.2883,8.2916,8.3082,8.3858,8.4238,8.4741,8.5948,8.6445,8.6742,8.7179,8.7319,8.7319,8.7319,8.7319,8.7319,8.7319,8.7319,8.6867,8.5485,8.4967,8.4363,8.3311,8.2232,8.145,8.109,8.1365,8.145,8.109,8.1365,8.1723,8.211,8.2798,8.4058,8.6055,8.5607,8.5264,8.525,8.3961,8.2912,8.2143,8.2191,8.2191,8.2126,8.2544,8.2927,8.3292,8.4586,8.5168,0.0,0.0,4.2406,4.1316,0.0,0.0,0.0,0.0,0.0,0.0,0.0,0.0,0.0,0.0,0.0,0.0,0.0,0.0,0.0,0.0,0.0,0.0,0.0,0.0,5.4869,5.5509,5.5999,5.6355,5.6264,5.8008,6.2197,6.5338,6.8136,7.0576,7.1683,7.2445,7.2907,7.2907,7.3116,7.3582,7.4257,7.4557,7.4557,7.4796,7.4886,7.4886,7.4886,7.4886,7.4873,7.4437,7.4515,7.5009,7.5658,7.6193,7.6948,7.9589,8.1153,8.1974,8.2146,8.2515,8.2883,8.2883,8.2883,8.2883,8.2883,8.2883,8.3148,8.4374,8.4777,8.5167,8.6571,8.698,8.7106,8.7267,8.7319,8.7319,8.7319,8.7319,8.7211,8.702,8.6777,8.6182,8.4778,8.3637,8.2635,8.181,8.0571,7.967,7.9546,7.9653,7.967,7.9546,7.9653,7.9882,8.0269,8.1368,8.2704,8.4299,8.3785,8.3297,8.3099,8.2215,8.1532,8.1034,8.1065,8.1186,8.1426,8.1563,8.1683,8.1836,8.2247,8.2949,4.509,4.4944,0.0,4.3628,4.293,0.0,4.0206,0.0,0.0,0.0,0.0,0.0,0.0,0.0,0.0,0.0,0.0,0.0,0.0,4.6054,0.0,0.0,0.0,0.0,0.0,5.212,5.2325,5.2373,5.2418,5.4281,5.8427,6.2197,6.5592,6.8511,7.05,7.1966,7.2877,7.3146,7.3582,7.4257,7.4676,7.4886,7.4886,7.4886,7.4886,7.4886,7.4886,7.4886,7.4856,7.4197,7.4101,7.4399,7.454,7.4933,7.5692,7.7689,7.9348,8.0692,8.1694,8.241,8.2883,8.2883,8.2883,8.2883,8.2883,8.2883,8.3215,8.4691,8.5088,8.5434,8.6906,8.7319,8.7319,8.7319,8.7319,8.7319,8.7319,8.7319,8.7185,8.6701,8.6228,8.5422,8.4042,8.2585,8.1422,8.0913,7.967,7.8807,7.8807,7.8807,7.8807,7.8807,7.8807,7.9005,7.9541,8.0536,8.1593,8.2737,8.2167,8.176,8.1658,8.0986,8.0566,8.051,8.051,8.0701,8.1113,8.1113,8.1113,8.1113,8.1113,8.158]},{"header":{"parameterUnit":"m.s-1","parameterCategory":1,"la1":30.6,"la2":29.2853,"lo1":-89.7004,"lo2":-87.6739,"dy":0.0162,"dx":0.0183,"nx":112,"ny":82,"refTime":"2026-03-23T12:00:00:Z","depth":0,"parameterNumber":3,"parameterNumberName":"V-component_of_WINDS"},"data":[0.0,0.0,0.0,0.0,0.0,0.0,0.0,0.0,0.0,0.0,0.0,0.0,0.0,0.0,0.0,0.0,0.0,0.0,0.0,0.0,0.0,0.0,0.0,0.0,0.0,0.0,0.0,0.0,0.0,0.0,0.0,0.0,0.0,0.0,0.0,0.0,0.0,0.0,0.0,0.0,0.0,0.0,0.0,0.0,0.0,0.0,0.0,0.0,0.0,0.0,0.0,0.0,0.0,0.0,0.0,0.0,0.0,0.0,0.0,0.0,0.0,0.0,0.0,0.0,0.0,0.0,0.0,0.0,0.0,0.0,0.0,0.0,0.0,0.0,0.0,0.0,0.0,0.0,0.0,0.0,0.0,0.0,0.0,0.0,0.0,0.0,0.0,0.0,0.0,0.0,0.0,2.5296,2.8572,3.0136,2.917,2.8096,2.6486,2.4151,0.0,0.0,0.0,0.0,0.0,0.0,0.0,0.0,0.0,0.0,0.0,0.0,0.0,0.0,0.0,0.0,0.0,0.0,0.0,0.0,0.0,0.0,0.0,0.0,0.0,0.0,0.0,0.0,0.0,0.0,0.0,0.0,0.0,0.0,0.0,0.0,0.0,0.0,0.0,0.0,0.0,0.0,0.0,0.0,0.0,0.0,0.0,0.0,0.0,0.0,0.0,0.0,0.0,0.0,0.0,0.0,0.0,0.0,0.0,0.0,0.0,0.0,0.0,0.0,0.0,0.0,0.0,0.0,0.0,0.0,0.0,0.0,0.0,0.0,0.0,0.0,0.0,0.0,0.0,0.0,0.0,0.0,0.0,0.0,0.0,0.0,0.0,0.0,0.0,0.0,0.0,0.0,0.0,0.0,0.0,0.0,0.0,0.0,0.0,0.0,0.0,0.0,0.0,0.0,2.3424,2.7615,2.9864,3.0635,2.9513,2.8791,2.7402,2.5042,0.0,0.0,0.0,0.0,0.0,0.0,0.0,0.0,0.0,0.0,0.0,0.0,0.0,0.0,0.0,0.0,0.0,0.0,0.0,0.0,0.0,0.0,0.0,0.0,0.0,0.0,0.0,0.0,0.0,0.0,0.0,0.0,0.0,0.0,0.0,0.0,0.0,0.0,0.0,0.0,0.0,0.0,0.0,0.0,0.0,0.0,0.0,0.0,0.0,0.0,0.0,0.0,0.0,0.0,0.0,0.0,0.0,0.0,0.0,0.0,0.0,0.0,0.0,0.0,0.0,0.0,0.0,0.0,0.0,0.0,0.0,0.0,0.0,0.0,0.0,0.0,0.0,0.0,0.0,0.0,0.0,0.0,0.0,0.0,0.0,0.0,0.0,0.0,0.0,0.0,0.0,0.0,0.0,0.0,0.0,0.0,0.0,0.0,0.0,0.0,0.0,0.0,0.0,2.3117,2.5951,2.8778,3.0221,3.0581,2.9566,2.8519,2.6901,2.4534,2.1764,0.0,0.0,0.0,0.0,0.0,0.0,0.0,0.0,0.0,0.0,0.0,0.0,0.0,0.0,0.0,0.0,0.0,0.0,0.0,0.0,0.0,0.0,0.0,0.0,0.0,0.0,0.0,0.0,0.0,0.0,0.0,0.0,0.0,0.0,0.0,0.0,0.0,0.0,0.0,0.0,0.0,0.0,0.0,0.0,0.0,0.0,0.0,0.0,0.0,0.0,0.0,0.0,0.0,0.0,0.0,0.0,0.0,0.0,0.0,0.0,0.0,0.0,0.0,0.0,0.0,0.0,0.0,0.0,0.0,0.0,0.0,0.0,0.0,0.0,0.0,0.0,0.0,0.0,0.0,0.0,0.0,0.0,0.0,0.0,0.0,0.0,0.0,0.0,0.0,0.0,0.0,0.0,0.0,0.0,0.0,0.0,0.0,0.0,0.0,0.0,0.0,0.0,2.573,2.801,2.9361,3.0327,3.0488,2.9459,2.797,2.6112,2.3826,2.1293,0.0,0.0,0.0,0.0,0.0,0.0,0.0,0.0,0.0,0.0,0.0,0.0,0.0,0.0,0.0,0.0,0.0,0.0,0.0,0.0,0.0,0.0,0.0,0.0,0.0,0.0,0.0,0.0,0.0,0.0,0.0,0.0,0.0,0.0,0.0,0.0,0.0,0.0,0.0,0.0,0.0,0.0,0.0,0.0,0.0,0.0,0.0,0.0,0.0,0.0,0.0,0.0,0.0,0.0,0.0,0.0,0.0,0.0,0.0,0.0,0.0,0.0,0.0,0.0,0.0,0.0,0.0,0.0,0.0,0.0,0.0,0.0,0.0,0.0,0.0,0.0,0.0,0.0,0.0,0.0,0.0,0.0,0.0,0.0,0.0,0.0,0.0,0.0,0.0,0.0,0.0,0.0,0.0,0.0,0.0,0.0,0.0,0.0,0.0,0.0,0.0,0.0,2.6466,2.8486,2.9401,3.0515,3.0598,2.9148,2.7455,2.5571,2.347,2.0597,0.0,0.0,0.0,0.0,0.0,0.0,0.0,0.0,0.0,0.0,0.0,0.0,0.0,0.0,0.0,0.0,0.0,0.0,0.0,0.0,0.0,0.0,0.0,0.0,0.0,0.0,0.0,0.0,0.0,0.0,0.0,0.0,0.0,0.0,0.0,0.0,0.0,0.0,0.0,0.0,0.0,0.0,0.0,0.0,0.0,0.0,0.0,0.0,0.0,0.0,0.0,0.0,0.0,0.0,0.0,0.0,0.0,0.0,0.0,0.0,0.0,0.0,0.0,0.0,0.0,0.0,0.0,0.0,0.0,0.0,0.0,0.0,0.0,0.0,0.0,0.0,0.0,0.0,0.0,0.0,0.0,0.0,0.0,0.0,0.0,0.0,0.0,0.0,0.0,0.0,0.0,0.0,0.0,0.0,0.0,0.0,0.0,0.0,0.0,0.0,0.0,0.0,2.6546,2.8526,0.0,3.023,3.0167,2.8863,2.7148,2.5176,2.2882,0.0,0.0,0.0,0.0,0.0,0.0,0.0,0.0,0.0,0.0,0.0,0.0,0.0,0.0,0.0,0.0,0.0,0.0,0.0,0.0,0.0,0.0,0.0,0.0,0.0,0.0,0.0,0.0,0.0,0.0,0.0,0.0,0.0,0.0,0.0,0.0,0.0,0.0,0.0,0.0,0.0,0.0,0.0,0.0,0.0,0.0,0.0,0.0,0.0,0.0,0.0,0.0,0.0,0.0,0.0,0.0,0.0,0.0,0.0,0.0,0.0,0.0,0.0,0.0,0.0,0.0,0.0,0.0,0.0,0.0,0.0,0.0,0.0,0.0,0.0,0.0,0.0,0.0,0.0,0.0,0.0,0.0,0.0,0.0,0.0,0.0,0.0,0.0,0.0,0.0,0.0,0.0,0.0,0.0,0.0,0.0,0.0,0.0,0.0,0.0,0.0,0.0,2.3977,2.6673,2.8585,0.0,2.9976,2.9891,2.8585,2.6767,2.4761,2.2535,0.0,0.0,0.0,0.0,0.0,0.0,0.0,0.0,0.0,0.0,0.0,0.0,0.0,0.0,0.0,0.0,0.0,0.0,0.0,0.0,0.0,0.0,0.0,0.0,0.0,0.0,0.0,0.0,0.0,0.0,0.0,0.0,0.0,0.0,0.0,0.0,0.0,0.0,0.0,0.0,0.0,0.0,0.0,0.0,0.0,0.0,0.0,0.0,0.0,0.0,0.0,0.0,0.0,0.0,0.0,0.0,0.0,0.0,0.0,0.0,0.0,0.0,0.0,0.0,0.0,0.0,0.0,0.0,0.0,0.0,0.0,0.0,0.0,0.0,0.0,0.0,0.0,0.0,0.0,0.0,0.0,0.0,0.0,0.0,0.0,0.0,0.0,0.0,0.0,0.0,0.0,0.0,0.0,0.0,0.0,0.0,0.0,0.0,0.0,0.0,0.0,0.0,2.4252,2.6941,2.8689,2.8961,2.982,2.9798,2.8312,2.6305,2.4347,0.0,0.0,0.0,0.0,0.0,0.0,0.0,0.0,0.0,0.0,0.0,0.0,0.0,0.0,0.0,0.0,0.0,0.0,0.0,0.0,0.0,0.0,0.0,0.0,0.0,0.0,0.0,0.0,0.0,0.0,0.0,0.0,0.0,0.0,0.0,0.0,0.0,0.0,0.0,0.0,0.0,0.0,0.0,0.0,0.0,0.0,0.0,0.0,0.0,0.0,0.0,0.0,0.0,0.0,0.0,0.0,0.0,0.0,0.0,0.0,0.0,0.0,0.0,0.0,0.0,0.0,0.0,0.0,0.0,0.0,0.0,0.0,0.0,0.0,0.0,0.0,0.0,0.0,0.0,0.0,0.0,0.0,0.0,0.0,0.0,0.0,0.0,0.0,0.0,0.0,0.0,0.0,0.0,0.0,0.0,0.0,0.0,0.0,0.0,0.0,0.0,0.0,0.0,2.4226,2.6794,2.8492,2.8948,2.9459,2.9334,2.8293,2.668,2.4887,2.2876,0.0,0.0,0.0,0.0,0.0,0.0,0.0,0.0,0.0,0.0,0.0,0.0,0.0,0.0,0.0,0.0,0.0,0.0,0.0,0.0,0.0,0.0,0.0,0.0,0.0,0.0,0.0,0.0,0.0,0.0,0.0,0.0,0.0,0.0,0.0,0.0,0.0,0.0,0.0,0.0,0.0,0.0,0.0,0.0,0.0,0.0,0.0,0.0,0.0,0.0,0.0,0.0,0.0,0.0,0.0,0.0,0.0,0.0,0.0,0.0,0.0,0.0,0.0,0.0,0.0,0.0,0.0,0.0,0.0,0.0,0.0,0.0,0.0,0.0,0.0,0.0,0.0,0.0,0.0,0.0,0.0,0.0,0.0,0.0,0.0,0.0,0.0,0.0,0.0,0.0,0.0,0.0,0.0,0.0,0.0,0.0,0.0,0.0,0.0,0.0,0.0,0.0,2.4239,2.68,2.8492,2.881,2.9232,2.9147,2.8259,2.7162,2.5583,2.3402,0.0,0.0,0.0,0.0,0.0,0.0,0.0,0.0,0.0,0.0,0.0,0.0,0.0,0.0,0.0,0.0,0.0,0.0,0.0,0.0,0.0,0.0,0.0,0.0,0.0,0.0,0.0,0.0,0.0,0.0,0.0,0.0,0.0,0.0,0.0,0.0,0.0,0.0,0.0,0.0,0.0,0.0,0.0,0.0,0.0,0.0,0.0,0.0,0.0,0.0,0.0,0.0,0.0,0.0,0.0,0.0,0.0,0.0,0.0,0.0,0.0,0.0,0.0,0.0,0.0,0.0,0.0,0.0,0.0,0.0,0.0,0.0,0.0,0.0,0.0,0.0,0.0,0.0,0.0,0.0,0.0,0.0,0.0,0.0,0.0,0.0,0.0,0.0,0.0,0.0,0.0,0.0,0.0,0.0,0.0,0.0,0.0,0.0,0.0,0.0,0.0,0.0,2.4252,2.6887,2.8551,2.8604,2.9085,2.9067,2.824,2.7603,2.6292,2.3973,0.0,0.0,0.0,0.0,0.0,0.0,0.0,0.0,0.0,0.0,0.0,0.0,0.0,0.0,0.0,0.0,0.0,0.0,0.0,0.0,0.0,0.0,0.0,0.0,0.0,0.0,0.0,0.0,0.0,0.0,0.0,0.0,0.0,0.0,0.0,0.0,0.0,0.0,0.0,0.0,0.0,0.0,0.0,0.0,0.0,0.0,0.0,0.0,0.0,0.0,0.0,0.0,0.0,0.0,0.0,0.0,0.0,0.0,0.0,0.0,2.5125,0.0,0.0,0.0,0.0,0.0,0.0,0.0,0.0,0.0,0.0,0.0,0.0,0.0,0.0,0.0,0.0,0.0,0.0,0.0,0.0,0.0,0.0,0.0,0.0,0.0,0.0,0.0,0.0,0.0,0.0,0.0,0.0,0.0,0.0,0.0,0.0,0.0,0.0,0.0,0.0,0.0,2.4226,2.6527,2.807,2.8551,2.8724,2.8524,2.7863,2.7255,2.6119,2.4235,2.16,0.0,0.0,0.0,0.0,0.0,0.0,0.0,0.0,0.0,0.0,0.0,0.0,0.0,0.0,0.0,0.0,0.0,0.0,0.0,0.0,0.0,0.0,0.0,0.0,0.0,0.0,0.0,0.0,0.0,0.0,0.0,0.0,0.0,0.0,0.0,0.0,0.0,0.0,0.0,0.0,0.0,0.0,0.0,0.0,0.0,0.0,0.0,0.0,0.0,0.0,0.0,0.0,0.0,0.0,0.0,0.0,0.0,0.0,0.0,0.0,2.6374,0.0,0.0,0.0,0.0,0.0,0.0,0.0,0.0,0.0,0.0,0.0,0.0,0.0,0.0,0.0,0.0,0.0,0.0,0.0,0.0,0.0,0.0,0.0,0.0,0.0,0.0,0.0,0.0,0.0,0.0,0.0,0.0,0.0,0.0,0.0,0.0,0.0,0.0,0.0,0.0,2.3875,2.6253,2.7816,2.8136,2.843,2.8364,2.7749,2.7295,2.6279,2.4497,2.2178,0.0,0.0,0.0,0.0,0.0,0.0,0.0,0.0,0.0,0.0,0.0,0.0,0.0,0.0,0.0,0.0,0.0,0.0,0.0,0.0,0.0,0.0,0.0,0.0,0.0,0.0,0.0,0.0,0.0,0.0,0.0,0.0,0.0,0.0,0.0,0.0,0.0,0.0,0.0,0.0,0.0,0.0,0.0,0.0,0.0,0.0,0.0,0.0,0.0,0.0,0.0,0.0,0.0,3.2515,3.3121,3.3574,3.3496,3.3691,3.3929,3.1016,2.9648,2.9414,2.8523,0.0,0.0,0.0,0.0,0.0,0.0,0.0,0.0,0.0,0.0,0.0,0.0,0.0,0.0,0.0,0.0,0.0,0.0,0.0,0.0,0.0,0.0,0.0,0.0,3.1269,3.105,2.9121,0.0,0.0,0.0,0.0,0.0,0.0,0.0,0.0,0.0,0.0,0.0,2.3633,2.603,2.7522,2.7682,2.815,2.8243,2.7736,2.7449,2.658,2.4853,2.2916,2.1058,0.0,0.0,0.0,0.0,0.0,0.0,0.0,0.0,0.0,0.0,0.0,0.0,0.0,0.0,0.0,0.0,0.0,0.0,0.0,0.0,0.0,0.0,0.0,0.0,0.0,0.0,0.0,0.0,0.0,0.0,0.0,0.0,2.4383,2.4789,0.0,0.0,0.0,0.0,0.0,0.0,0.0,0.0,0.0,0.0,0.0,0.0,0.0,3.0493,3.2109,3.3043,3.4118,3.5335,3.5432,3.592,3.6699,3.6345,3.6404,3.6738,3.5935,0.0,3.167,3.0405,0.0,0.0,0.0,0.0,0.0,0.0,0.0,0.0,0.0,0.0,0.0,0.0,0.0,0.0,0.0,0.0,0.0,0.0,0.0,0.0,0.0,0.0,3.23,3.375,3.4141,3.4414,0.0,3.2808,3.0547,3.0845,2.9097,0.0,0.0,0.0,0.0,0.0,0.0,0.0,2.4271,2.5749,2.6854,2.7615,2.7776,2.7789,2.7709,2.7449,2.6754,2.5459,2.3705,2.2141,2.0853,1.881,0.0,0.0,0.0,0.0,0.0,0.0,0.0,0.0,0.0,0.0,0.0,0.0,0.0,0.0,0.0,0.0,0.0,0.0,0.0,0.0,0.0,0.0,0.0,0.0,0.0,0.0,0.0,0.0,0.0,2.5164,2.5847,2.5832,2.6028,2.5977,0.0,0.0,0.0,0.0,0.0,0.0,0.0,0.0,0.0,3.0318,3.1665,3.3105,3.4573,3.5954,3.7166,3.8203,3.8691,3.9238,3.9824,3.9667,3.9785,4.0137,3.9726,3.8553,3.6641,3.3867,3.209,3.0937,0.0,0.0,0.0,0.0,2.8769,2.9559,2.9961,3.0019,2.9824,2.9355,0.0,0.0,0.0,0.0,0.0,0.0,0.0,0.0,0.0,0.0,3.4648,3.5859,3.633,3.6738,3.7576,3.6211,3.4609,0.0,3.2072,2.9982,2.7701,0.0,0.0,0.0,0.0,2.2413,2.4291,2.5492,2.6433,2.7134,2.7495,2.7783,2.7957,2.7563,2.6994,2.6273,2.4922,2.3598,2.2388,2.0857,1.9293,0.0,0.0,0.0,0.0,0.0,0.0,0.0,0.0,0.0,0.0,0.0,0.0,0.0,0.0,0.0,0.0,0.0,0.0,0.0,0.0,0.0,0.0,0.0,0.0,0.0,0.0,0.0,0.0,2.6523,2.7331,2.7376,2.7734,2.7702,0.0,0.0,0.0,0.0,0.0,0.0,2.976,3.0503,3.1426,3.2621,3.4137,3.5485,3.6643,3.8182,3.9315,4.0059,4.0839,4.1406,4.1797,4.1914,4.2109,4.2382,4.207,4.1543,4.0567,3.7226,3.5039,3.3668,3.2261,3.1382,3.0913,3.0996,3.1465,3.2109,3.2504,3.2812,3.2906,3.2261,3.1348,3.0312,2.9141,0.0,0.0,0.0,0.0,3.0913,3.3066,3.4964,3.6565,3.7559,3.8105,3.8555,3.9003,3.8633,3.7736,0.0,3.459,3.2766,3.0103,0.0,0.0,0.0,0.0,2.3486,2.4729,2.5533,2.6252,2.6867,2.7321,2.7756,2.8173,2.7643,2.7155,2.682,2.5732,2.4601,2.347,2.2315,2.0837,1.9006,0.0,0.0,0.0,0.0,0.0,0.0,0.0,0.0,0.0,0.0,0.0,0.0,0.0,0.0,0.0,0.0,0.0,0.0,0.0,0.0,0.0,0.0,0.0,0.0,0.0,0.0,0.0,0.0,0.0,2.9877,3.041,0.0,0.0,0.0,0.0,3.1157,3.1695,3.2511,3.3743,3.4215,3.4863,3.5745,3.666,3.7576,3.8456,3.9394,4.0059,4.0469,4.0976,4.1406,4.1816,4.2187,4.2382,4.2402,4.2382,4.2128,4.1582,3.9746,3.8006,3.6326,3.4606,3.4137,3.4355,3.3539,3.4062,3.5234,3.5628,3.5547,3.5234,3.5192,3.3476,3.1274,3.0371,3.0059,0.0,0.0,3.23,3.3125,3.5276,3.6526,3.7559,3.8809,3.9453,3.9902,4.0313,3.9746,3.8633,0.0,3.6191,3.494,3.2123,0.0,2.8496,2.7476,2.6016,2.5317,2.6105,2.6069,2.6332,2.7168,2.7309,2.7563,2.816,2.7643,2.7155,2.682,2.5732,2.4695,2.3799,2.2622,2.1415,2.0233,1.8891,0.0,0.0,0.0,0.0,0.0,0.0,0.0,0.0,0.0,0.0,0.0,0.0,0.0,0.0,0.0,0.0,0.0,0.0,0.0,0.0,0.0,0.0,0.0,0.0,0.0,0.0,0.0,0.0,3.1377,3.209,0.0,3.227,3.2398,3.2789,3.3516,3.4508,3.5424,3.613,3.6543,3.715,3.8047,3.8652,3.9258,3.9824,4.0429,4.0937,4.1348,4.1777,4.2207,4.2657,4.3047,4.3222,4.3222,4.3222,4.3008,4.2598,4.1973,4.0371,3.8184,3.7012,3.6309,3.5974,3.5937,3.6055,3.6287,3.6699,3.6738,3.6582,3.6326,3.5019,3.3516,3.3184,3.2519,3.2105,3.3121,3.3707,3.4453,3.6348,3.7676,3.8789,3.9786,4.0391,4.0625,4.0195,3.9863,3.9219,3.7754,3.7578,3.7014,3.4884,3.3501,3.2264,3.0978,2.8705,2.7255,2.7617,2.6836,2.6526,2.7229,2.7449,2.773,2.8152,2.7643,2.7155,2.682,2.5732,2.485,2.4342,2.3363,2.2383,2.1411,2.05,1.9704,0.0,0.0,0.0,0.0,0.0,0.0,0.0,0.0,0.0,0.0,0.0,0.0,0.0,0.0,0.0,0.0,0.0,0.0,0.0,0.0,0.0,0.0,0.0,0.0,0.0,0.0,3.2765,3.3503,3.4354,3.4827,3.4705,3.4958,3.5432,3.6147,3.7016,3.7696,3.8125,3.8138,3.8457,3.918,3.9492,3.9941,4.0489,4.0976,4.1406,4.1797,4.2207,4.2656,4.3106,4.3516,4.3711,4.3711,4.3711,4.3555,4.3302,4.3165,4.209,4.043,3.957,3.8711,3.7987,3.7949,3.7693,3.7361,3.7461,3.75,3.7461,3.7187,3.6504,3.5762,3.5625,3.498,3.4473,3.5176,3.5566,3.6113,3.7559,3.8691,3.9629,4.0332,4.0859,4.0957,4.0078,3.9551,3.8946,3.8068,3.8281,3.8104,3.6504,3.5625,3.4638,3.323,3.0583,2.8723,2.8633,2.7387,2.672,2.7255,2.7542,2.7797,2.8018,2.7476,2.6968,2.656,2.5344,2.4502,2.4172,2.3323,2.2645,2.2212,2.167,2.0991,2.0192,0.0,0.0,0.0,0.0,0.0,0.0,0.0,0.0,0.0,0.0,0.0,0.0,0.0,0.0,0.0,0.0,0.0,0.0,0.0,0.0,0.0,0.0,0.0,3.1473,3.3897,3.5853,3.632,3.7283,3.7765,3.7358,3.7375,3.7903,3.9121,3.9222,3.9407,3.9827,3.9047,3.8788,3.916,3.918,3.9609,4.0469,4.0957,4.1426,4.1816,4.2226,4.2676,4.3126,4.3516,4.3711,4.3711,4.3711,4.3711,4.3672,4.3282,4.3126,4.3028,4.2148,4.1289,4.041,3.9552,3.9003,3.8573,3.8107,3.797,3.797,3.797,3.7951,3.7853,3.7441,3.7285,3.7344,3.7736,3.7853,3.8048,3.8926,3.9512,3.998,4.0391,4.0859,4.0957,4.0078,3.8849,3.7931,3.7931,3.8281,3.82,3.6951,3.6367,3.5581,3.408,3.1613,0.0,2.912,2.7736,2.6934,2.7282,2.7556,2.7709,2.7696,2.7127,2.656,2.6011,2.4579,2.3612,2.3278,2.2432,2.2173,2.2668,2.2354,2.1836,2.1153,0.0,0.0,0.0,0.0,0.0,0.0,0.0,0.0,0.0,0.0,0.0,0.0,0.0,0.0,0.0,0.0,0.0,0.0,0.0,0.0,0.0,3.3205,3.4669,3.39,3.593,3.7713,3.8326,3.9329,4.0083,4.0365,4.0961,4.1476,4.1828,4.212,4.1842,4.0808,3.9389,3.8651,3.8768,3.8768,3.9198,4.0059,4.1113,4.1836,4.2246,4.2695,4.3125,4.3535,4.3652,4.3711,4.3711,4.3711,4.3711,4.3691,4.3574,4.3535,4.3437,4.2598,4.1738,4.0996,4.0742,4.0175,3.9512,3.9394,3.9355,3.9355,3.9355,3.8926,3.832,3.7873,3.7092,3.6369,3.6487,3.6526,3.6799,3.7951,3.881,3.959,4.0332,4.0859,4.0957,4.0078,3.9101,3.8416,3.8416,3.8242,3.797,3.7619,3.7734,3.7253,3.5389,3.2497,0.0,2.9812,2.8004,2.6994,2.7522,2.7863,2.7957,2.7722,2.6961,2.6192,2.539,2.3545,2.2539,2.2642,2.1617,2.2045,2.4144,2.4298,2.4373,0.0,0.0,0.0,0.0,0.0,0.0,0.0,0.0,0.0,0.0,0.0,0.0,0.0,0.0,0.0,0.0,0.0,0.0,0.0,0.0,0.0,0.0,3.6604,3.841,3.8401,3.9454,4.0374,4.0678,4.1507,4.2202,4.2516,4.3194,4.3608,4.3653,4.37,4.3009,4.1436,3.9613,3.8592,3.8592,3.8592,3.9022,3.9883,4.1015,4.1836,4.2382,4.2676,4.3125,4.3711,4.3711,4.3711,4.3711,4.3711,4.3711,4.3711,4.3711,4.3711,0.0,0.0,0.0,0.0,0.0,4.0644,3.9922,4.0098,4.0156,4.0156,4.0156,3.9687,3.9003,3.8146,3.7014,3.592,3.555,3.5198,3.5218,3.6506,3.7637,3.8672,3.9726,4.0586,4.0957,4.0078,3.9062,3.8359,3.8553,3.8223,0.0,3.8164,3.8262,3.7679,3.5869,3.2863,3.0559,2.9874,2.7939,2.6867,2.7476,2.7797,2.7884,2.7569,2.6847,0.0,0.0,0.0,2.2221,2.1867,2.1895,0.0,0.0,0.0,0.0,0.0,0.0,0.0,0.0,2.3892,2.4677,0.0,0.0,0.0,0.0,0.0,0.0,0.0,0.0,0.0,0.0,0.0,0.0,0.0,0.0,0.0,0.0,3.9814,4.2005,4.3538,4.371,4.3542,4.3177,4.3703,4.4136,4.4211,4.4712,4.5015,4.4976,4.4497,4.3486,4.1861,0.0,0.0,0.0,0.0,3.9022,3.9883,4.082,4.1641,4.2402,4.246,4.2909,4.3711,4.3711,4.3711,4.3711,4.3711,4.3711,4.3711,4.3711,4.3711,4.3691,4.3652,4.3398,4.295,4.1777,4.0859,4.0234,4.0586,0.0,0.0,4.0664,4.0351,3.9726,3.838,3.7053,3.5823,3.4941,3.4105,3.3793,3.5117,3.6406,3.7695,3.8984,4.0273,4.0976,4.0137,3.9004,3.8244,3.8671,3.8418,3.8244,3.8557,3.8284,3.7486,3.5814,3.2847,3.0464,2.9506,2.7592,2.654,2.7128,0.0,0.0,2.7262,2.67,2.5852,2.4666,2.3487,2.2315,2.1162,2.2743,2.4338,2.5755,2.7042,2.8191,2.9193,2.925,2.9317,2.9365,2.7223,2.7446,0.0,0.0,0.0,0.0,0.0,0.0,0.0,0.0,0.0,0.0,0.0,0.0,0.0,0.0,0.0,3.909,4.1512,4.361,4.5221,4.6499,4.6729,4.5252,4.5697,4.6159,4.6222,4.7076,4.7354,4.6754,4.5994,4.4546,4.2304,3.9905,3.8592,3.8592,3.8592,3.9022,3.9883,4.1074,4.1933,4.2382,4.2773,0.0,4.3711,4.3711,4.3711,4.3711,4.3711,4.3711,4.3711,4.3711,4.3711,4.3672,4.334,4.3165,4.3028,4.2402,4.205,4.1933,4.2011,4.2031,4.1972,4.164,4.1035,4.0137,3.8848,3.7305,0.0,3.4941,3.4336,3.4254,3.555,3.6838,3.8126,3.9453,4.0507,4.1054,4.0489,3.9941,3.9531,3.9629,3.957,3.9322,3.8696,3.8802,3.8082,3.5572,3.2781,3.0413,2.89,2.6942,2.5905,2.6513,2.7048,2.7248,2.6914,2.6393,2.5657,2.4653,2.3283,2.2084,2.1133,2.2971,2.4899,2.6841,2.8183,2.9773,3.1621,3.1964,3.246,3.311,3.068,3.0214,0.0,0.0,0.0,0.0,0.0,0.0,0.0,0.0,0.0,0.0,0.0,3.5278,3.72,0.0,3.9281,4.1479,4.3104,4.4669,4.6303,4.7789,4.8297,4.7231,4.7456,4.7713,4.7795,4.8469,4.8585,4.7868,4.6994,4.5557,4.336,4.1091,3.9755,3.9552,3.9545,3.9766,4.0195,4.1269,4.1992,4.2402,4.2656,4.3086,4.3711,4.3711,4.3711,4.3711,4.3711,4.3711,4.3711,4.3711,4.3711,4.3691,4.3476,4.3398,4.3359,4.3144,4.3046,4.3046,4.3046,4.3046,4.2948,4.2304,4.166,4.0879,3.9374,3.7713,3.6211,3.5547,3.4762,3.4391,3.5667,3.6955,3.8185,3.9297,4.039,4.1133,4.0898,4.0684,4.0546,4.0546,4.0546,4.0218,3.9142,3.8478,3.7276,3.4867,3.2159,2.9928,2.8616,2.6725,2.5852,2.6754,2.7115,2.7288,2.7255,2.6319,2.5424,2.4653,2.3492,2.2588,2.2021,2.3643,2.5323,2.6916,2.8626,3.0467,3.239,3.2974,3.3804,3.4813,3.3737,3.35,0.0,0.0,0.0,0.0,0.0,0.0,0.0,0.0,3.4308,3.5978,3.7819,3.9525,4.0753,4.1144,4.1903,4.3733,4.4692,4.5735,4.7288,4.8606,4.9263,4.8908,4.8918,4.8944,4.9003,4.9458,4.9401,4.8667,4.7822,4.6522,4.4644,4.2646,4.1341,4.0873,4.0796,4.0723,4.0625,4.1406,4.1953,4.2285,4.2285,4.2695,4.3457,4.3457,4.3496,4.3594,4.3672,4.3711,4.3711,4.3711,4.3711,4.3711,4.3711,4.3711,4.3711,4.3711,4.3711,4.3711,4.3711,4.3711,4.3574,4.2675,4.207,4.1367,3.9707,3.8125,3.6834,3.6387,3.5508,3.4997,3.6191,3.7326,3.8361,3.9258,4.0351,4.1191,4.1191,4.1191,4.1191,4.1191,4.1191,4.0763,3.9413,3.7896,3.6142,3.4087,3.1392,2.9251,2.8324,2.6625,2.5919,2.7008,2.7242,2.7382,2.7589,2.6426,2.5419,2.4813,2.4017,2.3429,2.3174,2.4327,2.5505,2.6647,2.8594,3.0515,3.2419,3.3326,3.4452,3.5737,3.6187,3.634,2.6912,2.9434,3.2497,3.3736,3.464,3.5569,0.0,0.0,3.7688,3.9616,4.1322,4.2491,4.2596,4.3447,4.4373,4.5087,4.6179,4.7313,4.8455,4.9718,5.0335,4.9813,4.976,4.9767,4.9791,5.0278,5.0252,4.9437,4.8639,4.7466,4.5878,4.4165,4.2914,4.221,4.1836,4.1484,4.1133,4.1562,4.1816,4.1875,4.1875,4.2109,4.2558,4.2558,4.2773,4.3184,4.3535,4.3711,4.3711,4.3711,4.3711,4.3711,4.3711,4.3711,4.3711,4.3711,4.3711,4.3711,4.3711,4.3711,4.3574,4.2675,4.1894,4.1015,3.9609,3.8535,3.7677,3.7266,3.7051,3.7148,3.8065,3.8672,3.9259,4.0157,4.0781,4.1191,4.1191,4.1191,4.1191,4.1191,4.1191,4.0686,3.9052,3.7442,3.5674,3.3669,3.0776,2.8523,2.7614,2.6334,2.5758,2.6433,2.6981,2.7302,2.7329,2.67,2.6039,2.5432,2.4799,2.4337,2.4062,2.4551,2.536,2.6497,2.8037,2.993,3.2158,3.366,3.5144,3.6605,3.741,3.755,2.9643,3.2061,3.4748,0.0,3.7419,3.8895,3.9496,4.037,4.1475,4.291,4.4219,4.519,4.5472,4.5645,4.6155,0.0,4.8019,4.8925,5.0352,5.1163,5.1195,5.0033,4.9359,4.9078,4.939,4.9631,4.9669,4.9393,4.9142,4.8422,4.7112,4.5977,4.4901,4.3893,4.3495,4.2982,4.2309,4.2189,4.2148,4.2148,4.2148,4.2363,4.2812,4.3047,4.3262,4.3457,4.3633,4.3711,4.3711,4.3711,4.3711,4.3711,4.3711,4.3711,4.3711,4.3711,4.3711,4.3711,4.3711,4.3711,4.3574,4.2675,4.2011,4.1348,4.0274,3.9337,3.8691,3.8789,3.8809,3.8945,3.9551,4.0019,4.0468,4.082,4.1054,4.1191,4.1191,4.1191,4.1191,4.1191,4.1191,4.0744,3.9299,3.6943,3.4723,3.3184,3.0431,2.8286,2.7657,2.6655,2.6306,2.7088,2.7563,2.775,2.7556,2.6974,2.6466,2.6052,2.5459,2.4925,2.4457,2.519,2.5991,2.6771,2.848,3.0477,3.2803,3.4145,3.5586,3.7103,3.7667,3.7982,3.243,3.457,0.0,3.8184,4.0111,4.1803,4.2332,4.3326,4.4434,4.544,4.6157,4.6777,4.7237,4.7041,4.7398,4.9104,4.9718,5.0491,5.2024,5.2514,5.2133,5.0539,4.927,4.8572,4.8644,4.8669,4.8814,4.9232,4.9617,4.9365,4.8318,4.7708,4.6755,4.545,4.4969,4.426,4.328,4.282,4.2519,4.2402,4.2402,4.2577,4.291,4.334,4.3535,4.3535,4.3652,4.3711,4.3711,4.3711,4.3711,4.3711,4.3711,4.3711,4.3731,4.3959,4.4042,4.4062,4.4206,4.4309,4.4292,4.3538,4.2942,4.2327,4.1477,4.0513,3.9769,3.9992,4.0075,4.0118,4.043,4.084,4.1191,4.1191,4.1191,4.1191,4.1191,4.1191,4.1191,4.1191,4.1191,4.0802,3.9527,3.6702,3.4237,3.3018,3.0205,2.8056,2.762,2.7036,2.6954,2.7756,2.8058,2.8098,2.7863,2.7362,2.6974,2.676,2.6119,2.5539,2.5112,2.591,2.6649,2.7254,2.904,3.1071,3.331,3.4469,3.5844,3.7409,3.7759,3.8231,3.4882,0.0,3.8614,4.1044,4.2491,4.3831,4.5724,4.599,4.6059,4.6862,4.6859,4.6791,4.7062,4.7318,4.8113,5.0036,5.1073,5.2021,5.3186,5.3563,5.3178,5.1634,5.004,4.8669,0.0,4.7545,4.7978,4.9036,5.0077,5.0299,4.9491,4.9174,4.8308,4.6698,4.5948,4.4958,4.3698,4.3296,4.2851,4.2402,4.2402,4.2421,4.2441,4.2891,4.3126,4.3145,4.3535,4.3711,4.3711,4.3711,4.3711,4.3711,4.3711,4.3711,4.3814,4.4637,4.4965,4.5026,4.5474,4.5881,4.6142,4.5748,4.4982,4.4077,4.3259,4.2106,4.0967,4.0577,4.0479,4.0489,4.0508,4.084,4.1191,4.1191,4.1191,4.1191,4.1191,4.1191,4.1191,4.1191,4.1191,4.0802,3.9527,3.6897,3.4572,3.3362,3.0078,2.7605,2.7252,2.7253,2.751,2.8133,2.8179,2.82,2.82,2.7863,2.7669,2.7655,2.6841,2.636,2.6353,2.6628,2.7169,2.7937,2.9561,3.1355,3.3293,3.452,3.5887,3.741,3.7815,3.8422,3.6194,3.8482,4.0473,4.2395,4.4631,4.6556,4.7224,4.7895,4.8224,4.7726,4.6818,4.6246,4.6686,4.7131,4.8259,5.0738,5.2371,5.3733,5.4832,5.5478,5.5145,5.3187,5.1865,0.0,0.0,0.0,0.0,4.7954,4.9366,4.9977,4.9509,4.9887,4.9344,4.7679,4.6601,4.5573,4.4563,4.3592,4.3028,4.2851,4.2851,4.3008,4.3261,4.3437,4.3496,4.3496,4.3633,4.3711,4.3711,4.3711,4.3711,4.3711,4.3711,4.3711,4.3836,4.5026,4.5982,4.6749,4.691,4.739,4.7881,4.7428,4.6887,4.6165,4.4732,4.3212,4.174,4.0717,4.0272,4.0098,4.0098,4.0664,4.1191,4.1191,4.1191,4.1191,4.1191,4.1191,4.1191,4.1191,4.1191,4.088,3.9869,3.7272,3.4075,3.0378,2.8599,2.7602,2.7308,2.7284,2.7536,2.8146,2.82,2.82,2.82,2.789,2.7696,2.7696,2.7054,2.6587,2.6419,2.7081,2.8114,2.9499,3.1115,3.3139,3.5625,3.6619,3.7465,3.822,3.8942,3.9245,3.8554,4.0895,4.2849,4.4581,4.6631,4.8259,4.846,4.8912,4.8953,4.7606,4.588,4.4888,4.5739,4.5937,4.7165,5.083,5.2809,5.4451,5.6076,5.6978,5.6799,5.5,5.3711,5.1908,0.0,0.0,0.0,4.688,4.8428,4.9284,4.9167,5.0058,4.9823,4.8162,4.6917,4.5881,4.5005,4.3888,4.3321,4.3321,4.3321,4.3437,4.3711,4.3711,4.3711,4.3711,4.3711,4.3711,4.3711,4.3711,4.3711,4.3711,4.3711,4.3711,4.3897,4.5373,4.6809,4.8067,4.8206,4.8919,4.9657,4.921,4.8673,4.7852,4.6133,4.4332,4.2582,4.1242,4.0503,4.0117,4.0117,4.0644,4.1191,4.1191,4.1191,4.1191,4.1191,4.1191,4.1152,4.0977,4.0938,4.0587,3.941,3.6658,3.3162,2.8916,2.8135,2.7864,2.7357,2.7382,2.7643,2.816,2.82,2.82,2.82,2.8005,2.7877,2.7877,2.7402,2.7034,2.6867,2.7942,2.9409,3.1226,3.2877,3.502,3.7696,3.811,3.8556,3.9067,3.9485,3.9673,4.1836,4.3927,4.563,4.7479,4.8426,4.9003,4.9455,4.9129,4.825,4.6527,4.4122,4.2771,0.0,0.0,4.4972,5.026,5.2347,5.4198,5.6786,5.7957,5.8127,0.0,0.0,0.0,0.0,0.0,0.0,4.6062,4.7473,4.8437,4.8645,4.9799,4.9746,4.8148,4.6877,4.5819,4.4985,4.4124,4.3711,4.3711,4.3711,4.3711,4.3711,4.3711,4.3711,4.3711,4.3711,4.3711,4.3711,4.3711,4.3711,4.3711,4.3731,4.3752,4.398,4.5718,4.743,4.8956,4.9452,5.0452,5.1462,5.1041,5.0255,4.9179,4.7484,4.5458,4.3497,4.2134,4.1197,4.0567,4.0547,4.0879,4.123,4.1191,4.1191,4.1191,4.1191,4.1191,4.1075,4.0588,4.0412,3.9805,3.8066,3.5117,3.1983,2.9054,2.8626,2.8301,2.7424,2.7542,2.7837,2.8152,2.82,2.82,2.82,2.82,2.82,2.82,2.7911,2.7737,2.7779,2.9174,3.0947,3.3034,3.4685,3.6779,3.9312,3.8939,3.9141,3.9894,3.9547,3.9795,4.361,4.6069,4.7955,4.8435,4.9305,4.9816,4.9154,4.8551,4.7431,4.4945,4.229,4.0659,0.0,0.0,0.0,4.7942,5.1228,0.0,5.6272,5.8221,0.0,5.8428,0.0,5.5243,5.2971,4.9803,0.0,0.0,4.8452,4.9026,4.9321,4.9897,4.9449,4.778,4.6162,4.5087,4.4555,4.4,4.3711,4.3711,4.3711,4.3711,4.3711,4.3711,4.3711,4.3711,4.3711,4.3711,4.3711,4.3711,4.3711,4.3731,4.4082,4.4391,4.4883,4.6629,4.8327,4.992,5.0995,5.2149,5.3086,5.2383,5.1559,5.0442,4.8427,4.6331,4.4406,4.3045,4.209,4.1406,4.1113,4.1328,4.1562,4.1269,4.1191,4.1191,4.1191,4.1191,4.1075,4.0588,3.9197,3.7354,3.4977,3.3406,3.1675,2.9332,2.8928,2.8578,2.7713,2.7655,2.7837,2.8152,2.82,2.82,2.82,2.82,2.82,2.82,2.8203,2.8372,2.8669,3.0073,3.1855,3.3929,3.5319,3.7114,3.9312,3.9494,3.9697,3.9913,4.0472,4.0646,4.528,4.7348,4.8868,4.9079,4.959,4.9766,4.8677,4.7597,4.6075,4.3274,4.0526,0.0,3.9647,3.9998,4.1768,0.0,0.0,0.0,5.5304,5.7118,5.8199,0.0,5.7025,0.0,5.4007,5.1554,4.9968,0.0,4.9318,4.9165,4.9333,4.9461,4.8761,4.7091,4.5352,4.4309,4.4103,4.3835,4.3711,4.3711,4.3711,4.3711,4.3711,4.3711,4.3711,4.3711,4.3711,4.3711,4.3711,4.3711,4.3711,4.3773,4.4411,4.5046,4.5779,4.7491,4.9175,5.0775,5.1881,5.2954,5.3653,5.2669,5.1628,5.0372,4.8233,4.6245,4.4494,4.3357,4.2586,4.2011,4.1777,4.1894,4.2012,4.1777,4.1719,4.1719,4.1719,4.1719,4.1363,4.0135,3.8188,3.6004,3.3749,3.2561,3.1296,2.9398,2.9075,2.8689,2.7646,2.7756,2.8005,2.8186,2.82,2.82,2.82,2.82,2.82,2.82,2.8639,2.9167,2.9775,3.1309,3.3157,3.5275,3.6416,3.8012,4.0094,4.0143,4.0368,4.0744,4.123,4.1308,4.6852,4.8159,4.9104,4.949,4.964,4.9339,4.8008,4.6376,4.4342,4.1453,0.0,3.706,3.8316,3.9019,4.1028,4.607,0.0,5.2059,5.4092,5.5333,5.6221,5.6722,5.6061,5.5287,5.4548,5.34,5.2489,5.1941,5.0556,4.9594,4.9305,4.9086,4.8105,4.6205,4.4617,4.3773,4.3711,4.3711,4.3711,4.3711,4.3711,4.3711,4.3711,4.3711,4.3711,4.3711,4.3711,4.3711,4.3711,4.3711,4.3711,4.3774,4.4719,4.5657,4.6688,4.8345,5.0037,5.1605,5.2398,5.3181,5.3596,5.2326,5.1034,4.9537,4.7437,4.5626,4.414,4.3379,4.2899,4.2558,4.2499,4.2499,4.248,4.2421,4.2402,4.2402,4.2402,4.2301,4.1538,3.9266,3.7293,3.5361,3.338,3.2174,3.0925,2.9344,2.9095,2.8654,2.7472,2.775,2.8085,2.8125,2.8125,2.8138,2.82,2.82,2.82,2.82,2.9083,3.0025,3.0933,3.2649,3.4576,3.6671,3.7621,3.9036,4.0942,4.0643,4.0947,4.1797,4.1797,4.1836,4.8284,4.9289,5.0042,4.969,4.9941,4.9599,4.7139,4.4959,0.0,0.0,3.6031,3.4421,3.6468,3.7261,3.9434,4.4895,4.8497,5.1197,5.2945,5.3763,5.4548,0.0,5.4868,5.4597,5.539,5.5045,0.0,0.0,5.3377,5.2358,5.0907,5.0223,4.8442,4.5332,4.4596,4.4103,4.3711,4.3711,4.3711,4.3711,4.3711,4.3711,4.3711,4.3711,4.3711,4.3711,4.3711,0.0,4.3711,4.3711,4.3711,4.3835,4.5087,4.6305,4.7569,4.9256,5.0934,5.2436,5.2935,5.3408,5.3559,5.1996,5.0368,4.8697,4.6925,4.519,4.378,4.364,4.3538,4.3398,4.3047,4.2989,4.2871,4.248,4.2402,4.2402,4.2402,4.1839,4.0548,3.7953,3.6571,3.4936,3.2125,3.1467,3.0833,2.9324,2.9095,2.8654,2.7472,2.7389,2.7529,2.7749,2.7797,2.7903,2.8186,2.82,2.82,2.82,2.939,3.063,3.183,3.3592,3.5413,3.7233,3.8074,3.9026,4.011,4.0369,4.0955,4.1797,4.1797,4.1992,4.9053,5.0017,5.072,5.0167,4.9791,4.8837,4.606,0.0,0.0,0.0,3.4539,3.3219,3.5164,3.6445,0.0,4.3427,4.722,4.9841,5.0645,5.1473,5.2427,5.3557,5.3582,5.4091,0.0,5.62,5.6206,5.5402,5.4646,5.3537,5.1994,5.0333,4.8286,4.5759,4.5067,4.4371,4.3711,4.3711,4.3711,4.3711,4.3711,4.3711,4.3711,4.3711,4.3711,4.3711,4.3711,4.3711,4.3711,4.3711,4.3711,4.3855,4.5413,4.693,4.8423,5.0137,5.1824,5.3257,5.3446,5.3634,5.3615,5.2398,5.0876,4.9109,4.7193,4.5431,4.3973,4.3512,4.3209,4.3047,4.3087,4.3106,4.3106,4.3086,4.3086,4.3086,4.3086,4.2392,4.0954,3.8212,3.6833,3.5209,3.2335,3.1681,3.119,3.0097,2.978,2.9325,2.8359,2.8235,2.8105,2.7744,2.7696,2.7837,2.8186,2.82,2.82,2.82,2.9663,3.128,3.3028,3.5021,3.7026,3.8973,3.9634,4.0246,4.0904,4.1083,4.1517,4.2109,4.2363,4.2578,4.9941,5.087,5.1448,5.0603,4.949,4.7823,4.478,4.1441,0.0,3.5531,3.3222,3.2204,3.385,3.5454,3.7776,0.0,4.5336,4.7848,4.82,4.8987,5.0076,0.0,5.2512,0.0,5.555,5.7223,0.0,5.6486,5.5231,5.3866,5.2425,5.0098,4.8048,4.6345,4.5454,4.4576,4.3711,4.3711,4.3711,4.3711,4.3711,4.3752,4.3855,4.3752,4.3752,4.3855,4.3752,4.3711,4.3711,4.3814,4.3917,4.4145,4.5901,4.7589,4.929,5.0937,5.2497,5.3803,5.3803,5.3803,5.3672,5.2854,5.1589,4.9989,4.7932,4.6063,4.4482,4.362,4.298,4.2616,4.3008,4.3165,4.3321,4.3633,4.3711,4.3711,4.3711,4.3007,4.1586,3.8833,3.7404,3.5741,3.2967,3.2222,3.1742,3.0937,3.0522,3.0039,2.9298,2.9214,2.8938,2.8279,2.8175,2.8317,2.867,2.8697,2.874,2.8846,3.0498,3.2389,3.4445,3.6583,3.8649,4.0601,4.1102,4.1475,4.1817,4.1879,4.21,4.2421,4.2871,4.3106,5.1574,5.231,5.2385,5.0804,4.9172,4.7004,4.3288,0.0,3.6066,3.3793,3.1547,3.0507,3.2129,3.3409,0.0,0.0,0.0,4.4794,4.6326,4.6612,4.7641,5.0252,0.0,0.0,5.592,5.8296,5.9052,5.7499,5.5373,5.3374,5.1605,4.985,4.8071,4.6366,4.5454,4.4575,4.3711,4.3711,4.3711,4.3711,4.3711,4.3938,4.4329,4.3897,4.3938,4.4308,4.3897,4.3711,0.0,4.4164,4.4535,4.5046,4.681,4.8506,5.0134,5.1459,5.2726,5.3803,5.3803,5.3803,5.3672,5.2854,5.1954,5.0869,4.915,4.7168,4.5322,4.4522,4.3676,4.3048,4.3087,4.3359,4.3652,4.3691,4.3711,4.3711,4.3711,4.3007,4.166,3.9136,3.7931,3.6423,3.3591,3.2895,3.2361,3.1325,3.0873,3.0388,2.9642,2.9558,2.9593,2.9768,2.9774,2.9921,3.0264,3.0292,3.0472,3.0902,3.2619,3.4408,3.6212,3.8044,3.9677,4.1115,4.1537,4.1758,4.1817,4.218,4.2362,4.2421,4.2871,4.3106,5.1595,5.3329,5.4166,5.1914,4.9478,4.6595,4.2815,3.8302,3.4461,3.2867,3.1095,3.0281,3.1903,3.2867,3.4561,3.809,0.0,0.0,4.4181,4.5171,4.6476,4.8218,4.99,0.0,0.0,0.0,5.758,5.6799,5.5166,5.3393,5.1572,5.0337,4.876,4.6719,4.586,4.4875,4.3711,4.3711,4.3711,4.3711,4.4,4.4226,4.4411,4.4452,4.4452,4.439,4.4205,4.4115,0.0,4.4891,4.5755,4.6763,4.8224,4.9813,5.1399,5.2113,5.2973,5.3803,5.3803,5.3803,5.3672,5.2854,5.184,5.0628,4.8954,4.6944,4.507,4.4218,4.3181,4.2442,4.2969,4.3398,4.3711,4.3711,4.3711,4.3789,4.4062,4.3411,4.2032,3.96,3.8372,3.6857,3.3999,3.3414,3.3121,3.2491,3.2157,3.1794,3.1303,3.1238,3.126,3.1368,3.0553,3.0196,3.0708,3.1295,3.2062,3.3006,3.4801,3.6749,3.8824,4.0094,4.1245,4.2325,4.2508,4.2433,4.216,4.2322,4.2402,4.2421,4.2871,4.3243,5.1898,5.4646,5.6019,5.314,4.993,4.6441,4.237,3.7273,3.3119,3.2154,3.0809,3.0181,3.1501,3.219,3.3506,3.6332,3.8869,4.0842,4.187,4.3313,4.478,4.6195,0.0,4.9314,5.1682,5.459,5.638,5.6612,5.5314,5.3641,5.1656,5.0451,4.8833,4.6619,4.5876,4.491,4.3711,4.3711,4.3711,4.3711,4.4185,4.4452,4.4575,4.4882,4.4923,4.478,4.4637,4.4651,0.0,4.5736,4.6866,4.816,4.9435,5.0889,5.2306,5.2653,5.3219,5.3785,5.3672,5.354,5.3295,5.234,5.109,4.9685,4.8104,4.6414,4.4822,4.3935,4.2982,4.2344,4.3087,4.3476,4.3711,4.3711,4.3808,4.4004,4.4336,4.3756,4.2459,4.0021,3.878,3.726,3.4474,3.3911,3.3736,3.3391,3.3092,3.2793,3.2493,3.2449,3.2449,3.2449,3.1562,3.1128,3.1547,3.25,3.3672,3.5099,3.6954,3.8985,4.1144,4.1961,4.2733,4.3476,4.336,4.3105,4.2792,4.2792,4.2714,4.2637,4.3066,4.3496,5.2956,5.638,5.7817,5.426,5.0509,4.6449,4.1699,3.6269,3.2054,3.1522,3.0542,2.9955,3.0522,3.106,3.1964,3.3671,3.5351,3.7222,3.9434,4.065,4.2167,0.0,0.0,4.6617,4.938,5.3266,5.6157,5.7481,5.5993,5.4041,5.1806,4.9998,4.7994,4.5772,4.5232,4.4597,4.3711,4.3711,4.3711,4.3711,4.4185,4.4596,4.4984,4.5005,4.525,4.5678,4.5189,4.527,0.0,4.6629,4.7692,4.8921,5.0196,5.1455,5.265,5.303,5.3446,5.3747,5.3332,5.2954,5.2398,5.1127,4.9607,4.7985,4.6713,4.5706,4.4821,4.3955,4.3399,4.3184,4.3594,4.3691,4.3711,4.3711,4.4062,4.4394,4.4394,4.3987,4.2867,4.0376,3.9121,3.7688,3.5127,3.4408,3.4072,3.375,3.3406,3.3107,3.2829,3.2785,3.2785,3.2785,3.3019,3.3187,3.3187,3.4112,3.5416,3.7152,3.9098,4.1024,4.2907,4.3429,4.3894,4.4394,4.3926,4.3691,4.3691,4.3691,4.3476,4.3106,4.3496,4.3945,4.9192,5.2864,5.4852,5.1133,4.7722,4.4281,4.0331,3.5675,3.2154,3.1978,3.11,3.0623,3.1526,3.1537,3.1949,3.3621,3.4965,3.6446,0.0,0.0,0.0,4.3876,4.6577,4.9402,0.0,0.0,5.5756,5.7086,5.5284,5.3427,5.1787,5.004,4.8025,4.5764,4.5237,4.4736,4.418,4.3867,4.3711,4.3711,4.4452,4.4882,4.5025,4.5617,4.582,4.5718,4.6165,4.6735,4.7472,4.8983,5.0493,5.1927,5.2624,5.3548,5.4444,5.3822,5.3906,5.4189,5.3148,5.2321,5.1451,4.99,4.7863,4.5833,4.4831,4.4129,4.359,4.2982,4.3152,4.3535,4.3672,4.3711,4.3711,4.3711,4.4062,4.4473,4.4744,4.4386,4.3466,4.1666,4.0271,3.8618,3.6158,3.5338,3.4714,3.384,3.3619,3.3355,3.2859,3.3073,3.3404,3.3712,3.4111,3.4147,3.3584,3.5317,3.7285,3.9357,4.1314,4.3239,4.5184,4.5125,4.4989,4.4803,4.4373,4.4023,4.3711,4.3711,4.3789,4.3984,4.4393,4.4844,4.5898,4.9457,5.1363,4.811,4.5139,4.2165,3.9026,3.5127,3.2204,3.2204,3.1351,3.0924,3.1993,3.1763,3.1873,3.3355,3.4173,3.5317,0.0,0.0,0.0,4.4754,0.0,0.0,0.0,5.4556,5.5662,5.6641,5.4998,5.3116,5.1306,4.987,4.8292,4.6502,4.6003,4.5549,4.5155,4.468,4.4463,4.4463,4.5003,4.525,4.5291,4.5982,4.6165,4.5962,4.669,4.7541,0.0,4.9954,5.1513,5.3117,5.37,5.4406,5.5049,5.4592,5.4496,5.4439,5.3343,5.2105,5.0837,4.9362,4.7025,4.4579,4.352,4.3022,4.2803,4.2719,4.3144,4.3711,4.3711,4.3711,4.3711,4.3711,4.4159,4.4686,4.494,4.4864,4.4275,4.2814,4.1504,3.9805,3.7185,3.6305,3.5444,3.3946,3.3706,3.3472,3.2873,3.336,3.3998,3.4619,3.5385,3.586,3.5854,3.7045,3.8744,4.0933,4.2716,4.4488,4.6243,4.592,4.5568,4.5273,4.4822,4.4471,4.4178,4.4178,4.4334,4.4648,4.5078,4.541,0.0,4.6056,4.7459,4.5146,4.268,4.0154,3.7689,3.4604,0.0,3.2254,3.1401,3.0999,3.2079,3.1788,3.1783,3.2964,3.319,3.417,0.0,3.9421,0.0,0.0,4.9373,0.0,5.297,5.4676,5.5824,5.6172,5.4951,5.3093,5.0548,4.9572,4.8715,4.7831,4.7386,4.6921,4.6436,4.5993,4.573,4.569,4.5738,4.5719,4.5719,4.6124,4.6307,4.6327,4.6811,4.7733,4.8962,4.9808,5.1134,5.2744,5.3641,5.4301,5.4784,5.5241,5.5121,5.4593,5.3748,5.224,5.0428,4.909,4.6681,4.4109,4.2816,4.2441,4.2577,4.3008,4.3477,4.3789,4.3789,4.3789,4.3789,4.3789,4.4432,4.5057,4.5057,4.5333,4.5191,4.3786,4.2716,4.1143,3.8288,3.74,3.6344,3.4257,3.3941,3.3743,3.3146,3.3898,3.4806,3.5692,3.6905,3.8194,3.9539,3.9233,3.9868,4.1963,4.3448,4.4864,4.6243,4.594,4.5744,4.5744,4.5311,4.5096,4.5096,4.5096,4.5096,4.5096,4.5527,4.5744,3.7375,0.0,4.3655,4.1173,3.9687,3.8232,0.0,3.4211,3.2889,0.0,0.0,0.0,0.0,0.0,0.0,3.3456,0.0,3.5303,3.8115,4.2585,0.0,5.1063,5.236,5.3582,5.5247,5.5986,5.6021,5.5221,5.4013,5.2452,5.0485,4.9572,4.8995,4.8779,4.8656,4.8048,4.6857,4.6456,4.6053,4.569,4.6064,4.6045,4.5719,4.6124,4.6307,4.6347,4.7112,4.7971,4.8899,5.0098,5.1608,5.3257,5.3798,5.475,5.5799,5.5506,5.5582,5.5541,5.3686,5.1848,4.9713,4.6127,4.4467,4.3679,4.2715,4.287,4.3418,4.3535,4.4121,4.4686,4.4686,4.4686,4.4686,4.4686,4.5137,4.5549,4.5549,4.5568,4.5409,4.4684,4.3467,4.1972,4.0129,3.9138,3.8092,3.6605,3.6383,3.6227,3.5812,3.6597,3.755,3.846,3.9472,4.0623,4.1954,4.1223,4.1395,4.297,4.4111,4.5191,4.6265,4.6211,4.6152,4.6152,4.6055,4.5996,4.5996,4.5996,4.5996,4.6016,4.6113,4.6152,3.5407,3.7563,3.9101,3.7779,3.6813,3.5887,3.4793,0.0,0.0,0.0,0.0,0.0,0.0,0.0,0.0,0.0,3.4951,0.0,0.0,0.0,5.0277,5.3658,5.4745,5.5673,5.6872,5.6754,5.5931,5.4317,5.3229,5.1816,4.9912,4.9358,4.9102,4.9102,4.9102,4.8721,4.7983,4.733,4.6861,4.6616,4.6434,4.6229,4.5982,4.6205,4.6307,4.6347,4.7233,4.819,4.9258,5.0756,5.2295,5.3763,5.4662,5.5484,5.6188,5.6135,5.6159,5.5952,5.4214,5.1862,4.9069,4.5472,4.4295,4.412,4.3261,4.3476,4.4023,4.4023,4.4491,4.5096,4.5486,4.5584,4.5584,4.5584,4.5937,4.625,4.625,4.6384,4.6451,4.6206,4.5317,4.4157,4.2672,4.1824,4.0834,3.9298,3.9065,3.8956,3.8615,3.9402,4.0339,4.1271,4.2216,4.3301,4.4612,4.4211,4.3923,4.4071,4.4816,4.5563,4.6265,4.6308,4.6308,4.6308,4.6308,4.6308,4.6308,4.6308,4.6308,4.6308,4.6308,4.6308,3.5341,3.5423,3.5182,3.5417,3.4863,3.4285,3.4285,0.0,0.0,0.0,0.0,0.0,0.0,0.0,0.0,0.0,0.0,0.0,4.5949,4.9615,5.267,5.5315,5.6602,5.743,5.7851,5.7269,5.5878,5.3546,5.2741,5.1391,4.9209,4.9102,4.9102,4.9102,4.9102,4.9102,4.9102,4.8231,4.7734,4.7568,4.6803,4.6369,4.6307,4.6307,4.6307,4.6347,4.7317,0.0,4.9646,5.148,5.3004,5.4375,5.5691,5.6295,5.6479,5.6932,5.682,5.62,5.4632,5.1853,4.8573,4.597,4.5057,4.4862,4.4062,4.4082,4.4433,4.4629,4.4941,4.5389,4.6269,4.6504,4.6504,4.6504,4.6777,4.7009,4.7009,4.7324,4.76,4.76,4.7218,4.6476,4.5148,4.4531,4.3689,4.2068,4.1832,4.1733,4.1425,4.2158,4.3035,4.3904,4.4787,4.5757,4.6903,4.7009,4.652,4.5376,4.5689,4.6086,4.6482,4.6504,4.6504,4.6504,4.6504,4.6504,4.6504,4.6504,4.6504,4.6504,4.6504,4.6504,3.5594,3.5399,3.4962,3.5657,3.5913,3.6016,3.6016,0.0,0.0,0.0,0.0,0.0,0.0,3.4251,3.4915,0.0,0.0,4.5286,0.0,0.0,5.4185,5.6477,5.7757,5.8284,5.7951,5.7963,5.6572,5.3009,5.2813,5.1783,4.9251,4.9102,4.9102,4.9102,4.9102,4.9102,4.9102,4.8563,4.7879,4.7113,4.6948,4.6679,4.6307,4.6307,4.6307,4.6368,4.7716,4.8773,4.9735,5.154,5.3485,5.541,5.5965,5.668,5.7396,5.7468,5.7516,5.7087,5.3823,5.1081,4.8613,4.6347,4.5332,4.492,4.4433,4.4336,4.4629,4.5703,4.6055,4.6308,4.7168,4.7405,4.7405,4.7405,4.7464,4.748,4.748,4.7561,4.76,4.76,4.7218,4.6699,4.6087,4.5587,4.5025,4.4293,4.4183,4.4165,4.4092,4.4612,4.5218,4.5743,4.6304,4.6841,4.7435,4.748,4.7416,4.7204,4.7248,4.7316,4.7405,4.7405,4.7405,4.7405,4.7405,4.7405,4.7405,4.7405,4.7405,4.7405,4.7405,4.7405,3.5489,3.5241,3.5013,3.6286,3.6729,3.6984,0.0,0.0,0.0,0.0,0.0,0.0,0.0,0.0,3.7462,4.1768,0.0,4.9012,5.1473,5.3683,5.5666,5.728,5.8208,5.861,5.8378,5.7764,5.6191,5.3299,5.2766,5.1544,4.9209,4.9102,4.9102,4.9102,4.8832,4.8583,4.8355,4.8128,4.7817,4.7382,4.7134,4.6762,4.6307,4.6549,4.6791,4.7093,4.8727,5.0025,5.1159,5.3221,5.4977,5.636,5.7042,5.7452,5.7561,5.7109,5.6233,5.4927,5.2526,5.0357,4.8355,4.634,4.5371,4.492,4.4531,4.4394,4.4668,4.5937,4.6465,4.6872,4.8011,4.8284,4.8284,4.8284,4.8284,4.8284,4.8284,4.8284,4.8284,4.8284,4.8125,4.7896,4.771,4.7462,4.7255,4.7006,4.696,4.696,4.696,4.7186,4.7416,4.7622,4.7851,4.8056,4.8262,4.8284,4.8089,4.764,4.76,4.76,4.76,4.76,4.76,4.76,4.76,4.76,4.76,4.76,4.76,4.76,4.76,4.76,3.532,3.4918,3.4764,3.6545,0.0,0.0,0.0,0.0,0.0,0.0,0.0,0.0,0.0,3.8417,0.0,4.5834,4.8997,5.1557,5.3783,5.5415,5.6803,5.7951,5.856,5.8836,5.871,5.7665,5.6042,5.3681,5.2809,5.1435,4.9209,4.9102,4.906,4.8935,4.8583,4.8169,4.7713,4.7817,4.7713,4.7361,4.7113,4.6762,4.6327,4.6872,4.7477,4.8184,5.0078,5.1778,5.3299,5.5351,5.6793,5.777,5.8487,5.8398,5.769,5.6775,5.4958,5.274,5.1402,4.9732,4.7966,4.6351,4.5527,4.5117,4.4805,4.4707,4.4941,4.6113,4.6736,4.7363,4.8578,4.8913,4.8913,4.8913,4.8913,4.8913,4.8913,4.8913,4.8913,4.8913,4.8913,4.8913,4.8913,4.8913,4.8913,4.8913,4.8913,4.8913,4.8913,4.8913,4.8913,4.8913,4.8913,4.8913,4.8913,4.8913,4.862,4.7952,4.7894,4.7894,4.7894,4.7894,4.7894,4.7894,4.7894,4.7894,4.7894,4.7894,4.7894,4.7894,4.7894,4.7894,3.5266,3.4373,3.3743,3.5915,0.0,0.0,0.0,0.0,0.0,0.0,0.0,0.0,0.0,4.3098,4.5537,4.7481,5.0142,5.2754,5.4981,5.6226,5.7361,5.851,5.9131,5.9257,5.8736,5.8384,5.6877,5.3727,5.3146,5.1827,4.923,4.9102,4.8894,4.8459,4.8418,4.8169,4.7713,4.8128,4.7693,4.641,4.6803,4.6762,4.6327,4.7173,4.8247,4.9579,5.1764,5.393,5.6035,5.7423,5.8811,6.0074,6.0119,5.9453,5.8287,5.7038,5.483,5.2255,5.0921,4.9285,4.7596,4.6597,4.5976,4.5646,4.5607,4.5607,4.5783,4.6618,4.7187,4.7757,4.8679,4.8913,4.8913,4.8913,4.8913,4.8913,4.8913,4.8913,4.8913,4.8913,4.8913,4.8913,4.8913,4.8913,4.8913,4.8913,4.8913,4.8913,4.8913,4.8913,4.8913,4.8913,4.8913,4.8913,4.8913,4.8913,4.8874,4.8815,4.8815,4.8815,4.8815,4.8815,4.8815,4.8815,4.8815,4.8815,4.8815,4.8815,4.8815,4.8815,4.8815,4.8815,3.5636,3.4858,3.4354,3.5732,0.0,0.0,0.0,0.0,0.0,0.0,0.0,0.0,0.0,0.0,4.7431,4.8736,5.1615,5.4429,5.6646,5.7581,5.844,5.9564,5.9865,5.9809,5.9257,5.8651,5.6974,5.3727,5.3191,5.1849,4.923,4.9102,4.9019,4.8832,4.8273,4.7879,4.7713,4.7589,4.7113,4.6327,4.7361,4.7465,4.6782,4.8256,4.9605,5.0968,5.3224,5.5276,5.7101,5.8191,5.9283,6.0244,5.9477,5.8384,5.7033,5.516,5.3078,5.0952,4.9625,4.8317,4.7201,4.6799,4.6406,4.6055,4.6055,4.6055,4.6133,4.6445,4.7051,4.7796,4.8656,4.8913,4.8913,4.8913,4.8913,4.8913,4.8913,4.8913,4.8913,4.8913,4.8913,4.8913,4.8913,4.8913,4.8913,4.8913,4.8913,4.8913,4.8913,4.8913,4.8913,4.8913,4.8913,4.8913,4.8913,4.8913,4.8913,4.8913,4.8913,4.8913,4.8913,4.8913,4.8913,4.8913,4.8913,4.8913,4.8913,4.8913,4.8913,4.8913,4.8913,4.8913,3.611,3.5176,3.4588,0.0,0.0,0.0,0.0,0.0,0.0,0.0,0.0,0.0,0.0,0.0,0.0,0.0,5.267,5.5559,5.76,5.8359,5.9037,5.994,6.006,5.991,5.9533,5.8775,5.7046,5.3978,5.3302,5.1849,4.923,4.9102,4.9039,4.8873,4.8107,4.7631,4.7486,4.7299,4.6989,4.6534,4.7941,4.8148,4.7299,4.9264,5.1086,5.2817,5.4961,5.6958,5.8731,5.9377,5.9924,6.0293,5.905,5.7648,5.6024,5.3472,5.1437,4.9777,4.8387,4.7509,4.696,4.6902,4.6814,4.668,4.6521,4.6482,4.6482,4.6482,4.7031,4.7776,4.848,4.8773,4.8913,4.8913,4.8913,4.8913,4.8913,4.8913,4.8913,4.8913,4.8913,4.8913,4.8913,4.8913,4.8913,4.8913,4.8913,4.8913,4.8913,4.8913,4.8913,4.8913,4.8913,4.8913,4.8913,4.8913,4.8913,4.8913,4.8913,4.8913,4.8913,4.8913,4.8913,4.8913,4.8913,4.8913,4.8913,4.8913,4.8913,4.8913,4.8913,4.8913,3.6676,3.5244,3.4146,0.0,0.0,0.0,0.0,0.0,0.0,0.0,0.0,0.0,0.0,0.0,0.0,5.0503,5.3231,5.5993,5.7675,5.8359,5.8911,5.9433,5.9508,5.9483,5.9483,5.8775,5.7191,5.4482,5.3483,5.1849,4.923,4.9102,4.8873,4.8418,4.7962,4.7486,4.701,4.7465,4.7465,4.7031,4.8417,4.8625,4.7776,5.0066,5.2564,5.5201,5.701,5.9107,6.121,6.121,6.099,6.0556,5.9209,5.759,5.5596,5.2282,5.0181,4.8797,4.7381,4.6892,4.6911,4.6889,4.7226,4.7522,4.7048,4.6911,4.6889,4.6911,4.7246,4.7698,4.8086,4.8558,4.8913,4.8913,4.8913,4.8913,4.8913,4.8913,4.8913,4.8913,4.8913,4.8913,4.8913,4.8913,4.8913,4.8913,4.8913,4.8913,4.8913,4.8913,4.8913,4.8913,4.8913,4.8913,4.8913,4.8913,4.8913,4.8913,4.8894,4.8894,4.8913,4.8913,4.8913,4.8913,4.8913,4.8913,4.8913,4.8913,4.8913,4.8913,4.8913,4.8913,3.78,3.691,0.0,3.7993,0.0,0.0,0.0,0.0,0.0,0.0,0.0,0.0,0.0,0.0,0.0,5.1682,5.4059,5.6671,5.873,5.9156,5.9458,5.9991,6.0041,5.9784,5.9012,5.8552,5.7046,5.3978,5.3279,5.1849,4.923,4.9102,4.9039,4.8915,4.8438,4.8128,4.7982,4.7796,4.7631,4.7506,4.8252,4.8459,4.8274,5.0884,5.3191,5.5224,5.7394,5.9434,6.1235,6.1592,6.1157,6.0042,5.8385,5.6393,5.4128,5.0825,4.8975,4.7935,4.6861,4.6484,4.6582,4.7187,4.7503,4.7581,4.7422,4.7383,4.7266,4.666,4.7012,4.764,4.7757,4.8343,4.8968,4.9258,4.9336,4.9414,4.975,4.9809,4.9809,4.9809,4.9531,4.9336,4.9336,4.9086,4.9011,4.9277,4.9336,4.9433,4.9769,4.9809,4.9809,4.9809,4.9809,4.9691,4.9355,4.9066,4.8913,4.8913,4.8597,4.8558,4.8894,4.8913,4.8913,4.8913,4.8913,4.8913,4.8913,4.8913,4.8913,4.8913,4.8913,4.8913,3.831,3.7955,0.0,3.9537,4.1042,4.3374,4.8143,0.0,0.0,0.0,0.0,5.4318,5.2109,5.3088,0.0,5.3507,5.5365,5.7499,5.9257,5.9684,5.996,6.0267,6.0292,5.9966,5.9087,5.8577,5.7046,5.4047,5.3302,5.1849,4.923,4.9102,4.9102,4.9102,4.8625,4.8397,4.8397,4.8316,4.8338,4.8484,4.9154,4.9575,4.9765,5.1654,5.3681,5.5888,5.8921,6.0848,6.1848,6.2012,6.1179,5.9544,5.7323,5.5089,5.2708,4.9597,4.7996,4.7293,4.6533,4.6406,4.6618,4.7148,4.7441,4.76,4.76,4.7461,4.7207,4.6699,4.7051,4.76,4.76,4.8268,4.8972,4.9199,4.9371,4.9566,4.9863,5.0082,5.0199,5.0199,4.9961,4.9726,4.9527,4.9453,4.9437,4.9488,4.9644,4.9883,5.016,5.0199,5.0199,5.0199,5.0199,5.0102,4.9805,4.9375,4.9144,4.9144,4.8711,4.8695,4.9125,4.8968,4.8913,4.8913,4.8913,4.8913,4.8913,4.8913,4.8913,4.8913,4.8913,4.8913,3.8543,3.8671,3.903,4.067,4.3135,0.0,5.2402,5.4177,5.4906,5.6043,0.0,5.6401,5.4436,5.5365,5.6269,5.5767,5.7047,5.8478,5.9508,6.0066,6.0367,6.0367,6.0342,6.0091,5.9558,5.8775,5.7191,5.4502,5.3483,5.1849,4.923,4.9102,4.9102,4.9102,4.8687,4.8459,4.8459,4.8965,4.9448,4.9887,5.084,5.1517,5.1955,5.2461,5.4226,5.7148,6.1087,6.2802,6.2761,6.2372,6.1129,5.9172,5.6314,5.3798,5.1454,4.8638,4.7285,4.6794,4.6426,4.654,4.6853,4.6892,4.7187,4.7542,4.76,4.7305,4.697,4.697,4.7305,4.7659,4.7659,4.8265,4.8913,4.8913,4.9238,4.9566,4.9605,4.998,5.0317,5.0317,5.0297,5.0117,4.9683,4.9941,5.0058,4.9683,5.0019,5.0317,5.0317,5.0317,5.0317,5.0317,5.0317,5.0297,5.0258,4.9844,4.9566,4.9566,4.9183,4.9144,4.9547,4.9183,4.8968,4.9031,4.9031,4.9031,4.9031,4.9031,4.9031,4.9031,4.9031,4.9031,3.9813,4.0294,4.1066,4.3958,4.7143,5.0258,5.3056,5.4177,5.5006,5.6527,5.691,5.7004,5.6997,5.765,5.8133,5.8008,5.8987,6.0035,6.0758,6.0934,6.1009,6.1009,6.0588,6.0091,5.9558,5.8775,5.7191,5.4502,5.3483,5.1849,4.923,4.9102,4.9102,4.9102,4.8997,4.8957,4.8957,4.9744,5.0504,5.1278,5.2159,5.3011,5.3752,5.3967,5.5971,5.9395,6.1775,6.2802,6.2761,6.2372,6.1316,5.9639,5.6444,5.3844,5.1519,4.8653,4.709,4.6426,4.6328,4.6367,4.6484,4.6794,4.697,4.7107,4.7503,4.7542,4.7441,4.7441,4.7734,4.8066,4.8066,4.848,4.8913,4.8913,4.9496,5.0137,5.0449,5.0835,5.1148,5.1148,5.0898,5.0644,5.0547,5.0332,5.0278,5.0488,5.0898,5.1148,5.1148,5.1148,5.1148,5.1148,5.1148,5.1011,5.0703,5.0293,5.0063,5.0063,4.9629,4.957,5.0019,4.9609,4.9551,4.9906,4.9926,4.9926,4.9926,4.9926,4.9926,4.9926,4.9926,4.9926,4.0133,4.1213,4.2655,4.6633,4.9613,5.1937,5.336,5.4378,5.5232,5.605,5.6652,5.7179,5.7801,5.8334,5.8786,5.9056,5.9539,6.0136,6.0688,6.0763,6.0763,6.0763,6.031,5.9817,5.9242,5.8084,5.643,5.4179,5.3197,5.1851,4.9827,4.97,4.97,4.97,4.97,4.97,4.97,5.0802,5.1913,5.299,5.3877,5.4853,5.5886,5.628,5.774,6.0066,6.1982,6.2802,6.2761,6.2372,6.1233,5.9447,5.6401,5.3822,5.1512,4.8668,4.7168,4.656,4.6367,4.6308,4.6328,4.654,4.6736,4.6989,4.7441,4.76,4.764,4.7832,4.8027,4.8203,4.8203,4.8558,4.8913,4.8913,4.9555,5.0258,5.0449,5.0972,5.1401,5.1401,5.1226,5.1035,5.084,5.0625,5.0625,5.1011,5.1265,5.1401,5.1401,5.1401,5.1401,5.1401,5.1401,5.1323,5.1109,5.0723,5.0488,5.0488,5.0078,5.0039,5.0469,5.0254,5.0156,5.0199,5.0199,5.0199,5.0199,5.0199,5.0199,5.0199,5.0199,5.0199,3.9948,4.1951,4.4241,4.844,5.0761,5.227,5.3336,5.4285,5.5039,5.5358,5.6194,5.7054,5.765,5.8183,5.8736,5.9282,5.9508,5.9809,6.0242,6.0292,6.0292,6.0292,5.9863,5.93,5.8638,5.7127,5.5402,5.3505,5.2766,5.1893,5.0675,5.0696,5.0696,5.0633,5.0696,5.0696,5.0633,5.2126,5.3583,5.4974,5.6011,5.7053,5.8069,5.8648,5.9244,5.9966,6.175,6.2576,6.2636,6.2202,6.1118,5.9365,5.6553,5.4106,5.1805,4.8927,4.7506,4.6963,4.6467,4.6308,4.6308,4.6387,4.6618,4.7009,4.7539,4.7718,4.7796,4.8203,4.832,4.832,4.832,4.8617,4.8913,4.8913,4.9555,5.0199,5.0199,5.084,5.1401,5.1401,5.1401,5.1304,5.0952,5.0894,5.1011,5.1362,5.1401,5.1401,5.1401,5.1401,5.1401,5.1401,5.1401,5.1401,5.1401,5.1089,5.0894,5.0894,5.0586,5.0547,5.0898,5.0894,5.0742,5.0391,5.0414,5.0414,5.0414,5.0414,5.0414,5.0414,5.0414,5.0414,3.9656,4.3032,4.626,4.8437,4.9925,5.1208,5.2672,5.3121,5.364,5.5089,5.5892,5.6477,5.7029,5.7606,5.8177,5.871,5.9589,6.0217,6.0292,6.0292,6.0292,6.0292,5.9514,5.8526,5.7277,5.633,5.4714,5.2161,5.2246,5.2142,5.1556,5.1912,5.1954,5.1535,5.1912,5.1933,5.1535,5.3729,5.5628,5.7272,5.89,5.9779,5.9956,6.0047,5.9939,5.9791,6.0916,6.1667,6.2079,6.1608,6.1105,6.0336,5.7525,5.5263,5.3212,4.9997,4.8306,4.7469,4.6618,4.6308,4.6367,4.6716,4.6853,4.7048,4.7868,4.8125,4.8223,4.8675,4.8815,4.8815,4.8815,4.8855,4.8913,4.8913,4.9555,5.0199,5.0199,5.084,5.1401,5.1401,5.1401,5.1382,5.1343,5.1323,5.1343,5.1401,5.1401,5.1401,5.1401,5.1401,5.1401,5.1401,5.1401,5.1401,5.1401,5.1362,5.1323,5.1323,5.1265,5.1265,5.1323,5.1323,5.1304,5.1245,5.1245,5.1245,5.1245,5.1245,5.1245,5.1245,5.1245,5.1245,3.9515,4.3201,4.6464,4.8379,4.9734,5.0857,5.18,5.246,5.3113,5.3841,5.4687,5.5641,5.6784,5.7481,5.8077,5.861,5.9357,5.9859,5.9859,5.9859,5.9859,5.9859,5.9094,5.8242,5.7361,5.5869,5.4166,5.2246,5.2288,5.2413,5.2431,5.2911,5.318,5.3197,5.3406,5.3583,5.3665,5.5446,5.7319,5.9285,6.0313,6.0638,6.0292,6.0292,6.0194,6.0087,6.088,6.1336,6.1567,6.1667,6.1308,6.0589,5.8792,5.7042,5.5066,5.1744,4.9969,4.9009,4.7546,4.7034,4.7051,4.7226,4.7438,4.7692,4.8086,4.8379,4.8636,4.8855,4.8913,4.8913,4.8913,4.8913,4.8913,4.8913,4.9555,5.0199,5.0199,5.084,5.1401,5.1401,5.1401,5.1401,5.1401,5.1401,5.1401,5.1401,5.1401,5.1401,5.1401,5.1401,5.1401,5.1401,5.1401,5.1401,5.1401,5.1401,5.1401,5.1401,5.1401,5.1401,5.1401,5.1401,5.1401,5.1401,5.1401,5.1401,5.1401,5.1401,5.1401,5.1401,5.1401,5.1401,3.8939,4.2061,4.497,4.6856,4.8178,4.9247,5.0213,5.1172,5.2059,5.2762,5.3582,5.4629,5.61,5.6997,5.76,5.8008,5.8755,5.9307,5.9307,5.9408,5.9483,5.9483,5.8867,5.8183,5.7484,5.5789,5.4045,5.235,5.2538,5.2911,5.3298,5.4022,5.4617,5.5018,5.5282,5.5559,5.5847,5.754,5.9313,6.1085,6.1281,6.109,6.0518,6.0367,6.0217,6.0116,6.0563,6.0858,6.1014,6.1567,6.1364,6.0617,5.9814,5.8337,5.6314,5.3209,5.1381,5.0156,4.8389,4.769,4.762,4.7737,4.7949,4.8223,4.834,4.8617,4.8913,4.8913,4.8913,4.8913,4.8913,4.8913,4.8913,4.8913,4.9476,5.0098,5.043,5.0996,5.1401,5.1401,5.1401,5.1401,5.1401,5.1401,5.1401,5.1401,5.1401,5.1401,5.1401,5.1401,5.1401,5.1401,5.1401,5.1401,5.1401,5.1401,5.1401,5.1401,5.1401,5.1401,5.1401,5.1401,5.1401,5.1401,5.1401,5.1401,5.1401,5.1401,5.1401,5.1401,5.1401,5.1401,3.7469,3.9084,4.1106,4.2855,4.3961,4.5215,4.7558,4.8576,4.9757,5.236,5.2962,5.3339,5.4504,5.5566,5.6301,5.6344,5.7681,5.8736,5.8736,5.9182,5.9483,5.9483,5.914,5.8349,5.7059,5.615,5.4554,5.1932,5.2909,5.3815,5.4197,5.5463,5.6347,5.6761,5.771,5.7996,5.7569,6.0359,6.2053,6.2661,6.2199,6.1667,6.1135,6.0563,6.0016,5.9533,5.9558,5.9885,6.0392,6.0989,6.104,6.0666,6.0223,5.8662,5.6424,5.4019,5.1977,5.0199,4.8768,4.796,4.7679,4.8047,4.8183,4.8281,4.8714,4.8894,4.8913,4.8913,4.8913,4.8913,4.8913,4.8913,4.8913,4.8913,4.9242,4.9879,5.1089,5.1382,5.1401,5.1401,5.1401,5.1401,5.1401,5.1401,5.1401,5.1401,5.1401,5.1401,5.1401,5.1401,5.1401,5.1401,5.1401,5.1401,5.1401,5.1401,5.1401,5.1401,5.1401,5.1401,5.1401,5.1401,5.1401,5.1401,5.1401,5.1401,5.1401,5.1401,5.1401,5.1401,5.1401,5.1401,3.4652,3.6197,3.8237,3.9943,4.1673,4.3456,4.5336,4.7054,4.8812,5.0879,5.1607,5.2201,5.3306,5.4988,5.62,5.62,5.7606,5.8811,5.9182,5.9382,5.9633,5.9966,5.9339,5.8589,5.7814,5.673,5.5099,5.2721,5.355,5.4184,5.4278,5.556,5.675,5.7696,5.8456,5.9227,6.008,6.1699,6.2425,6.2275,6.2094,6.1517,6.0613,6.0392,6.001,5.9483,5.9483,5.9608,5.9859,6.0808,6.0951,6.0536,6.0224,5.9066,5.727,5.4566,5.2822,5.1501,4.9756,4.9014,4.8871,4.8689,4.8656,4.8675,4.8855,4.8913,4.8913,4.8913,4.8913,4.8913,4.8913,4.8913,4.8972,4.9219,4.9629,5.0137,5.0855,5.1226,5.1401,5.1401,5.1401,5.1401,5.1401,5.1401,5.1401,5.1401,5.1401,5.1401,5.1401,5.1401,5.1401,5.1401,5.1401,5.1401,5.1401,5.1401,5.1401,5.1401,5.1401,5.1401,5.1401,5.1401,5.1401,5.1401,5.1401,5.1401,5.1401,5.1401,5.1401,5.1401,5.1401,5.1401,3.2635,3.4019,3.5879,3.7173,3.9019,4.1004,4.2822,4.4794,4.6878,4.9097,5.0042,5.0912,5.236,5.3992,5.5221,5.5591,5.7054,5.8334,5.888,5.9257,5.9633,6.001,5.9651,5.9178,5.8687,5.7646,5.599,5.3606,5.4309,5.4676,5.4319,5.5725,5.7356,5.9153,5.9603,6.0462,6.1864,6.2484,6.2526,6.1994,6.1994,6.1396,6.0292,6.0292,6.001,5.9483,5.9483,5.9483,5.9583,6.0733,6.0827,6.024,5.9981,5.896,5.7313,5.4763,5.3166,5.2062,5.0611,4.9879,4.9558,4.9236,4.9029,4.8913,4.8913,4.8913,4.8913,4.8913,4.8913,4.8913,4.8913,4.8913,4.8972,4.9238,4.9648,5.0078,5.0508,5.1011,5.1401,5.1401,5.1401,5.1401,5.1401,5.1401,5.1401,5.1401,5.1401,5.1401,5.1401,5.1401,5.1401,5.1401,5.1401,5.1401,5.1401,5.1401,5.1401,5.1401,5.1401,5.1401,5.1401,5.1401,5.1401,5.1401,5.1401,5.1401,5.1401,5.1401,5.1401,5.1401,5.1401,5.1401,0.0,0.0,0.0,3.4463,3.5855,3.7675,3.986,4.1681,4.3854,4.7154,4.8325,4.9446,5.1699,5.2536,5.3239,5.4403,5.5942,5.7204,5.7826,5.8811,5.9489,5.9489,5.9946,6.0046,5.9514,5.8731,5.7191,5.4499,5.52,5.5325,5.438,5.6086,5.8332,6.1075,6.1185,6.1667,6.2752,6.2752,6.2476,6.1943,6.1943,6.1346,6.0267,6.0267,5.9991,5.9483,5.9483,5.9483,5.9583,6.0733,6.0647,5.978,5.9458,5.8255,5.6449,5.4543,5.2964,5.1723,5.127,5.0474,4.965,4.9627,4.9305,4.8936,4.8913,4.8913,4.8933,4.8933,4.8933,4.8933,4.8933,4.8933,4.8952,4.8952,4.9238,4.9664,5.0121,5.084,5.1401,5.1401,5.1401,5.1401,5.1401,5.1401,5.1401,5.1401,5.1401,5.1401,5.1401,5.1401,5.1401,5.1401,5.1401,5.1401,5.1401,5.1401,5.1401,5.1401,5.1401,5.1401,5.1401,5.1401,5.1401,5.1401,5.1401,5.1401,5.1401,5.1401,5.1401,5.1401,5.1401,5.1401,3.0548,0.0,0.0,0.0,0.0,0.0,3.6585,3.9132,4.2133,4.5472,4.6928,4.8494,5.1532,5.2226,5.2829,5.4346,5.5616,5.6903,5.8284,5.8812,5.9217,5.9585,5.9534,5.9182,5.855,5.8059,5.6903,5.4821,5.562,5.5913,5.5275,5.7519,5.9341,6.0518,6.0563,6.0914,6.1642,6.1642,6.1341,6.0769,6.0769,6.0412,5.9734,5.9734,5.9633,5.9483,5.9483,5.9483,5.9583,6.0733,6.0647,5.9678,5.8385,5.7204,5.5882,5.332,5.213,5.1723,5.127,5.093,5.0565,4.9856,4.9512,4.9351,4.8986,4.9105,4.9313,4.9313,4.9313,4.9313,4.9313,4.9594,4.9828,4.9828,5.0137,5.0488,5.0605,5.103,5.1401,5.1401,5.1401,5.1401,5.1401,5.1401,5.1401,5.1401,5.1401,5.1401,5.1401,5.1401,5.1401,5.1401,5.1401,5.1401,5.1401,5.1401,5.1401,5.1401,5.1401,5.1401,5.1401,5.1401,5.1401,5.1401,5.1401,5.1401,5.1401,5.1401,5.1401,5.1401,5.1401,5.1401,0.0,0.0,0.0,0.0,0.0,0.0,3.4628,3.7237,4.0211,4.2861,4.4468,4.6261,4.9163,4.9552,5.0038,5.1706,5.2786,5.4584,5.7895,5.8491,5.8568,5.8526,5.8682,5.8491,5.7668,5.7594,5.7163,5.608,5.6562,5.6833,5.6682,5.8466,5.9759,6.0292,6.0292,6.0588,6.1185,6.121,6.0889,6.0292,6.0563,6.0387,5.9859,6.0085,6.006,5.9834,5.9834,5.9709,5.9583,6.0733,6.0647,5.9613,5.7963,5.6772,5.5664,5.2828,5.1791,5.1746,5.1497,5.127,5.0998,5.0428,5.0085,4.9856,4.9581,4.9624,4.9792,4.9792,4.9789,4.9766,4.9547,4.9985,5.044,5.0247,5.0518,5.0848,5.081,5.1164,5.1477,5.1411,5.1401,5.1401,5.1401,5.1401,5.1401,5.1401,5.1401,5.1401,5.1401,5.1401,5.1401,5.1401,5.1401,5.1401,5.1401,5.1401,5.1401,5.1401,5.1401,5.1401,5.1401,5.1401,5.1401,5.1401,5.1401,5.1401,5.1401,5.1401,5.1401,5.1401,5.1401,5.1401,3.0193,0.0,0.0,0.0,0.0,0.0,3.342,3.5604,3.8015,3.9684,4.1393,4.3226,4.5447,4.5585,4.5857,4.741,4.8491,5.1072,5.6617,5.7573,5.7483,5.6954,5.7689,5.7894,5.6995,5.7365,5.7731,5.7755,5.7828,5.801,5.835,5.9156,5.9784,6.0191,6.0217,6.0487,6.1009,6.1009,6.0738,6.0217,6.0814,6.0814,6.0317,6.0914,6.0889,6.0392,6.0317,6.0085,5.9778,6.0783,6.0647,5.9613,5.7963,5.6772,5.5664,5.2828,5.1791,5.1791,5.1791,5.152,5.118,5.1134,5.0793,5.0382,5.0314,5.0293,5.0285,5.0274,5.0299,5.0238,4.9832,5.0405,5.0957,5.0597,5.0767,5.1032,5.1045,5.1363,5.1649,5.161,5.1523,5.1474,5.1401,5.1401,5.1401,5.1401,5.145,5.1474,5.1401,5.145,5.1474,5.1401,5.145,5.145,5.1401,5.145,5.145,5.1401,5.1401,5.1401,5.1401,5.1401,5.1426,5.1474,5.1547,5.1571,5.1571,5.145,5.1401,5.1401,5.1401,5.1401,3.063,3.0206,3.0055,0.0,0.0,0.0,3.1225,3.3043,3.5189,3.6859,3.8542,4.0376,4.2587,4.2779,4.2786,4.3458,4.5463,4.863,5.3522,5.4727,5.5527,5.6668,5.7086,5.7147,5.6847,5.7733,5.8257,5.8108,5.8938,5.9447,5.942,5.9887,5.9991,5.9659,5.9659,5.9709,5.9834,5.9834,5.9759,5.9659,6.0211,6.0417,6.0317,6.0914,6.1135,6.1009,6.0512,6.0512,6.0884,6.111,6.0647,5.9613,5.7963,5.6772,5.5664,5.2828,5.1791,5.1791,5.1791,5.1723,5.1588,5.1225,5.1043,5.0861,5.0428,5.0547,5.0826,5.0792,5.0968,5.1166,5.119,5.1578,5.2039,5.2371,5.2203,5.2059,5.2491,5.2323,5.2198,5.2611,5.2346,5.1911,5.1474,5.1401,5.1401,5.1401,5.1765,5.1886,5.145,5.179,5.1886,5.145,5.179,5.1862,5.1426,5.1814,5.1862,5.1426,5.1401,5.1401,5.1401,5.1401,5.1596,5.2056,5.2487,5.2679,5.2679,5.1814,5.1401,5.1401,5.1401,5.1401,3.1249,3.0809,3.0608,3.0598,0.0,0.0,0.0,3.2305,3.4148,3.4974,3.6482,3.8065,3.9446,3.9375,3.9151,3.9239,4.1074,4.3817,4.7629,5.1481,5.443,5.5888,5.6332,5.6381,5.6071,5.7204,5.8197,5.8804,5.99,6.0378,6.0027,6.0469,6.0613,6.0356,6.0356,6.0186,5.991,5.991,5.9759,5.9508,6.0337,6.0738,6.0788,6.1617,6.1843,6.1567,6.1291,6.1165,6.1235,6.1512,6.107,6.0045,5.8056,5.6772,5.5664,5.2828,5.1791,5.1791,5.1791,5.1791,5.1746,5.152,5.1452,5.1406,5.1134,5.1352,5.1593,5.1045,5.1336,5.1764,5.1618,5.21,5.2679,5.2944,5.3017,5.2996,5.2992,5.3017,5.2996,5.2992,5.3017,5.2732,5.1935,5.1571,5.1499,5.1765,5.2032,5.2201,5.2197,5.2201,5.2201,5.2197,5.2201,5.2201,5.2197,5.2201,5.2104,5.1814,5.1547,5.1401,5.1401,5.1401,5.1988,5.3268,5.3576,5.374,5.3699,5.2684,5.193,5.1401,5.1401,5.1401,0.0,0.0,0.0,0.0,0.0,3.111,0.0,0.0,0.0,0.0,3.441,3.5564,3.5993,3.5732,3.5295,3.4863,3.652,3.8714,4.1161,4.688,5.1719,5.4111,5.4742,5.4977,5.4976,5.6504,5.8051,5.9394,6.0356,6.0708,6.0317,6.0864,6.121,6.121,6.121,6.0914,6.0317,6.0292,6.0035,5.9508,6.0658,6.121,6.1235,6.23,6.2551,6.2149,6.2024,6.1818,6.1517,6.1868,6.1543,6.0628,5.8218,5.6772,5.5664,5.2828,5.1791,5.1791,5.1791,5.1791,5.1791,5.1791,5.1791,5.1791,5.1791,5.2028,5.2107,5.129,5.1471,5.1932,5.1913,5.2375,5.294,5.3213,5.3545,5.3712,5.3353,5.3569,5.3712,5.3353,5.3569,5.3497,5.2515,5.208,5.2032,5.2543,5.2808,5.3072,5.3524,5.3192,5.3096,5.3524,5.3189,5.3068,5.338,5.3044,5.2664,5.237,5.1838,5.1547,5.1547,5.1935,5.3028,5.4965,5.5054,5.5054,5.4989,5.4054,5.2828,5.1401,5.1401,5.1401,0.0,0.0,0.0,0.0,3.1009,0.0,0.0,0.0,0.0,0.0,0.0,3.1984,3.2049,0.0,0.0,3.0289,3.2781,3.5175,3.5978,3.9285,4.3991,5.0375,5.1243,5.1959,5.363,5.6246,5.8308,5.9433,5.9608,5.9859,6.0267,6.0864,6.121,6.121,6.121,6.0914,6.0317,6.0292,6.0035,5.9508,6.0658,6.121,6.1235,6.23,6.2777,6.2676,6.2199,6.2245,6.2576,6.2169,6.1767,6.1142,5.8379,5.6772,5.5664,5.2828,5.1791,5.1791,5.1791,5.1791,5.1791,5.1791,5.1791,5.1791,5.1791,5.1801,5.1778,5.1639,5.1333,5.1343,5.2607,5.2677,5.2724,5.4036,5.4047,5.3904,5.4258,5.4047,5.3904,5.4262,5.4047,5.3616,5.3017,5.3189,5.362,5.4149,5.5004,5.5574,5.5666,5.5598,5.5574,5.5666,5.5598,5.5385,5.5004,5.4889,5.4292,5.2992,5.2418,5.2104,5.2104,5.3818,5.5527,5.7121,5.7144,5.7144,5.7144,5.6139,5.4197,5.1401,5.1401,5.1401,0.0,0.0,0.0,0.0,0.0,0.0,0.0,0.0,3.1451,0.0,0.0,0.0,0.0,0.0,0.0,0.0,3.1256,3.2875,3.3784,3.5675,3.927,4.5497,4.7518,4.9589,5.2611,5.447,5.5917,5.7022,5.7399,5.8252,5.9759,6.0989,6.1818,6.2119,6.1818,6.1391,6.0839,6.0814,6.0537,5.9985,6.1115,6.1667,6.1692,6.245,6.2802,6.2802,6.2551,6.2601,6.2802,6.2551,6.207,6.1216,5.8403,5.6772,5.5664,5.2828,5.1791,5.1791,5.1791,5.1791,5.1791,5.1791,5.1791,5.1791,5.1791,5.1986,5.2169,5.2138,5.213,5.2384,5.3281,5.3331,5.3396,5.4292,5.4354,5.4262,5.4473,5.4354,5.4262,5.4473,5.4333,5.4309,5.469,5.4865,5.532,5.6424,5.7428,5.8191,5.8468,5.826,5.8191,5.8468,5.826,5.8006,5.7774,5.6728,5.5694,5.4791,5.3695,5.3192,5.3463,5.5456,5.7377,5.9155,5.9178,5.9178,5.9178,5.8167,5.6728,5.4871,5.3723,5.3192,3.5747,0.0,0.0,0.0,0.0,0.0,0.0,0.0,0.0,0.0,0.0,0.0,0.0,0.0,0.0,0.0,0.0,3.1176,3.1728,3.2623,3.527,4.0852,4.3994,4.6899,5.0027,5.1468,5.2634,5.3611,5.4257,5.5666,5.8045,5.9885,6.1266,6.2099,6.1893,6.1592,6.121,6.121,6.0964,6.0563,6.1522,6.1994,6.2019,6.2551,6.2802,6.2802,6.2802,6.2802,6.2802,6.2802,6.229,6.1236,5.8681,5.7161,5.5991,5.2792,5.1688,5.1791,5.1646,5.1688,5.1791,5.1791,5.1791,5.1791,5.1791,5.204,5.2323,5.2408,5.2571,5.2889,5.3603,5.3696,5.3764,5.436,5.4497,5.4497,5.4497,5.4497,5.4497,5.4497,5.4497,5.4904,5.6181,5.649,5.7033,5.8514,5.9681,6.0588,6.1061,6.0701,6.0588,6.1061,6.0701,6.0385,6.0227,5.8675,5.7217,5.6068,5.5173,5.4889,5.5225,5.7216,5.9086,6.077,6.0816,6.0816,6.0816,5.9954,5.9064,5.819,5.6211,5.5291,0.0,0.0,0.0,3.2831,0.0,0.0,0.0,0.0,3.0949,0.0,0.0,0.0,0.0,0.0,0.0,0.0,0.0,0.0,0.0,0.0,0.0,0.0,0.0,4.364,4.5007,4.7153,4.8714,4.927,5.0097,5.1825,5.4622,5.684,5.8755,6.0342,6.0914,6.121,6.121,6.121,6.1185,6.1185,6.1743,6.1994,6.2019,6.2551,6.2802,6.2802,6.2802,6.2802,6.2802,6.2802,6.229,6.1299,5.9402,5.8127,5.6857,5.2655,5.1419,5.1729,5.1294,5.1419,5.1791,5.1791,5.1791,5.1791,5.1791,5.1812,5.1915,5.2369,5.2128,5.2056,5.3446,5.3461,5.3351,5.4278,5.4497,5.4497,5.4497,5.4497,5.4497,5.4497,5.4497,5.5141,5.7119,5.7818,5.8627,6.0113,6.1581,6.2675,6.3141,6.2786,6.2675,6.3141,6.2786,6.2319,6.1874,6.0884,5.9063,5.6186,5.6796,5.7309,5.74,5.9269,6.0794,6.1829,6.183,6.183,6.1852,6.1359,6.084,6.0273,5.8236,5.7312,0.0,0.0,3.6178,3.4745,0.0,0.0,0.0,0.0,0.0,0.0,0.0,0.0,0.0,0.0,0.0,0.0,0.0,0.0,0.0,0.0,0.0,0.0,0.0,0.0,4.1488,4.3539,4.512,4.6044,4.6769,4.8702,5.2218,5.4856,5.7173,5.9187,6.0116,6.0788,6.121,6.121,6.1386,6.1743,6.2275,6.2526,6.2526,6.2727,6.2802,6.2802,6.2802,6.2802,6.2756,6.2425,6.1905,6.1182,5.9244,5.8169,5.7297,5.4126,5.3048,5.3076,5.2301,5.1937,5.1791,5.1791,5.1791,5.1791,5.1791,5.1791,5.1957,5.2723,5.2814,5.2928,5.3997,5.4154,5.41,5.4432,5.4497,5.4497,5.4497,5.4497,5.4595,5.4972,5.5283,5.6134,5.8164,5.9658,6.0973,6.214,6.3802,6.4985,6.5137,6.5006,6.4985,6.5137,6.5006,6.4724,6.4243,6.2718,6.0814,5.8514,5.9316,5.9999,6.034,6.1603,6.2633,6.3275,6.3299,6.3145,6.2834,6.2656,6.2501,6.23,6.1626,6.0612,3.9761,3.8919,0.0,3.673,3.5983,0.0,3.3699,0.0,0.0,0.0,0.0,0.0,0.0,0.0,0.0,0.0,0.0,0.0,0.0,2.876,0.0,0.0,0.0,0.0,0.0,4.0197,4.1645,4.2458,4.3451,4.5547,4.9053,5.2218,5.5039,5.7455,5.9156,6.0387,6.1185,6.1411,6.1743,6.2275,6.2626,6.2802,6.2802,6.2802,6.2802,6.2802,6.2802,6.2802,6.2777,6.2225,6.1731,6.1126,5.9524,5.8775,5.8245,5.5351,5.3994,5.3535,5.3148,5.2469,5.1791,5.1791,5.1791,5.1791,5.1791,5.1791,5.1998,5.2953,5.3201,5.3385,5.4272,5.4497,5.4497,5.4497,5.4497,5.4497,5.4497,5.4497,5.4711,5.5401,5.6064,5.7144,5.9155,6.104,6.2583,6.343,6.4985,6.609,6.609,6.609,6.609,6.609,6.609,6.5853,6.5205,6.3846,6.2361,6.0769,6.1602,6.2207,6.234,6.3274,6.387,6.4005,6.4005,6.3763,6.3301,6.3301,6.3301,6.3301,6.3301,6.2634]}]]